[[{"header":{"parameterUnit":"m.s-1","parameterCategory":1,"la1":31.0,"la2":29.5877,"lo1":-88.7671,"lo2":-86.6584,"dy":0.0162,"dx":0.0185,"nx":115,"ny":88,"refTime":"2024-04-29T18:00:00:Z","depth":0,"parameterNumber":2,"parameterNumberName":"U-component_of_WINDS"},"data":[0.0,0.0,0.0,0.0,0.0,0.0,0.0,0.0,0.0,0.0,0.0,0.0,0.0,0.0,0.0,0.0,0.0,0.0,0.0,0.0,0.0,0.0,0.0,0.0,0.0,0.0,0.0,0.0,0.0,0.0,0.0,0.0,0.0,0.0,0.0,0.0,0.0,0.0,0.0,0.0,0.0,0.0,0.0,0.0,0.0,0.0,0.0,0.0,0.0,0.0,0.0,0.0,0.0,0.0,0.0,0.0,0.0,0.0,0.0,0.0,0.0,0.0,0.0,0.0,0.0,0.0,0.0,0.0,0.0,0.0,0.0,0.0,0.0,0.0,0.0,0.0,0.0,0.0,0.0,0.0,0.0,0.0,0.0,0.0,0.0,0.0,0.0,0.0,0.0,0.0,0.0,0.0,0.0,0.0,0.0,0.0,0.0,0.0,0.0,0.0,0.0,0.0,0.0,0.0,0.0,0.0,0.0,0.0,0.0,0.0,0.0,0.0,0.0,0.0,0.0,0.0,0.0,0.0,0.0,0.0,0.0,0.0,0.0,0.0,0.0,0.0,0.0,0.0,0.0,0.0,0.0,0.0,0.0,0.0,0.0,0.0,0.0,0.0,0.0,0.0,0.0,0.0,0.0,0.0,0.0,0.0,0.0,0.0,0.0,0.0,0.0,0.0,0.0,0.0,0.0,0.0,0.0,0.0,0.0,0.0,0.0,0.0,0.0,0.0,0.0,0.0,0.0,0.0,0.0,0.0,0.0,0.0,0.0,0.0,0.0,0.0,0.0,0.0,0.0,0.0,0.0,0.0,0.0,0.0,0.0,0.0,0.0,0.0,0.0,0.0,0.0,0.0,0.0,0.0,0.0,0.0,0.0,0.0,0.0,0.0,0.0,0.0,0.0,0.0,0.0,0.0,0.0,0.0,0.0,0.0,0.0,0.0,0.0,0.0,0.0,0.0,0.0,0.0,0.0,0.0,0.0,0.0,0.0,0.0,0.0,0.0,0.0,0.0,0.0,0.0,0.0,0.0,0.0,0.0,0.0,0.0,0.0,0.0,0.0,0.0,0.0,0.0,0.0,0.0,0.0,0.0,0.0,0.0,0.0,0.0,0.0,0.0,0.0,0.0,0.0,0.0,0.0,0.0,0.0,0.0,0.0,0.0,0.0,0.0,0.0,0.0,0.0,0.0,0.0,0.0,0.0,0.0,0.0,0.0,0.0,0.0,0.0,0.0,0.0,0.0,0.0,0.0,0.0,0.0,0.0,0.0,0.0,0.0,0.0,0.0,0.0,0.0,0.0,0.0,0.0,0.0,0.0,0.0,0.0,0.0,0.0,0.0,0.0,0.0,0.0,0.0,0.0,0.0,0.0,0.0,0.0,0.0,0.0,0.0,0.0,0.0,0.0,0.0,0.0,0.0,0.0,0.0,0.0,0.0,0.0,0.0,0.0,0.0,0.0,0.0,0.0,0.0,0.0,0.0,0.0,0.0,0.0,0.0,0.0,0.0,0.0,0.0,0.0,0.0,0.0,0.0,0.0,0.0,0.0,0.0,0.0,0.0,0.0,0.0,0.0,0.0,0.0,0.0,0.0,0.0,0.0,0.0,0.0,0.0,0.0,0.0,0.0,0.0,0.0,0.0,0.0,0.0,0.0,0.0,0.0,0.0,0.0,0.0,0.0,0.0,0.0,0.0,0.0,0.0,0.0,0.0,0.0,0.0,0.0,0.0,0.0,0.0,0.0,0.0,0.0,0.0,0.0,0.0,0.0,0.0,0.0,0.0,0.0,0.0,0.0,0.0,0.0,0.0,0.0,0.0,0.0,0.0,0.0,0.0,0.0,0.0,0.0,0.0,0.0,0.0,0.0,0.0,0.0,0.0,0.0,0.0,0.0,0.0,0.0,0.0,0.0,0.0,0.0,0.0,0.0,0.0,0.0,0.0,0.0,0.0,0.0,0.0,0.0,0.0,0.0,0.0,0.0,0.0,0.0,0.0,0.0,0.0,0.0,0.0,0.0,0.0,0.0,0.0,0.0,0.0,0.0,0.0,0.0,0.0,0.0,0.0,0.0,0.0,0.0,0.0,0.0,0.0,0.0,0.0,0.0,0.0,0.0,0.0,0.0,0.0,0.0,0.0,0.0,0.0,0.0,0.0,0.0,0.0,0.0,0.0,0.0,0.0,0.0,0.0,0.0,0.0,0.0,0.0,0.0,0.0,0.0,0.0,0.0,0.0,0.0,0.0,0.0,0.0,0.0,0.0,0.0,0.0,0.0,0.0,0.0,0.0,0.0,0.0,0.0,0.0,0.0,0.0,0.0,0.0,0.0,0.0,0.0,0.0,0.0,0.0,0.0,0.0,0.0,0.0,0.0,0.0,0.0,0.0,0.0,0.0,0.0,0.0,0.0,0.0,0.0,0.0,0.0,0.0,0.0,0.0,0.0,0.0,0.0,0.0,0.0,0.0,0.0,0.0,0.0,0.0,0.0,0.0,0.0,0.0,0.0,0.0,0.0,0.0,0.0,0.0,0.0,0.0,0.0,0.0,0.0,0.0,0.0,0.0,0.0,0.0,0.0,0.0,0.0,0.0,0.0,0.0,0.0,0.0,0.0,0.0,0.0,0.0,0.0,0.0,0.0,0.0,0.0,0.0,0.0,0.0,0.0,0.0,0.0,0.0,0.0,0.0,0.0,0.0,0.0,0.0,0.0,0.0,0.0,0.0,0.0,0.0,0.0,0.0,0.0,0.0,0.0,0.0,0.0,0.0,0.0,0.0,0.0,0.0,0.0,0.0,0.0,0.0,0.0,0.0,0.0,0.0,0.0,0.0,0.0,0.0,0.0,0.0,0.0,0.0,0.0,0.0,0.0,0.0,0.0,0.0,0.0,0.0,0.0,0.0,0.0,0.0,0.0,0.0,0.0,0.0,0.0,0.0,0.0,0.0,0.0,0.0,0.0,0.0,0.0,0.0,0.0,0.0,0.0,0.0,0.0,0.0,0.0,0.0,0.0,0.0,0.0,0.0,0.0,0.0,0.0,0.0,0.0,0.0,0.0,0.0,0.0,0.0,0.0,0.0,0.0,0.0,0.0,0.0,0.0,0.0,0.0,0.0,0.0,0.0,0.0,0.0,0.0,0.0,0.0,0.0,0.0,0.0,0.0,0.0,0.0,0.0,0.0,0.0,0.0,0.0,0.0,0.0,0.0,0.0,0.0,0.0,0.0,0.0,0.0,0.0,0.0,0.0,0.0,0.0,0.0,0.0,0.0,0.0,0.0,0.0,0.0,0.0,0.0,0.0,0.0,0.0,0.0,0.0,0.0,0.0,0.0,0.0,0.0,0.0,0.0,0.0,0.0,0.0,0.0,0.0,0.0,0.0,0.0,0.0,0.0,0.0,0.0,0.0,0.0,0.0,0.0,0.0,0.0,0.0,0.0,0.0,0.0,0.0,0.0,0.0,0.0,0.0,0.0,0.0,0.0,0.0,0.0,0.0,0.0,0.0,0.0,0.0,0.0,0.0,0.0,0.0,0.0,0.0,0.0,0.0,0.0,0.0,0.0,0.0,0.0,0.0,0.0,0.0,0.0,0.0,0.0,0.0,0.0,0.0,0.0,0.0,0.0,0.0,0.0,0.0,0.0,0.0,0.0,0.0,0.0,0.0,0.0,0.0,0.0,0.0,0.0,0.0,0.0,0.0,0.0,0.0,0.0,0.0,0.0,0.0,0.0,0.0,0.0,0.0,0.0,0.0,0.0,0.0,0.0,0.0,0.0,0.0,0.0,0.0,0.0,0.0,0.0,0.0,0.0,0.0,0.0,0.0,0.0,0.0,0.0,0.0,0.0,0.0,0.0,0.0,0.0,0.0,0.0,0.0,0.0,0.0,0.0,0.0,0.0,0.0,0.0,0.0,0.0,0.0,0.0,0.0,0.0,0.0,0.0,0.0,0.0,0.0,0.0,0.0,0.0,0.0,0.0,0.0,0.0,0.0,0.0,0.0,0.0,0.0,0.0,0.0,0.0,0.0,0.0,0.0,0.0,0.0,0.0,0.0,0.0,0.0,0.0,0.0,0.0,0.0,0.0,0.0,0.0,0.0,0.0,0.0,0.0,0.0,0.0,0.0,0.0,0.0,0.0,0.0,0.0,0.0,0.0,0.0,0.0,0.0,0.0,0.0,0.0,0.0,0.0,0.0,0.0,0.0,0.0,0.0,0.0,0.0,0.0,0.0,0.0,0.0,0.0,0.0,0.0,0.0,0.0,0.0,0.0,0.0,0.0,0.0,-0.807,0.0,0.0,0.0,0.0,0.0,0.0,0.0,0.0,0.0,0.0,0.0,0.0,0.0,0.0,0.0,0.0,0.0,0.0,0.0,0.0,0.0,0.0,0.0,0.0,0.0,0.0,0.0,0.0,0.0,0.0,0.0,0.0,0.0,0.0,0.0,0.0,0.0,0.0,0.0,0.0,0.0,0.0,0.0,0.0,0.0,0.0,0.0,0.0,0.0,0.0,0.0,0.0,0.0,0.0,0.0,0.0,0.0,0.0,0.0,0.0,0.0,0.0,0.0,0.0,0.0,0.0,0.0,0.0,0.0,0.0,0.0,0.0,0.0,0.0,0.0,0.0,0.0,0.0,0.0,0.0,0.0,0.0,0.0,0.0,0.0,0.0,0.0,0.0,0.0,0.0,0.0,0.0,0.0,0.0,0.0,0.0,0.0,0.0,0.0,0.0,0.0,0.0,0.0,0.0,0.0,0.0,0.0,0.0,0.0,0.0,-0.7676,-0.744,-0.6963,-0.702,-0.7662,0.0,0.0,0.0,0.0,0.0,0.0,0.0,0.0,0.0,0.0,0.0,0.0,0.0,0.0,0.0,0.0,0.0,0.0,0.0,0.0,0.0,0.0,0.0,0.0,0.0,0.0,0.0,0.0,0.0,0.0,0.0,0.0,0.0,0.0,0.0,0.0,0.0,0.0,0.0,0.0,0.0,0.0,0.0,0.0,0.0,0.0,0.0,0.0,0.0,0.0,0.0,0.0,0.0,0.0,0.0,0.0,0.0,0.0,0.0,0.0,0.0,0.0,0.0,0.0,0.0,0.0,0.0,0.0,0.0,0.0,0.0,0.0,0.0,0.0,0.0,0.0,0.0,0.0,0.0,0.0,0.0,0.0,0.0,0.0,0.0,0.0,0.0,0.0,0.0,0.0,0.0,0.0,0.0,0.0,0.0,0.0,0.0,0.0,0.0,0.0,0.0,0.0,0.0,0.0,0.0,0.0,0.0,0.0,0.0,0.0,0.0,0.0,-0.673,-0.6823,-0.7147,0.0,0.0,0.0,0.0,0.0,0.0,0.0,0.0,0.0,0.0,0.0,0.0,0.0,0.0,0.0,0.0,0.0,0.0,0.0,0.0,0.0,0.0,0.0,0.0,0.0,0.0,0.0,0.0,0.0,0.0,0.0,0.0,0.0,0.0,0.0,0.0,0.0,0.0,0.0,0.0,0.0,0.0,0.0,0.0,0.0,0.0,0.0,0.0,0.0,0.0,0.0,0.0,0.0,0.0,0.0,0.0,0.0,0.0,0.0,0.0,0.0,0.0,0.0,0.0,0.0,0.0,0.0,0.0,0.0,0.0,0.0,0.0,0.0,0.0,0.0,0.0,0.0,0.0,0.0,0.0,0.0,0.0,0.0,0.0,0.0,0.0,0.0,0.0,0.0,0.0,0.0,0.0,0.0,0.0,0.0,0.0,0.0,0.0,0.0,0.0,0.0,0.0,0.0,0.0,0.0,0.0,0.0,0.0,0.0,0.0,-0.7083,-0.7314,-0.6802,0.0,-0.7021,0.0,0.0,0.0,0.0,0.0,0.0,0.0,0.0,0.0,0.0,0.0,0.0,0.0,0.0,0.0,0.0,0.0,0.0,0.0,0.0,0.0,0.0,0.0,0.0,0.0,0.0,0.0,0.0,0.0,0.0,0.0,0.0,0.0,0.0,0.0,0.0,0.0,0.0,0.0,0.0,0.0,0.0,0.0,0.0,0.0,0.0,0.0,0.0,0.0,0.0,0.0,0.0,0.0,0.0,0.0,0.0,0.0,0.0,0.0,0.0,0.0,0.0,0.0,0.0,0.0,0.0,0.0,0.0,0.0,0.0,0.0,0.0,0.0,0.0,0.0,0.0,0.0,0.0,0.0,0.0,0.0,0.0,0.0,0.0,0.0,0.0,0.0,0.0,0.0,0.0,0.0,0.0,0.0,0.0,0.0,0.0,0.0,0.0,0.0,0.0,0.0,0.0,0.0,0.0,0.0,0.0,0.0,0.0,0.0,0.0,-0.6738,-0.6865,-0.6781,-0.6717,0.0,0.0,0.0,0.0,0.0,0.0,0.0,0.0,0.0,0.0,0.0,0.0,0.0,0.0,0.0,0.0,0.0,0.0,0.0,0.0,0.0,0.0,0.0,0.0,0.0,0.0,0.0,0.0,0.0,0.0,0.0,0.0,0.0,0.0,0.0,0.0,0.0,0.0,0.0,0.0,0.0,0.0,0.0,0.0,0.0,0.0,0.0,0.0,0.0,0.0,0.0,0.0,0.0,0.0,0.0,0.0,0.0,0.0,0.0,0.0,0.0,0.0,0.0,0.0,0.0,0.0,0.0,0.0,0.0,0.0,0.0,0.0,0.0,0.0,0.0,0.0,0.0,0.0,0.0,0.0,0.0,0.0,0.0,0.0,0.0,0.0,0.0,0.0,0.0,0.0,0.0,0.0,0.0,0.0,0.0,0.0,0.0,0.0,0.0,0.0,0.0,0.0,0.0,0.0,0.0,0.0,0.0,0.0,0.0,0.0,-0.6355,-0.6413,-0.6419,-0.6575,-0.656,-0.6346,0.0,0.0,0.0,0.0,0.0,0.0,0.0,0.0,0.0,0.0,0.0,0.0,0.0,0.0,0.0,0.0,0.0,0.0,0.0,0.0,0.0,0.0,0.0,0.0,0.0,0.0,0.0,0.0,0.0,0.0,0.0,0.0,0.0,0.0,0.0,0.0,0.0,0.0,0.0,0.0,0.0,0.0,0.0,0.0,0.0,0.0,0.0,0.0,0.0,0.0,0.0,0.0,0.0,0.0,0.0,0.0,0.0,0.0,0.0,0.0,0.0,0.0,0.0,0.0,0.0,0.0,0.0,0.0,0.0,0.0,0.0,0.0,0.0,0.0,0.0,0.0,0.0,0.0,0.0,0.0,0.0,0.0,0.0,0.0,0.0,0.0,0.0,0.0,0.0,0.0,0.0,0.0,0.0,0.0,0.0,0.0,0.0,0.0,0.0,0.0,0.0,0.0,0.0,0.0,0.0,0.0,0.0,0.0,-0.6367,-0.627,-0.6221,-0.6206,-0.6105,-0.6077,0.0,0.0,0.0,0.0,0.0,0.0,0.0,0.0,0.0,0.0,0.0,0.0,0.0,0.0,0.0,0.0,0.0,0.0,0.0,0.0,0.0,0.0,0.0,0.0,0.0,0.0,0.0,0.0,0.0,0.0,0.0,0.0,0.0,0.0,0.0,0.0,0.0,0.0,0.0,0.0,0.0,0.0,0.0,0.0,0.0,0.0,0.0,0.0,0.0,0.0,0.0,0.0,0.0,0.0,0.0,0.0,0.0,0.0,0.0,0.0,0.0,0.0,0.0,0.0,0.0,0.0,0.0,0.0,0.0,0.0,0.0,0.0,0.0,0.0,0.0,0.0,0.0,0.0,0.0,0.0,0.0,0.0,0.0,0.0,0.0,0.0,0.0,0.0,0.0,0.0,0.0,0.0,0.0,0.0,0.0,0.0,0.0,0.0,0.0,0.0,0.0,0.0,0.0,0.0,0.0,0.0,0.0,0.0,0.0,-0.6013,-0.6056,-0.6019,-0.589,-0.5884,-0.5884,0.0,0.0,0.0,0.0,0.0,0.0,0.0,0.0,0.0,0.0,0.0,0.0,0.0,0.0,0.0,0.0,0.0,0.0,0.0,0.0,0.0,0.0,0.0,0.0,0.0,0.0,0.0,0.0,0.0,0.0,0.0,0.0,0.0,0.0,0.0,0.0,0.0,0.0,0.0,0.0,0.0,0.0,0.0,0.0,0.0,0.0,0.0,0.0,0.0,0.0,0.0,0.0,0.0,0.0,0.0,0.0,0.0,0.0,0.0,0.0,0.0,0.0,0.0,0.0,0.0,0.0,0.0,0.0,0.0,0.0,0.0,0.0,0.0,0.0,0.0,0.0,0.0,0.0,0.0,0.0,0.0,0.0,0.0,0.0,0.0,0.0,0.0,0.0,0.0,0.0,0.0,0.0,0.0,0.0,0.0,0.0,0.0,0.0,0.0,0.0,0.0,0.0,0.0,0.0,0.0,0.0,0.0,0.0,0.0,-0.5777,0.0,-0.5863,-0.5739,-0.5669,-0.569,0.0,0.0,0.0,0.0,0.0,0.0,0.0,0.0,0.0,0.0,0.0,0.0,0.0,0.0,0.0,0.0,0.0,0.0,0.0,0.0,0.0,0.0,0.0,0.0,0.0,0.0,0.0,0.0,0.0,0.0,0.0,0.0,0.0,0.0,0.0,0.0,0.0,0.0,0.0,0.0,0.0,0.0,0.0,0.0,0.0,0.0,0.0,0.0,0.0,0.0,0.0,0.0,0.0,0.0,0.0,0.0,0.0,0.0,0.0,0.0,0.0,0.0,0.0,0.0,0.0,0.0,0.0,0.0,0.0,0.0,0.0,0.0,0.0,0.0,0.0,0.0,0.0,0.0,0.0,0.0,0.0,0.0,0.0,0.0,0.0,0.0,0.0,0.0,0.0,0.0,0.0,0.0,0.0,0.0,0.0,0.0,0.0,0.0,0.0,0.0,0.0,0.0,0.0,0.0,0.0,0.0,0.0,0.0,-0.5701,-0.5701,-0.5777,-0.5793,-0.5793,-0.5474,-0.5523,0.0,0.0,0.0,0.0,0.0,0.0,0.0,0.0,0.0,0.0,0.0,0.0,0.0,0.0,0.0,0.0,0.0,0.0,0.0,0.0,0.0,0.0,0.0,0.0,0.0,0.0,0.0,0.0,0.0,0.0,0.0,0.0,0.0,0.0,0.0,0.0,0.0,0.0,0.0,0.0,0.0,0.0,0.0,0.0,0.0,0.0,0.0,0.0,0.0,0.0,0.0,0.0,0.0,0.0,0.0,0.0,0.0,0.0,0.0,0.0,0.0,0.0,0.0,0.0,0.0,0.0,0.0,0.0,0.0,0.0,0.0,0.0,0.0,0.0,0.0,0.0,0.0,0.0,0.0,0.0,0.0,0.0,0.0,0.0,0.0,0.0,0.0,0.0,0.0,0.0,0.0,0.0,0.0,0.0,0.0,0.0,0.0,0.0,0.0,0.0,0.0,0.0,0.0,0.0,0.0,0.0,0.0,0.0,0.0,-0.5436,-0.5631,-0.5653,-0.5458,-0.535,-0.5306,0.0,0.0,0.0,0.0,0.0,0.0,0.0,0.0,0.0,0.0,0.0,0.0,0.0,0.0,0.0,0.0,0.0,0.0,0.0,0.0,0.0,0.0,0.0,0.0,0.0,0.0,0.0,0.0,0.0,0.0,0.0,0.0,0.0,0.0,0.0,0.0,0.0,0.0,0.0,0.0,0.0,0.0,0.0,0.0,0.0,0.0,0.0,0.0,0.0,0.0,0.0,0.0,0.0,0.0,0.0,0.0,0.0,0.0,0.0,0.0,0.0,0.0,0.0,0.0,0.0,0.0,0.0,0.0,0.0,0.0,0.0,0.0,0.0,0.0,0.0,0.0,0.0,0.0,0.0,0.0,0.0,0.0,0.0,0.0,0.0,0.0,0.0,0.0,0.0,0.0,0.0,0.0,0.0,0.0,0.0,0.0,0.0,0.0,0.0,0.0,0.0,0.0,0.0,0.0,0.0,0.0,0.0,0.0,0.0,-0.5463,-0.5615,-0.5615,-0.5463,-0.5355,-0.5285,-0.5246,0.0,0.0,0.0,0.0,0.0,0.0,0.0,0.0,0.0,0.0,0.0,0.0,0.0,0.0,0.0,0.0,0.0,0.0,0.0,0.0,0.0,0.0,0.0,0.0,0.0,0.0,0.0,0.0,0.0,0.0,0.0,0.0,0.0,0.0,0.0,0.0,0.0,0.0,0.0,0.0,0.0,0.0,0.0,0.0,0.0,0.0,0.0,0.0,0.0,0.0,0.0,0.0,0.0,0.0,0.0,0.0,0.0,0.0,0.0,0.0,0.0,0.0,0.0,0.0,0.0,0.0,0.0,0.0,0.0,0.0,0.0,0.0,0.0,0.0,0.0,0.0,0.0,0.0,0.0,0.0,0.0,0.0,0.0,0.0,0.0,0.0,0.0,0.0,0.0,0.0,0.0,0.0,0.0,0.0,0.0,0.0,0.0,0.0,0.0,0.0,0.0,0.0,0.0,0.0,0.0,0.0,0.0,0.0,-0.5701,-0.5701,-0.5701,-0.5701,-0.5442,-0.542,0.0,0.0,0.0,0.0,0.0,0.0,0.0,0.0,0.0,0.0,0.0,0.0,0.0,0.0,0.0,0.0,0.0,0.0,0.0,0.0,0.0,0.0,0.0,0.0,0.0,0.0,0.0,0.0,0.0,0.0,0.0,0.0,0.0,0.0,0.0,0.0,0.0,0.0,0.0,0.0,0.0,0.0,0.0,0.0,0.0,0.0,0.0,0.0,0.0,0.0,0.0,0.0,0.0,0.0,0.0,0.0,0.0,0.0,0.0,0.0,0.0,0.0,0.0,0.0,0.0,0.0,0.0,0.0,0.0,0.0,0.0,0.0,0.0,0.0,0.0,0.0,0.0,0.0,0.0,0.0,0.0,0.0,0.0,0.0,0.0,0.0,0.0,0.0,0.0,0.0,0.0,0.0,0.0,0.0,0.0,0.0,0.0,0.0,0.0,0.0,0.0,0.0,0.0,0.0,0.0,0.0,0.0,0.0,0.0,-0.568,-0.5701,-0.5701,-0.5701,-0.5442,-0.5333,0.0,0.0,0.0,0.0,0.0,0.0,0.0,0.0,0.0,0.0,0.0,0.0,0.0,0.0,0.0,0.0,0.0,0.0,0.0,0.0,0.0,0.0,0.0,0.0,0.0,0.0,0.0,0.0,0.0,0.0,0.0,0.0,0.0,0.0,0.0,0.0,0.0,0.0,0.0,0.0,0.0,0.0,0.0,0.0,0.0,0.0,0.0,0.0,0.0,0.0,0.0,0.0,0.0,0.0,0.0,0.0,0.0,0.0,0.0,0.0,0.0,0.0,0.0,0.0,0.0,0.0,0.0,0.0,0.0,0.0,0.0,0.0,0.0,0.0,0.0,0.0,0.0,0.0,0.0,0.0,0.0,0.0,0.0,0.0,0.0,0.0,0.0,0.0,0.0,0.0,0.0,0.0,0.0,0.0,0.0,0.0,0.0,0.0,0.0,0.0,0.0,0.0,0.0,0.0,0.0,0.0,0.0,0.0,-0.4954,-0.568,-0.5701,-0.5717,-0.5734,-0.5583,-0.5518,0.0,0.0,0.0,0.0,0.0,0.0,0.0,0.0,0.0,0.0,0.0,0.0,0.0,0.0,0.0,0.0,0.0,0.0,0.0,0.0,0.0,0.0,0.0,0.0,0.0,0.0,0.0,0.0,0.0,0.0,0.0,0.0,0.0,0.0,0.0,0.0,0.0,0.0,0.0,0.0,0.0,0.0,0.0,0.0,0.0,0.0,0.0,0.0,0.0,0.0,0.0,0.0,0.0,0.0,0.0,0.0,0.0,0.0,0.0,0.0,0.0,0.0,0.0,0.0,0.0,0.0,0.0,0.0,0.0,0.0,0.0,0.0,0.0,0.0,0.0,0.0,0.0,0.0,0.0,0.0,0.0,0.0,0.0,0.0,0.0,0.0,0.0,0.0,0.0,0.0,0.0,0.0,0.0,0.0,0.0,0.0,0.0,0.0,0.0,0.0,0.0,0.0,0.0,0.0,0.0,0.0,0.0,0.0,-0.4801,-0.568,-0.5701,-0.5755,-0.583,-0.5809,-0.5793,0.0,0.0,0.0,0.0,0.0,0.0,0.0,0.0,0.0,0.0,0.0,0.0,0.0,0.0,0.0,0.0,0.0,0.0,0.0,0.0,0.0,0.0,0.0,0.0,0.0,0.0,0.0,0.0,0.0,0.0,0.0,0.0,0.0,0.0,0.0,0.0,0.0,0.0,0.0,0.0,0.0,0.0,0.0,0.0,0.0,0.0,0.0,0.0,0.0,0.0,0.0,0.0,0.0,0.0,0.0,0.0,0.0,0.0,0.0,0.0,0.0,0.0,0.0,0.0,0.0,0.0,0.0,0.0,0.0,0.0,0.0,0.0,0.0,0.0,0.0,0.0,0.0,0.0,0.0,0.0,0.0,0.0,0.0,0.0,0.0,0.0,0.0,0.0,0.0,0.0,0.0,0.0,0.0,0.0,0.0,0.0,0.0,0.0,0.0,0.0,0.0,0.0,0.0,0.0,0.0,0.0,0.0,0.0,-0.5062,-0.575,-0.5771,-0.59,-0.6114,-0.5922,-0.5793,0.0,0.0,0.0,0.0,0.0,0.0,0.0,0.0,0.0,0.0,0.0,0.0,0.0,0.0,0.0,0.0,0.0,0.0,0.0,0.0,0.0,0.0,0.0,0.0,0.0,0.0,0.0,0.0,0.0,0.0,0.0,0.0,0.0,0.0,0.0,0.0,0.0,0.0,0.0,0.0,0.0,0.0,0.0,0.0,0.0,0.0,0.0,0.0,0.1094,0.0,0.0,0.0,0.0,0.0,0.0,0.0,0.0,0.0,0.0,0.0,0.0,0.0,0.0,0.0,0.0,0.0,0.0,0.0,0.0,0.0,0.0,0.0,0.0,0.0,0.0,0.0,0.0,0.0,0.0,0.0,0.0,0.0,0.0,0.0,0.0,0.0,0.0,0.0,0.0,0.0,0.0,0.0,0.0,0.0,0.0,0.0,0.0,0.0,0.0,0.0,0.0,0.0,0.0,0.0,0.0,0.0,0.0,0.0,-0.4966,-0.5771,-0.5793,-0.5922,-0.6179,-0.6044,-0.5852,0.0,0.0,0.0,0.0,0.0,0.0,0.0,0.0,0.0,0.0,0.0,0.0,0.0,0.0,0.0,0.0,0.0,0.0,0.0,0.0,0.0,0.0,0.0,0.0,0.0,0.0,0.0,0.0,0.0,0.0,0.0,0.0,0.0,0.0,0.0,0.0,0.0,0.0,0.0,0.0,0.0,0.0,0.0,0.0,0.0,0.0,0.0,0.0,0.0,0.0,0.0,0.0,0.0,0.0,0.0,0.0,0.0,0.0,0.0,0.0,0.0,0.0,0.0,0.0,0.0,0.0,0.0,0.0,0.0,0.0,0.0,0.0,0.0,0.0,0.0,0.0,0.0,0.0,0.0,0.0,0.0,0.0,0.0,0.0,0.0,0.0,0.0,0.0,0.0,0.0,0.0,0.0,0.0,0.0,0.0,0.0,0.0,0.0,0.0,0.0,0.0,0.0,0.0,0.0,0.0,0.0,0.0,-0.4353,-0.4922,-0.5881,-0.5925,-0.6012,-0.6274,-0.6261,-0.5951,-0.538,0.0,0.0,0.0,0.0,0.0,0.0,0.0,0.0,0.0,0.0,0.0,0.0,0.0,0.0,0.0,0.0,0.0,0.0,0.0,0.0,0.0,0.0,0.0,0.0,0.0,0.0,0.0,0.0,0.0,0.0,0.0,0.0,0.0,0.0,0.0,0.0,0.0,0.0,0.3388,0.3049,0.0,0.0,0.0,0.0,0.0,0.0,0.0,0.0,0.1038,0.0,0.0,0.0,0.0,0.0,0.0,0.0,0.0,0.0,0.0,0.0,0.0,0.0,0.0,0.0,0.0,0.0,0.0,0.0,0.0,0.0,0.0,0.0,0.0,0.0,0.0,0.0,0.0,0.0,0.0,0.0,0.0,0.0,0.0,0.0,0.0,0.0,0.0,0.0,0.0,0.0,0.0,0.0,0.0,0.0,0.0,0.0,0.0,0.0,0.0,0.0,0.0,0.0,0.0,0.0,0.0,-0.451,-0.4832,-0.5455,-0.6451,-0.6481,-0.6523,-0.6606,-0.651,-0.6146,-0.5535,0.0,0.0,0.0,0.0,0.0,0.0,0.0,0.0,0.0,0.0,0.0,0.0,0.0,0.0,0.0,0.0,0.0,0.0,0.0,0.0,0.0,0.0,0.0,0.0,0.0,0.0,0.0,0.0,0.0,0.0,0.0,0.0,0.0,0.0,0.0,0.0,0.0,0.0,0.0,0.235,0.21,0.0,0.0,0.0,0.0,0.0,0.0,0.0,0.0,0.0757,0.0,0.0,0.0,0.0,0.0,0.0,0.0,0.0,0.0,0.0,0.0,0.0,0.0,0.0,0.0,0.0,0.0,0.0,0.0,0.0,0.0,0.0,0.0,0.0,0.0,0.0,0.0,0.0,0.0,0.0,0.0,0.0,0.0,0.0,0.0,0.0,0.0,0.0,0.0,0.0,0.0,0.0,0.0,0.0,0.0,0.0,0.0,0.0,0.0,0.0,0.0,0.0,0.0,0.0,0.0,-0.4658,-0.4918,-0.5567,-0.6549,-0.667,-0.6737,-0.6804,-0.6747,-0.6396,0.0,0.0,0.0,0.0,0.0,0.0,0.0,0.0,0.0,0.0,0.0,0.0,0.0,0.0,0.0,0.0,0.0,0.0,0.0,0.0,0.0,0.0,0.0,0.0,0.0,0.0,0.0,0.0,0.0,0.0,0.0,0.0,0.0,0.0,0.0,0.0,0.0,0.0,0.0,0.0,0.2184,0.1818,0.0783,0.0,0.0,0.0,0.0,0.0,0.0,0.0519,0.0412,0.0,0.0,0.0,0.0,0.0,0.0,0.0,0.0,0.0,0.0,0.0,0.0,0.0,0.0,0.0,0.0,0.0,0.0,0.0,0.0,0.0,0.0,0.0,0.0,0.0,0.0,0.0,0.0,0.0,0.0,0.0,0.0,0.0,0.0,0.0,0.0,0.0,0.0,0.0,0.0,0.0,0.0,0.0,0.0,0.0,0.0,0.0,0.0,0.0,0.0,0.0,0.0,0.0,0.0,0.0,-0.4873,-0.5114,-0.5729,-0.6748,-0.6891,-0.6965,-0.7014,-0.6998,-0.6713,0.0,0.0,0.0,0.0,0.0,0.0,0.0,0.0,0.0,0.0,0.0,0.0,0.0,0.0,0.0,0.0,0.0,0.0,0.0,0.0,0.0,0.0,0.0,0.0,0.0,0.0,0.0,0.0,0.0,0.0,0.0,0.0,0.0,0.0,0.0,0.0,0.0,0.0,0.0,0.0,0.0,0.1491,0.0247,0.0643,0.0,0.0,0.0,0.0,0.0419,0.0158,0.0,0.0,0.0,0.0,0.0,0.0,0.0,0.0,0.0,0.0,0.0,0.0,0.0,0.0,0.0,0.0,0.0,0.0,0.0,0.0,0.0,0.0,0.0,0.0,0.0,0.0,0.0,0.0,0.0,0.0,0.0,0.0,0.0,0.0,0.0,0.0,0.0,0.0,0.0,0.0,0.0,0.0,0.0,0.0,0.0,0.0,0.0,0.0,0.0,0.0,0.0,0.0,0.0,0.0,0.0,0.0,-0.5289,-0.5761,-0.6447,-0.7344,-0.7403,-0.7435,-0.7429,-0.7321,-0.7143,0.0,0.0,0.0,0.0,0.0,0.0,0.0,0.0,0.0,0.0,0.0,0.0,0.0,0.0,0.0,0.0,0.0,0.0,0.0,0.0,0.0,0.0,0.0,0.0,0.0,0.0,0.0,0.0,0.0,0.0,0.0,0.0,0.0,0.0,0.0,0.0,0.0,0.0,0.0,0.0,0.0,0.0847,0.0333,0.0636,0.0532,0.0,0.0,-0.0277,-0.086,-0.0659,0.0,0.0,0.0,0.0,0.0,0.0,0.0,0.0,0.0,0.0,0.0,0.0,0.0,0.0,0.0,0.0,0.0,0.0,0.0,0.0,0.0,0.0,0.0,0.0,0.0,0.0,0.0,0.0,0.0,0.0,0.0,0.0,0.0,0.0,0.0,0.0,0.0,0.0,0.0,0.0,0.0,0.0,0.0,0.0,0.0,0.0,0.0,0.0,0.0,0.0,0.0,0.0,0.0,0.0,0.0,-0.4673,-0.5446,-0.6173,-0.6871,-0.7488,-0.7568,-0.7622,-0.7622,-0.7571,-0.7344,0.0,0.0,0.0,0.0,0.0,0.0,0.0,0.0,0.0,0.0,0.0,0.0,0.0,0.0,0.0,0.0,0.0,0.0,0.0,0.0,0.0,0.0,0.0,0.0,0.0,0.0,0.0,0.0,0.0,0.0,0.0,0.0,0.0,0.0,0.0,0.0,0.0,0.0,0.0,0.0,0.0,0.0,-0.043,-0.0049,0.0,0.0,0.0,-0.0878,-0.1163,0.0,0.0,0.0,0.0,0.0,0.0,0.0,0.0,0.0,0.0,0.0,0.0,0.0,0.0,0.0,0.0,0.0,0.0,0.0,0.0,0.0,0.0,0.0,0.0,0.0,0.0,0.0,0.0,0.0,0.0,0.0,0.0,0.0,0.0,0.0,0.0,0.0,0.0,0.0,0.0,0.0,0.0,0.0,0.0,0.0,0.0,0.0,0.0,0.0,0.0,0.0,0.0,0.0,0.0,0.0,0.0,0.0,-0.562,-0.6578,-0.7268,-0.7568,-0.7708,-0.7756,-0.7756,-0.7756,0.0,0.0,0.0,0.0,0.0,0.0,0.0,0.0,0.0,0.0,0.0,0.0,0.0,0.0,0.0,0.0,0.0,0.0,0.0,0.0,0.0,0.0,0.0,0.0,0.0,0.0,0.0,0.025,0.0,0.0,0.0,0.0,0.0,0.0,0.0,0.0,0.0,0.0,0.0,0.0,0.0,0.0,0.0127,-0.1227,-0.0882,-0.0935,0.0,0.0,-0.1624,-0.1745,-0.184,-0.1654,0.0,0.0,0.0,0.0,0.0,0.0,0.0,0.0,0.0,0.0,0.0,0.0,0.0,0.0,0.0,0.0,0.0,0.0,0.0,0.0,0.0,0.0,0.0,0.0,0.0,0.0,0.0,0.0,0.0,0.0,0.0,0.0,0.0,0.0,0.0,0.0,0.0,0.0,0.0,0.0,0.0,0.0,0.0,0.0,0.0,0.0,0.0,0.0,0.0,0.0,0.0,0.0,0.0,0.0,0.0,-0.6005,-0.7069,-0.7702,-0.7875,-0.7875,-0.7901,-0.7901,-0.7875,-0.7815,0.0,0.0,0.0,0.0,0.0,0.0,0.0,0.0,0.0,0.0,0.0,0.0,0.0,0.0,0.0,0.0,0.0,0.0,0.0,0.0,0.0,0.0,0.0,0.0,0.0,0.0,0.0,0.0,0.0,0.0,0.0,0.0,0.0,0.0,0.0,0.0,0.0,0.0,0.0,0.0,0.0,-0.0661,-0.1879,-0.1729,-0.1882,0.0,0.0,-0.2621,-0.3157,-0.2983,-0.253,-0.1735,0.0,0.0,0.0,0.0,0.0,0.0,0.0,0.0,0.0,0.0,0.0,0.0,0.0,0.0,0.0,0.0,0.0,0.0,0.0,0.0,0.0,0.0,0.0,0.0,0.0,0.0,0.0,0.0,0.0,0.0,0.0,0.0,0.0,0.0,0.0,0.0,0.0,0.0,0.0,0.0,0.0,0.0,0.0,0.0,0.0,0.0,0.0,0.0,0.0,0.0,0.0,0.0,0.0,-0.6502,-0.6578,-0.7375,-0.7922,-0.8062,-0.8088,-0.8088,-0.8088,-0.8088,-0.8002,0.0,0.0,0.0,0.0,0.0,0.0,0.0,0.0,0.0,0.0,0.0,0.0,0.0,0.0,0.0,0.0,0.0,0.0,0.0,0.0,0.0,0.0,0.0,0.0,0.0,0.0,0.0,0.0,-0.0138,-0.0028,0.014,0.0,0.0,0.0,0.0,0.0,0.0,0.0,0.0,0.0,0.0,-0.1673,-0.2438,-0.241,0.0,0.0,-0.3281,-0.314,-0.3739,-0.3062,-0.234,-0.196,-0.1082,0.0,0.0,0.0,0.0,0.0,0.0,0.0,0.0,0.0,0.0,0.0,0.0,0.0,0.0,0.0,0.0,0.0,0.0,0.0,0.0,0.0,0.0,0.0,0.0,0.0,0.0,0.0,0.0,0.0,0.0,0.0,0.0,0.0,0.0,0.0,0.0,0.0,0.0,0.0,0.0,0.0,0.0,0.0,0.0,0.0,0.0,0.0,0.0,0.0,0.0,0.0,0.0,-0.6961,-0.6961,-0.7568,-0.7955,-0.8121,-0.8115,-0.8115,-0.8121,-0.8115,-0.8062,0.0,0.0,0.0,0.0,0.0,0.0,0.0,0.0,0.0,0.0,0.0,0.0,0.0,0.0,0.0,0.0,0.0,0.0,0.0,0.0,0.0,0.0,0.0,0.0,0.0,0.0,0.0,0.0,-0.0385,-0.0335,-0.0138,0.0,0.0,0.0,0.0,0.0,0.0,0.0,0.0,0.0,0.0,-0.2694,-0.3229,-0.3106,-0.3163,-0.3776,-0.3519,-0.3391,-0.3808,-0.33,-0.2779,-0.2441,0.0,0.0,0.0,0.0,0.0,0.0,0.0,0.0,0.0,0.0,0.0,0.0,0.0,0.0,0.0,0.0,0.0,0.0,0.0,0.0,0.0,0.0,0.0,0.0,0.0,0.0,0.0,0.0,0.0,0.0,-0.6136,0.0,0.0,0.0,0.0,0.0,0.0,0.0,0.0,0.0,0.0,0.0,0.0,0.0,0.0,0.0,0.0,0.0,0.0,0.0,0.0,0.0,0.0,-0.7106,-0.7112,-0.7655,-0.7901,-0.7928,-0.7901,-0.7901,-0.7928,-0.7928,-0.7901,-0.7901,0.0,0.0,0.0,0.0,0.0,0.0,0.0,0.0,0.0,0.0,0.0,0.0,0.0,0.0,0.0,0.0,0.0,0.0,0.0,0.0,0.0,0.0,0.0,0.0,0.0,0.0,-0.045,-0.0384,-0.0387,0.0,0.0,0.0,0.0,0.0,0.0,0.0,0.0,0.0,0.0,-0.3223,-0.3652,-0.4334,-0.3804,-0.3357,-0.3362,-0.3396,-0.3424,-0.3477,-0.3977,-0.4174,0.0,0.0,0.0,0.0,0.0,0.0,0.0,0.0,0.0,0.0,0.0,0.0,0.0,0.0,0.0,0.0,0.0,0.0,0.0,0.0,0.0,0.0,0.0,0.0,0.0,0.0,0.0,-0.6659,-0.6654,0.0,0.0,0.0,0.0,0.0,0.0,0.0,0.0,0.0,0.0,0.0,-0.6686,-0.7036,0.0,0.0,0.0,0.0,0.0,0.0,0.0,0.0,0.0,0.0,0.0,0.0,-0.7969,-0.7969,-0.8129,-0.8268,-0.8368,-0.8368,-0.8368,-0.8362,-0.8362,-0.8289,-0.8115,0.0,0.0,0.0,0.0,0.0,0.0,0.0,0.0,0.0,0.0,0.0,0.0,0.0,0.0,0.0,0.0,0.0,0.0,0.0,0.0,0.0,0.0,0.0,0.0,0.0,-0.1184,0.0,0.0,0.0,0.0,0.0,0.0,0.0,0.0,0.0,0.0,0.0,-0.299,-0.3614,-0.395,-0.435,-0.4941,-0.4646,-0.4425,0.0,0.0,0.0,0.0,0.0,0.0,0.0,0.0,0.0,0.0,0.0,0.0,0.0,0.0,-0.3296,-0.2242,-0.1782,-0.1541,-0.1558,0.0,0.0,0.0,0.0,0.0,0.0,0.0,0.0,0.0,0.0,0.0,0.0,0.0,0.0,-0.7652,0.0,-0.7652,0.0,0.0,0.0,0.0,0.0,0.0,0.0,0.0,-0.7984,-0.8017,-0.7631,-0.7984,-0.7931,0.0,-0.7423,-0.7316,0.0,0.0,0.0,0.0,0.0,0.0,0.0,0.0,-0.8395,-0.8395,-0.8395,-0.8448,-0.8521,-0.8521,-0.8521,-0.8521,-0.8521,-0.8448,-0.8268,-0.8309,-0.8277,0.0,0.0,0.0,0.0,0.0,0.0,0.0,0.0,0.0,0.0,0.0,0.0,0.0,0.0,0.0,0.0,0.0,0.0,0.0,0.0,0.0,0.0,0.0,-0.1661,0.0,0.0,0.0,0.0,0.0,0.0,0.0,0.0,0.0,-0.2292,-0.3316,-0.4235,-0.4487,-0.4776,-0.5043,-0.5259,0.0,0.0,0.0,0.0,0.0,0.0,0.0,-0.4171,-0.4171,-0.3705,-0.3259,-0.304,-0.3511,-0.3843,-0.3649,0.0,0.0,-0.3206,-0.2704,-0.2478,-0.248,-0.2536,-0.2565,-0.2563,-0.2869,-0.3174,0.0,0.0,0.0,0.0,0.0,0.0,0.0,0.0,-0.9211,-0.9185,0.0,-0.9159,0.0,0.0,0.0,0.0,0.0,-0.8956,0.0,0.0,-0.9159,-0.914,-0.8982,-0.8982,-0.8903,-0.8811,-0.8752,-0.8752,-0.8699,-0.7343,0.0,0.0,0.0,0.0,0.0,0.0,-0.8421,-0.8421,-0.8421,-0.8421,-0.8421,-0.8421,-0.8421,-0.8421,-0.8421,-0.8421,-0.8407,-0.8513,-0.8586,-0.8599,-0.8698,0.0,0.0,0.0,0.0,0.0,0.0,0.0,0.0,0.0,0.0,0.0,0.0,0.0,0.0,0.0,0.0,0.0,0.0,0.0,0.0,-0.2078,0.0,0.0,0.0,0.0,0.0,0.0,0.0,0.0,0.0,0.0,-0.372,-0.4481,-0.5228,-0.5453,0.0,0.0,0.0,0.0,-0.4284,-0.4288,-0.4174,-0.4091,-0.4125,-0.4601,-0.4939,-0.4947,0.0,0.0,-0.4138,-0.4529,-0.4702,-0.4162,-0.4539,-0.4833,-0.4539,-0.3913,-0.3456,-0.3456,-0.3569,-0.3652,-0.368,-0.4205,-0.4759,-1.0474,0.0,0.0,0.0,0.0,-1.0261,-1.0141,-0.9917,-0.9909,-0.9684,-0.9361,-0.9335,0.0,0.0,0.0,0.0,0.0,0.0,-0.9159,-0.9185,-0.908,-0.9035,-0.9015,-0.891,-0.8831,-0.8778,-0.8778,-0.8778,-0.8778,-0.8368,-0.8289,-0.8487,0.0,0.0,0.0,0.0,-0.8672,-0.8699,-0.8699,-0.8699,-0.8672,-0.8699,-0.8699,-0.8672,-0.8672,-0.8639,-0.8521,-0.8471,-0.8557,-0.8719,-0.8555,0.0,0.0,0.0,0.0,0.0,0.0,0.0,0.0,0.0,0.0,0.0,0.0,0.0,0.0,0.0,0.0,0.0,0.0,0.0,-0.2672,-0.2867,-0.3021,0.0,0.0,0.0,0.0,0.0,0.0,0.0,0.0,0.0,-0.5337,-0.5619,-0.5851,0.0,0.0,-0.5968,-0.5696,-0.5637,-0.5632,-0.5632,-0.5601,0.0,-0.5821,-0.6017,-0.6094,-0.5989,-0.5692,-0.5373,-0.5048,-0.5137,-0.5199,-0.5019,-0.5137,-0.5229,-0.5126,-0.4802,-0.4467,-0.4481,-0.4512,-0.4539,-0.4539,-0.4732,-0.4932,-1.2347,-1.1796,-1.1158,-1.0897,-1.0889,-1.0864,-1.0771,-1.0601,-1.0609,-1.0405,-1.0105,-1.0105,-1.0079,-1.0002,-0.995,0.0,0.0,0.0,-0.9943,-1.001,-0.9706,-0.9524,-0.9465,-0.9159,-0.8982,-0.8877,-0.9087,-0.9159,-0.9106,-0.9113,-0.9113,-0.9106,0.0,0.0,-0.8778,-0.8778,-0.8778,-0.8778,-0.8778,-0.8778,-0.8778,-0.8778,-0.8778,-0.8778,-0.8778,-0.8752,-0.8692,-0.8697,-0.8786,-0.8871,-0.8925,-0.886,0.0,0.0,0.0,0.0,0.0,0.0,0.0,0.0,0.0,0.0,0.0,-0.3932,-0.3744,0.0,0.0,0.0,-0.424,-0.3932,-0.3646,-0.3975,0.0,0.0,0.0,0.0,0.0,0.0,0.0,-0.4765,-0.5792,-0.6534,-0.661,-0.6664,-0.6593,-0.6213,-0.6295,-0.629,-0.5991,0.0,-0.6369,-0.6369,-0.6318,-0.6331,-0.6489,-0.6424,-0.6289,-0.622,-0.5966,-0.5729,-0.5642,-0.5616,-0.5586,-0.5586,-0.5586,-0.5586,-0.5586,-0.5438,-0.5241,-0.5127,-0.5155,-0.5213,-0.5209,-0.527,-0.5327,-1.4287,-1.3462,-1.1943,-1.1251,-1.1141,-1.1141,-1.1183,-1.1276,-1.1276,-1.1259,-1.1209,-1.1209,-1.1209,-1.12,-1.1082,0.0,-1.0948,-1.0948,-1.0956,-1.1049,-1.0549,-1.0259,-1.0115,-0.9614,-0.9237,-0.9035,-0.951,-0.9718,-0.9562,-0.9569,-0.9562,-0.9536,-0.9061,-0.8778,-0.8778,-0.8778,-0.8778,-0.8778,-0.8778,-0.8778,-0.8778,-0.8778,-0.8778,-0.8778,-0.8778,-0.8778,-0.8785,-0.901,-0.9108,-0.9043,-0.9532,-0.9635,-0.9256,0.0,0.0,0.0,0.0,0.0,0.0,0.0,0.0,0.0,0.0,0.0,0.0,0.0,0.0,0.0,-0.5909,0.0,-0.478,-0.5218,0.0,0.0,0.0,-0.4988,-0.4453,-0.5441,-0.5991,-0.5527,0.0,0.0,-0.7467,-0.7494,-0.7306,-0.6836,-0.6766,-0.6625,-0.6282,-0.6491,-0.6654,-0.6726,-0.6617,-0.6529,-0.6641,-0.6406,-0.6224,-0.6175,-0.599,-0.601,-0.5984,-0.5949,-0.5937,-0.6014,-0.5967,-0.5941,-0.5967,-0.591,-0.5837,-0.5563,-0.5589,-0.5721,-0.5709,-0.5765,-0.5826,-1.4365,-1.4473,-1.4056,-1.3332,-1.2471,-1.2446,-1.224,-1.1893,-1.1868,-1.1619,-1.1209,-1.1209,-1.1209,-1.1209,-1.1175,-1.0922,-1.0541,-1.0541,-1.0336,-0.9969,-0.9751,-0.9614,-0.9588,-0.9335,-0.9211,-0.9159,-0.929,-0.9309,-0.9283,-0.9185,-0.9133,-0.914,-0.8929,-0.8778,-0.8778,-0.8778,-0.8778,-0.8778,-0.8778,-0.8778,-0.8778,-0.8778,-0.8778,-0.8778,-0.8778,-0.8778,-0.8778,-0.8758,-0.8863,-0.9149,-0.9091,-0.9192,-0.9557,-0.9183,0.0,0.0,0.0,0.0,0.0,0.0,0.0,0.0,0.0,-0.5003,-0.4901,0.0,-0.4904,0.0,-0.6831,-0.648,-0.5007,-0.5391,0.0,0.0,-0.4622,-0.4783,-0.5905,-0.5964,-0.615,-0.6885,-0.7252,-0.7413,-0.7365,-0.7338,-0.7329,-0.7243,-0.7181,-0.7013,-0.6585,-0.6917,-0.7286,-0.7448,-0.7472,-0.756,-0.7639,-0.7625,-0.7369,-0.7154,-0.6861,-0.6649,-0.6649,-0.6451,-0.6359,-0.6585,-0.6456,-0.6294,-0.6286,-0.629,-0.6254,-0.6177,-0.6017,-0.5858,-0.5858,-0.5892,-0.5892,-1.5088,-1.4785,-1.4785,-1.4258,-1.3447,-1.3643,-1.3565,-1.3285,-1.3079,-1.2805,-1.2477,-1.2486,-1.2486,-1.2477,-1.2486,-1.233,-1.207,-1.2035,-1.1783,-1.1336,-1.1025,-1.0763,-1.0592,-1.0259,-1.0046,-1.002,-1.0208,-1.0293,-1.0208,-1.0087,-1.0017,-1.001,-0.9692,-0.951,-0.9484,-0.9035,-0.8778,-0.8778,-0.8778,-0.8778,-0.8778,-0.8778,-0.8778,-0.8778,-0.8778,-0.8778,-0.8778,-0.8718,-0.8791,-0.9011,-0.8945,-0.906,-0.9444,-0.9317,-0.9294,0.0,0.0,0.0,0.0,0.0,0.0,0.0,0.0,0.0,0.0,0.0,-0.56,-0.6085,-0.6997,-0.72,-0.6227,-0.6733,-0.6964,-0.662,-0.6202,-0.6202,-0.6844,-0.6758,-0.6804,-0.7187,-0.7434,-0.7636,-0.7729,-0.7747,-0.7783,-0.7857,-0.7784,-0.7598,-0.7252,-0.7472,-0.7812,-0.7966,-0.7921,-0.7876,-0.7911,-0.7832,-0.7722,-0.7521,-0.7297,-0.7106,-0.6946,-0.6749,-0.6651,-0.6651,-0.6519,-0.642,-0.642,-0.642,-0.642,-0.6396,-0.6262,-0.614,-0.6124,-0.6124,-0.6124,-1.6322,-1.5205,-1.5195,-1.498,-1.4621,-1.498,-1.4989,-1.4705,-1.427,-1.4114,-1.4114,-1.4114,-1.4114,-1.4114,-1.4114,-1.4051,-1.3997,-1.4055,-1.3854,-1.3439,-1.3023,-1.2657,-1.2302,-1.1748,-1.1447,-1.1378,-1.1748,-1.1868,-1.1782,-1.1619,-1.1507,-1.1456,-1.0874,-1.0552,-1.0435,-0.9556,-0.9023,-0.891,-0.891,-0.8857,-0.8778,-0.8778,-0.8778,-0.8778,-0.8778,-0.8778,-0.8778,-0.8778,-0.8778,-0.8818,-0.8922,-0.9026,-0.913,-0.933,-0.9548,0.0,-0.9607,0.0,0.0,0.0,0.0,0.0,0.0,0.0,0.0,-0.7176,-0.6818,-0.5958,-0.7101,-0.782,-0.7755,-0.8234,-0.851,-0.844,-0.8194,-0.7835,-0.7342,-0.7471,-0.7482,-0.7069,-0.7478,-0.7919,-0.8187,-0.8287,-0.8355,-0.8422,-0.832,-0.8153,-0.7993,-0.8057,-0.8186,-0.8245,-0.8148,-0.8016,-0.7844,-0.7766,-0.772,-0.7701,-0.7702,-0.7541,-0.7238,-0.7138,-0.6996,-0.673,-0.6647,-0.6572,-0.6489,-0.6531,-0.6531,-0.6513,-0.6597,-0.6631,-0.6441,-0.6388,-0.642,-1.8203,-1.7412,-1.7393,-1.7353,-1.7256,-1.7002,-1.5889,-1.4231,-1.4143,-1.4114,-1.4114,-1.4114,-1.4114,-1.4114,-1.4114,-1.3863,-1.3467,-1.3849,-1.3736,-1.3288,-1.3496,-1.3544,-1.3444,-1.3191,-1.3132,-1.3261,-1.3191,-1.3229,-1.3348,-1.288,-1.2592,-1.2405,-1.1861,-1.1383,-1.0894,0.0,0.0,0.0,-0.9439,-0.9237,-0.8804,-0.8778,-0.8778,-0.8778,-0.8778,0.0,-0.8778,-0.8778,-0.8778,-0.8785,-0.8831,0.0,0.0,0.0,0.0,0.0,0.0,0.0,0.0,0.0,0.0,0.0,-0.9825,-0.9285,-0.7906,-0.8281,-0.8404,-0.7933,-0.841,-0.8551,-0.8069,-0.7838,-0.7522,-0.7055,-0.6784,-0.673,-0.7062,-0.7193,-0.7321,-0.7681,-0.7999,-0.8175,-0.8174,-0.8253,-0.8338,-0.8468,-0.8307,-0.8353,-0.8577,-0.8384,-0.8263,-0.8404,-0.8452,-0.8467,-0.8603,-0.8629,-0.8518,-0.8502,-0.8458,-0.8448,-0.83,-0.8091,-0.7922,-0.7739,-0.7552,-0.7267,-0.6983,-0.7136,-0.7255,-0.6952,-0.7368,-0.7557,-0.6618,-0.6424,-0.642,-1.9116,0.0,-1.8178,-1.8008,0.0,-1.7783,-1.6953,-1.5693,-1.5478,-1.5381,-1.5371,-1.5186,-1.5088,-1.5078,-1.4835,-1.4598,-1.4345,-1.4582,-1.4459,-1.4025,-1.421,-1.4172,-1.394,-1.3836,-1.3836,-1.3949,-1.3693,-1.3744,-1.4032,-1.362,-1.3475,-1.3582,-1.3302,-1.3032,-1.2748,-1.253,-1.1645,-1.0002,-0.9987,-0.9736,-0.9237,-0.9185,-0.9054,-0.8811,-0.8778,0.0,0.0,0.0,0.0,0.0,0.0,0.0,0.0,-0.8777,0.0,-0.9072,-0.9245,-0.942,-0.9643,-0.9728,-0.9787,-0.9767,-0.9816,-0.9451,-0.85,-0.8407,-0.8376,-0.8438,-0.852,-0.859,-0.8579,-0.8305,-0.7954,-0.7677,-0.7386,-0.7367,-0.7648,-0.7698,-0.7786,-0.8062,-0.8315,-0.8531,-0.8569,-0.864,-0.8832,-0.9082,-0.892,-0.8907,-0.9153,-0.8854,-0.8625,-0.8813,-0.8856,-0.8865,-0.9035,-0.9063,-0.9031,-0.8945,-0.8966,-0.886,-0.8725,-0.8549,-0.8367,-0.8191,-0.8014,-0.7806,-0.7664,-0.777,-0.7806,-0.7664,-0.777,-0.7756,-0.7095,-0.6992,-0.6997,-2.0033,-1.9561,-1.8897,-1.8532,-1.8439,-1.8439,-1.8163,-1.7709,0.0,0.0,0.0,-1.6369,-1.6212,-1.6193,-1.5801,-1.5615,-1.5654,-1.5723,-1.5576,-1.5283,-1.5322,-1.5127,-1.4689,-1.4651,-1.4612,-1.4535,-1.4304,-1.4345,-1.4658,-1.4419,-1.4414,-1.4639,-1.4611,-1.4565,-1.4488,-1.4167,-1.3062,-1.1232,-1.0895,-1.0501,-0.9967,-0.994,-0.9708,-0.9196,-0.9083,-0.901,-0.8962,-0.8857,-0.8778,-0.8778,-0.8692,-0.8685,-0.8778,-0.8692,-0.8791,-0.9111,-0.9131,-0.9264,-0.9608,-0.9606,-0.9504,-0.9311,-0.9381,-0.9402,-0.9227,-0.8538,-0.8297,-0.8745,-0.8491,-0.8535,-0.909,-0.8818,-0.8662,-0.8727,-0.8475,-0.8297,-0.8345,-0.8385,-0.8357,-0.8387,-0.8668,-0.8927,-0.9131,-0.9238,-0.9424,-0.9726,-0.954,-0.948,-0.9643,-0.9267,-0.8992,-0.912,-0.9106,-0.92,-0.926,-0.927,-0.9287,-0.9321,-0.9326,-0.9228,-0.902,-0.8913,-0.8771,-0.8524,-0.8377,-0.8356,-0.831,-0.837,-0.8341,-0.8305,-0.8162,-0.7956,-0.7915,-0.7879,-0.7816,-2.1787,-2.117,-2.1066,-2.066,-2.0153,-2.0143,-1.9733,-1.8932,-1.7369,-1.6697,-1.6697,-1.6629,-1.6609,-1.6609,-1.6541,-1.6512,-1.6541,-1.6934,-1.7103,-1.7041,-1.7393,-1.7334,-1.6934,-1.6754,-1.6551,-1.6325,-1.6121,-1.6067,-1.6158,-1.5912,-1.5616,-1.5261,-1.5061,-1.4773,-1.4506,-1.4451,-1.4243,-1.3916,-1.2804,-1.19,-1.1348,-1.132,-1.113,-1.0693,-1.024,-0.9838,-0.9506,-0.9068,-0.8778,-0.8778,-0.8778,-0.8778,-0.8778,-0.8778,-0.8791,-0.8831,-0.8838,-0.8998,-0.9257,-0.9271,-0.9384,-0.9595,-0.9632,-0.9794,-1.0078,-0.9793,-0.9654,-0.9825,-0.9298,-0.9105,-0.9281,-0.8765,-0.8533,-0.886,-0.8561,-0.8403,-0.8608,-0.8621,-0.865,-0.8633,-0.9095,-0.9352,-0.9412,-0.97,-0.9866,-0.98,-0.9742,-0.9547,-0.9606,-0.9349,-0.9179,-0.9195,-0.9171,-0.9292,-0.947,-0.9565,-0.9593,-0.9793,-0.975,-0.9729,-0.9649,-0.9617,-0.9505,-0.921,-0.9105,-0.9003,-0.874,-0.892,-0.896,-0.8796,-0.9015,-0.9292,-0.8993,-0.8923,-0.857,-2.24,-2.2046,-2.162,-2.1282,-2.0966,-2.0552,-2.0196,-1.9741,-1.8596,-1.7944,-1.772,-1.7496,-1.7305,-1.707,-1.6804,-1.6697,-1.6707,-1.6943,-1.6999,-1.7041,-1.7227,-1.7174,-1.7041,-1.6925,-1.6818,-1.6675,-1.6424,-1.6319,-1.63,-1.6034,-1.5751,-1.5553,-1.5449,-1.5201,-1.4876,-1.4827,-1.4827,-1.4808,-1.3818,-1.2963,-1.2424,-1.2195,-1.1837,-1.1351,-1.1087,-1.0722,-1.021,-0.9784,-0.9402,-0.9038,-0.8865,-0.8778,-0.8778,-0.8778,-0.8778,-0.8778,-0.8778,-0.8831,-0.8971,-0.8917,-0.9043,-0.9384,-0.9361,-0.9504,-0.9926,-0.9714,-0.9458,-0.9356,-0.897,-0.8813,-0.8978,-0.8583,-0.845,-0.8803,-0.8625,-0.8584,-0.8698,-0.8848,-0.8915,-0.8951,-0.9269,-0.9478,-0.9478,-0.9781,-1.0017,-1.0037,-1.0118,-1.0185,-1.0109,-0.9889,-0.9692,-0.9593,-0.9599,-0.96,-0.9739,-0.9766,-0.9814,-0.9868,-0.9884,-0.9884,-0.9884,-0.9884,-0.9809,-0.9657,-0.962,-0.9544,-0.9349,-0.9506,-0.9506,-0.9468,-0.9392,-0.9468,-0.9322,-0.9165,-0.8708,-2.2587,-2.2613,-2.1855,-2.1394,-2.1142,-2.04,-2.0078,-2.0007,-1.9522,-1.9043,-1.8598,-1.8389,-1.8115,-1.7793,-1.7418,-1.7256,-1.7135,-1.7126,-1.7087,-1.6989,-1.6989,-1.695,-1.6853,-1.6811,-1.6731,-1.6612,-1.6329,-1.6169,-1.6096,-1.5914,-1.5739,-1.5643,-1.5675,-1.5519,-1.5111,-1.5194,-1.5276,-1.5322,-1.4692,-1.411,-1.3688,-1.3389,-1.2923,-1.2289,-1.2138,-1.178,-1.1135,-1.0589,-1.0061,-0.957,-0.9112,-0.8905,-0.8871,-0.8818,-0.8778,-0.8778,-0.8778,-0.8778,-0.8778,-0.8718,-0.8784,-0.9064,-0.9074,-0.9177,-0.9431,-0.9343,-0.9136,-0.8943,-0.8681,-0.8598,-0.8806,-0.8679,-0.8626,-0.8847,-0.886,-0.8896,-0.8903,-0.9071,-0.9191,-0.9221,-0.948,-0.9703,-0.9745,-0.9973,-1.0239,-1.042,-1.0614,-1.0651,-1.0519,-1.0368,-1.0218,-1.0067,-0.9954,-0.9863,-0.9884,-0.9873,-0.9873,-0.9884,-0.9884,-0.9884,-0.9884,-0.9884,-0.9884,-0.9846,-0.9884,-0.9846,-0.9884,-0.9884,-0.9846,-0.9809,-0.9695,-0.9468,-0.9473,-0.9273,-0.8889,-2.2535,-2.281,-2.2182,-2.1372,-2.0607,-1.9801,-1.9486,-1.9449,-1.9323,-1.9043,-1.8666,-1.9004,-1.9121,-1.9111,-1.9014,-1.8769,-1.8403,-1.8422,-1.8208,-1.791,-1.7867,-1.7695,-1.733,-1.7141,-1.6831,-1.6491,-1.6322,-1.6158,-1.5983,-1.607,-1.5882,-1.5427,-1.5569,-1.5505,-1.5194,-1.545,-1.5808,-1.6184,-1.5753,-1.5524,-1.546,-1.5423,-1.5027,-1.4266,-1.3737,-1.3132,-1.236,-1.1238,-1.0636,-1.0507,-0.9688,-0.9171,-0.9151,-0.8931,-0.8811,-0.8785,-0.8811,-0.8778,-0.8811,-0.8778,-0.8818,-0.8831,-0.907,-0.9126,-0.897,-0.9119,-0.9347,-0.9443,-0.9199,-0.9032,-0.9285,-0.9211,-0.9172,-0.926,-0.9285,-0.934,-0.9391,-0.943,-0.9448,-0.9448,-0.9877,-1.022,-1.0214,-1.0551,-1.082,-1.0758,-1.0693,-1.0625,-1.0588,-1.0481,-1.0438,-1.0368,-1.0143,-0.9927,-0.9922,-0.9884,-0.9884,-0.9884,-0.9884,-0.9884,-0.9884,-0.9884,-0.9884,-0.9884,-0.9884,-0.9884,-0.9884,-0.9884,-0.9884,-0.9884,-0.9846,-0.9809,-0.9809,-0.9803,-0.9539,-2.3288,-2.3412,-2.2796,-2.2173,-2.1428,-2.0537,-2.0136,-2.0087,-1.9521,-1.918,-1.9053,-1.9209,-1.915,-1.8916,-1.917,-1.9189,-1.9023,-1.9023,-1.8936,-1.875,-1.8411,-1.8162,-1.7963,-1.7557,-1.7202,-1.7068,-1.6883,-1.6651,-1.6309,-1.6053,-1.5775,-1.5573,-1.5647,-1.5597,-1.5482,-1.5377,-1.5661,-1.6285,-1.59,-1.5918,-1.6294,-1.5936,-1.5542,-1.5217,-1.4975,-1.4551,-1.3825,-1.3147,-1.254,-1.1899,-1.096,-1.0329,-1.0073,-0.961,-0.9245,-0.9058,-0.9038,-0.9038,-0.9031,-0.9198,-0.9353,-0.9325,-0.9432,-0.9442,-0.9357,-0.9433,-0.9593,-0.9695,-0.9207,-0.8924,-0.9196,-0.9179,-0.926,-0.9419,-0.9442,-0.9485,-0.9492,-0.9654,-0.9745,-0.9769,-1.0063,-1.0333,-1.034,-1.0611,-1.0857,-1.0952,-1.0887,-1.083,-1.0818,-1.0663,-1.0513,-1.046,-1.0302,-1.0138,-1.0084,-0.9954,-0.9927,-0.9889,-0.9884,-0.9884,-0.9884,-0.9884,-0.9884,-0.9884,-0.9884,-0.9884,-0.9884,-0.9884,-0.9884,-0.9884,-0.9884,-0.9884,-0.9884,-1.018,-1.0175,-2.3806,-2.3701,-2.3176,-2.2568,-2.1981,-2.1152,-2.0772,-2.0604,-1.9675,-1.9211,-1.9221,-1.9125,-1.8936,-1.8695,-1.9092,-1.9277,-1.9277,-1.9277,-1.9277,-1.9248,-1.8821,-1.8614,-1.8585,-1.8149,-1.7815,-1.765,-1.7439,-1.7129,-1.6689,-1.6283,-1.5973,-1.5881,-1.5863,-1.5799,-1.5661,-1.5395,-1.5606,-1.6187,-1.601,-1.6202,-1.6725,-1.6331,-1.5973,-1.5872,-1.5863,-1.5483,-1.4706,-1.4311,-1.3635,-1.2649,-1.1719,-1.1079,-1.0803,-1.0265,-0.9826,-0.9633,-0.9577,-0.9566,-0.9464,-0.9686,-0.9766,-0.9729,-0.9746,-0.98,-0.9761,-0.9791,-0.9803,-0.982,-0.929,-0.9059,-0.9229,-0.9333,-0.94,-0.9524,-0.9602,-0.9683,-0.9642,-0.9853,-1.0009,-1.0033,-1.0256,-1.0436,-1.0521,-1.0707,-1.0918,-1.1152,-1.1163,-1.1161,-1.1164,-1.0971,-1.0703,-1.0686,-1.0556,-1.0428,-1.0275,-1.0198,-1.0089,-1.0024,-1.004,-0.9981,-0.9911,-0.9884,-0.9884,-0.9884,-0.9884,-0.9884,-0.9884,-0.9884,-0.9922,-0.9954,-1.003,-1.0143,-1.0218,-1.0625,-1.085,-2.3806,-2.3706,-2.3033,-2.2434,-2.1705,-2.1172,-2.0929,-2.094,-1.9668,-1.9057,-1.9025,-1.8795,-1.8627,-1.8598,-1.9023,-1.9304,-1.9277,-1.9277,-1.9297,-1.9316,-1.9248,-1.9258,-1.9268,-1.902,-1.8617,-1.8041,-1.7844,-1.7452,-1.6934,-1.6835,-1.6661,-1.627,-1.6285,-1.6092,-1.5799,-1.5707,-1.5881,-1.6294,-1.6251,-1.6477,-1.6844,-1.6853,-1.6624,-1.6288,-1.6285,-1.5779,-1.4751,-1.4007,-1.3279,-1.246,-1.1633,-1.1073,-1.0993,-1.0719,-1.0519,-1.0506,-1.0512,-1.0392,-1.012,-1.0127,-1.0047,-0.9826,-1.002,-1.0046,-1.0008,-1.0006,-0.9983,-0.9811,-0.9646,-0.9562,-0.974,-0.9792,-0.9766,-0.9608,-0.9927,-1.0037,-0.9889,-1.0124,-1.0262,-1.0316,-1.0544,-1.0785,-1.1021,-1.105,-1.1188,-1.1387,-1.1355,-1.1304,-1.1435,-1.1312,-1.1141,-1.1107,-1.0969,-1.0741,-1.0437,-1.0369,-1.0412,-1.0353,-1.025,-1.0213,-1.0002,-0.9884,-0.9906,-0.9922,-0.9981,-0.9981,-0.9916,-0.9922,-0.9992,-1.0143,-1.055,-1.07,-1.0738,-1.1254,-1.144,-2.4554,-2.4254,-2.397,-2.3542,-2.2989,-2.2331,-2.206,-2.197,-2.1113,-2.0252,-1.9599,-1.9414,-1.8953,-1.8242,-1.8398,-1.8769,-1.9248,-1.9277,-1.9424,-1.9629,-1.9267,-1.9259,-1.9482,-1.8917,-1.8534,-1.8283,-1.8082,-1.7733,-1.7284,-1.7037,-1.6835,-1.67,-1.6688,-1.6606,-1.645,-1.6221,-1.6294,-1.6624,-1.6416,-1.6505,-1.6872,-1.6908,-1.6835,-1.6672,-1.6697,-1.6273,-1.5386,-1.5145,-1.452,-1.3473,-1.2694,-1.2167,-1.1868,-1.1219,-1.0874,-1.0868,-1.0868,-1.0821,-1.0715,-1.0855,-1.0915,-1.0815,-1.0715,-1.0643,-1.0592,-1.0516,-1.0379,-1.0208,-1.0232,-1.0205,-1.0114,-0.9998,-0.9961,-1.0031,-1.0162,-1.0262,-1.0236,-1.0382,-1.058,-1.0616,-1.0816,-1.1075,-1.1254,-1.1345,-1.1492,-1.1676,-1.1702,-1.1637,-1.157,-1.1404,-1.1272,-1.1237,-1.1083,-1.0955,-1.1013,-1.0684,-1.0554,-1.0517,-1.0463,-1.0447,-1.0335,-1.0286,-1.0302,-1.0276,-1.0265,-1.0284,-1.0285,-1.0433,-1.0443,-1.0628,-1.0998,-1.1122,-1.1366,-1.1663,-1.1855,-2.5107,-2.476,-2.4736,-2.459,-2.422,-2.3565,-2.329,-2.3165,-2.2388,-2.1537,-2.076,-2.0246,-1.9665,-1.913,-1.8661,-1.8789,-1.9356,-1.9216,-1.927,-1.9556,-1.9166,-1.9121,-1.9258,-1.8901,-1.8574,-1.8388,-1.8202,-1.7926,-1.7678,-1.7293,-1.711,-1.7101,-1.6972,-1.6908,-1.6862,-1.6633,-1.6627,-1.6807,-1.6633,-1.6642,-1.6881,-1.6908,-1.6908,-1.6908,-1.6908,-1.6551,-1.5833,-1.5542,-1.4939,-1.3913,-1.3169,-1.2643,-1.2333,-1.1765,-1.1416,-1.1416,-1.1416,-1.1363,-1.1303,-1.1463,-1.1523,-1.1389,-1.1249,-1.1129,-1.1129,-1.0969,-1.0801,-1.0712,-1.0576,-1.0553,-1.051,-1.0331,-1.0202,-1.0298,-1.037,-1.0453,-1.0472,-1.0647,-1.0833,-1.0997,-1.1104,-1.1327,-1.1555,-1.1603,-1.1742,-1.197,-1.1972,-1.1903,-1.1829,-1.1606,-1.1447,-1.1417,-1.126,-1.1174,-1.1195,-1.0993,-1.0812,-1.0758,-1.071,-1.0699,-1.0662,-1.064,-1.0635,-1.0619,-1.0611,-1.0661,-1.0773,-1.095,-1.1059,-1.1193,-1.1218,-1.1324,-1.1621,-1.1966,-1.2197,-2.5312,-2.53,-2.5312,-2.524,-2.5107,-2.4642,-2.4462,-2.4241,-2.3235,-2.2605,-2.2126,-2.1107,-2.0702,-2.0962,-1.9696,-1.9417,-1.9544,-1.9052,-1.8847,-1.9012,-1.8966,-1.8866,-1.8832,-1.9023,-1.8836,-1.8369,-1.8175,-1.8063,-1.8008,-1.7651,-1.7449,-1.7422,-1.7128,-1.6982,-1.6936,-1.689,-1.6881,-1.689,-1.6853,-1.6881,-1.6908,-1.6908,-1.6908,-1.6908,-1.6908,-1.6586,-1.5868,-1.5108,-1.4343,-1.3578,-1.2778,-1.2335,-1.2311,-1.2198,-1.2251,-1.2191,-1.2245,-1.2124,-1.1926,-1.1886,-1.1757,-1.1577,-1.1415,-1.143,-1.1361,-1.1258,-1.1162,-1.1065,-1.0868,-1.0711,-1.0892,-1.0767,-1.0575,-1.0388,-1.0563,-1.0719,-1.0767,-1.0954,-1.122,-1.1405,-1.1489,-1.1603,-1.1802,-1.1886,-1.1988,-1.2152,-1.2153,-1.2046,-1.212,-1.1864,-1.1692,-1.1649,-1.1445,-1.1294,-1.1305,-1.1284,-1.1139,-1.1058,-1.1004,-1.0966,-1.0839,-1.0796,-1.0817,-1.0801,-1.0721,-1.0778,-1.1024,-1.122,-1.1498,-1.1564,-1.156,-1.173,-1.2202,-1.2596,-1.2709,-2.5528,-2.5793,-2.5456,-2.5312,-2.5288,-2.5119,-2.5059,-2.4942,-2.4073,-2.3207,-2.2371,-2.1362,-2.0628,-2.0078,-1.9459,-1.9364,-1.9441,-1.918,-1.8978,-1.8763,-1.851,-1.8581,-1.8783,-1.876,-1.8509,-1.8193,-1.7862,-1.7853,-1.8009,-1.7697,-1.7623,-1.7798,-1.7504,-1.7321,-1.7266,-1.7055,-1.6908,-1.6908,-1.6908,-1.6908,-1.6908,-1.6908,-1.6908,-1.6908,-1.6908,-1.676,-1.6508,-1.5286,-1.4279,-1.3564,-1.2739,-1.2305,-1.2305,-1.2305,-1.2305,-1.2305,-1.2305,-1.2285,-1.2198,-1.2158,-1.2124,-1.2004,-1.1844,-1.1666,-1.1554,-1.1378,-1.1307,-1.1262,-1.108,-1.1022,-1.1187,-1.1101,-1.0936,-1.0876,-1.0942,-1.0979,-1.0984,-1.1194,-1.1465,-1.17,-1.1799,-1.1914,-1.2073,-1.2151,-1.2212,-1.2295,-1.227,-1.2202,-1.1966,-1.1866,-1.1699,-1.1656,-1.1478,-1.1348,-1.1397,-1.1354,-1.1241,-1.116,-1.1134,-1.1107,-1.1021,-1.0984,-1.1,-1.102,-1.0934,-1.1087,-1.1336,-1.1595,-1.1922,-1.2132,-1.2222,-1.2551,-1.3003,-1.316,-1.3231,-2.5612,-2.6033,-2.5733,-2.5733,-2.5865,-2.5709,-2.56,-2.5493,-2.4861,-2.4051,-2.3201,-2.2391,-2.1726,-2.1107,-2.0539,-2.0336,-2.0387,-2.0038,-1.9588,-1.9105,-1.8388,-1.8282,-1.8419,-1.8219,-1.8101,-1.8073,-1.7862,-1.7862,-1.8054,-1.7724,-1.7633,-1.7779,-1.7477,-1.7257,-1.7266,-1.7037,-1.6908,-1.6908,-1.6908,-1.6908,-1.6908,-1.6908,-1.6908,-1.6908,-1.6908,-1.6908,-1.6804,-1.5683,-1.4824,-1.425,-1.3346,-1.2666,-1.2335,-1.2305,-1.2305,-1.2305,-1.2305,-1.2305,-1.2305,-1.2291,-1.2305,-1.2265,-1.2058,-1.1886,-1.1735,-1.1591,-1.1452,-1.1447,-1.1292,-1.126,-1.1329,-1.1217,-1.1148,-1.1224,-1.116,-1.1166,-1.1224,-1.1471,-1.1742,-1.1946,-1.1984,-1.2116,-1.2337,-1.226,-1.2271,-1.2339,-1.2283,-1.2198,-1.1866,-1.1742,-1.1699,-1.1613,-1.1483,-1.144,-1.1483,-1.1397,-1.1311,-1.1289,-1.1273,-1.1252,-1.1203,-1.1193,-1.1203,-1.1347,-1.1324,-1.1677,-1.1931,-1.2248,-1.2564,-1.2704,-1.2846,-1.316,-1.3442,-1.3459,-1.3553,-2.5612,-2.6069,-2.6081,-2.6334,-2.6645,-2.6322,-2.6142,-2.6069,-2.5529,-2.5058,-2.4622,-2.3711,-2.3515,-2.3536,-2.213,-2.1699,-2.2028,-2.1053,-2.0412,-1.9888,-1.9023,-1.8301,-1.799,-1.7834,-1.7844,-1.8073,-1.7944,-1.7999,-1.7962,-1.7669,-1.7513,-1.7587,-1.7275,-1.6972,-1.7037,-1.6936,-1.6908,-1.6908,-1.6908,-1.6908,-1.6908,-1.6908,-1.6908,-1.6908,-1.6908,-1.6908,-1.6804,-1.6228,-1.5762,-1.5471,-1.4034,-1.3062,-1.2489,-1.2305,-1.2305,-1.2305,-1.2305,-1.2305,-1.2305,-1.2305,-1.2305,-1.2261,-1.2094,-1.2003,-1.192,-1.1723,-1.1575,-1.1582,-1.1428,-1.1372,-1.1372,-1.1272,-1.128,-1.1435,-1.1345,-1.1321,-1.1519,-1.1793,-1.1974,-1.2157,-1.2147,-1.2153,-1.2476,-1.2222,-1.2172,-1.2176,-1.2103,-1.1932,-1.1823,-1.1699,-1.1661,-1.157,-1.1397,-1.1397,-1.1397,-1.1397,-1.1311,-1.1311,-1.1311,-1.1311,-1.1311,-1.1311,-1.1311,-1.1467,-1.1628,-1.2052,-1.2407,-1.2608,-1.296,-1.3261,-1.3424,-1.3682,-1.3842,-1.3909,-1.4135,-2.5612,-2.6069,-2.6093,-2.6178,-2.6358,-2.6562,-2.6669,-2.6595,-2.5904,-2.5594,-2.5183,-2.3939,-2.3379,-2.3071,-2.2164,-2.1591,-2.1542,-2.1234,-2.0878,-2.057,-1.9996,-1.9344,-1.8762,-1.8219,-1.8018,-1.8073,-1.7678,-1.7376,-1.7633,-1.7559,-1.7623,-1.7935,-1.7468,-1.7303,-1.7312,-1.7037,-1.6917,-1.6908,-1.6917,-1.6917,-1.6908,-1.6927,-1.6908,-1.6908,-1.6908,-1.6908,-1.6908,-1.6726,-1.5719,-1.4214,-1.3781,-1.3135,-1.2445,-1.2305,-1.2305,-1.2305,-1.2305,-1.2305,-1.2305,-1.2305,-1.2305,-1.2268,-1.2114,-1.1935,-1.1781,-1.1595,-1.1521,-1.1446,-1.1298,-1.1267,-1.1372,-1.1386,-1.1534,-1.1712,-1.1676,-1.1736,-1.1962,-1.1999,-1.2023,-1.224,-1.2062,-1.2038,-1.2068,-1.2022,-1.187,-1.1867,-1.1763,-1.1635,-1.1544,-1.1477,-1.1423,-1.1424,-1.1305,-1.1311,-1.1311,-1.1311,-1.1311,-1.1311,-1.1311,-1.1311,-1.1311,-1.1311,-1.1311,-1.1348,-1.1429,-1.1725,-1.2143,-1.2486,-1.3024,-1.3638,-1.3999,-1.4241,-1.4434,-1.4538,-1.4839,-2.5624,-2.6081,-2.6093,-2.637,-2.6755,-2.6861,-2.7018,-2.7074,-2.6514,-2.6116,-2.5778,-2.4944,-2.4087,-2.3442,-2.2804,-2.2275,-2.1902,-2.1655,-2.1474,-2.1299,-2.0981,-2.0246,-1.9393,-1.877,-1.854,-1.8339,-1.7899,-1.7642,-1.7532,-1.7495,-1.7559,-1.7513,-1.7367,-1.7257,-1.7202,-1.7046,-1.6908,-1.6936,-1.7046,-1.7082,-1.6927,-1.7082,-1.7037,-1.6963,-1.6908,-1.6908,-1.6908,-1.6908,-1.6079,-1.4788,-1.4178,-1.36,-1.2886,-1.2452,-1.2305,-1.2305,-1.2305,-1.2305,-1.2305,-1.2305,-1.2305,-1.2268,-1.2114,-1.1885,-1.1706,-1.1521,-1.1403,-1.1298,-1.1245,-1.1312,-1.1467,-1.1663,-1.1842,-1.1874,-1.2017,-1.2054,-1.2155,-1.2067,-1.2054,-1.2067,-1.1942,-1.184,-1.188,-1.1748,-1.1624,-1.1566,-1.1413,-1.1274,-1.1155,-1.1159,-1.123,-1.1262,-1.1289,-1.1311,-1.1311,-1.1311,-1.1311,-1.1311,-1.1359,-1.1348,-1.1311,-1.1311,-1.1311,-1.1311,-1.1311,-1.1521,-1.2112,-1.2705,-1.3275,-1.3882,-1.4356,-1.4741,-1.4915,-1.4957,-1.5264,-2.5721,-2.6105,-2.6154,-2.6719,-2.7344,-2.715,-2.7258,-2.7522,-2.7241,-2.6904,-2.6637,-2.6297,-2.5371,-2.4531,-2.3758,-2.3337,-2.257,-2.2054,-2.2013,-2.1843,-2.1572,-2.0934,-1.9916,-1.9558,-1.9292,-1.9017,-1.8861,-1.832,-1.7917,-1.7706,-1.7394,-1.7238,-1.7073,-1.6954,-1.6991,-1.6917,-1.6908,-1.6963,-1.7165,-1.7147,-1.7027,-1.7211,-1.7238,-1.6954,-1.6908,-1.6908,-1.6908,-1.6874,-1.6508,-1.5939,-1.5144,-1.4322,-1.3571,-1.2732,-1.2409,-1.2305,-1.2305,-1.2305,-1.2268,-1.2268,-1.2268,-1.2224,-1.2077,-1.1929,-1.1756,-1.1639,-1.1508,-1.1321,-1.1451,-1.1609,-1.1685,-1.2023,-1.2054,-1.2,-1.2174,-1.2119,-1.1999,-1.2095,-1.2143,-1.1874,-1.1666,-1.1677,-1.1637,-1.1523,-1.1278,-1.1467,-1.1335,-1.1327,-1.1261,-1.1306,-1.1282,-1.1245,-1.1294,-1.1311,-1.1311,-1.1311,-1.1311,-1.1316,-1.1402,-1.1413,-1.1327,-1.1311,-1.1311,-1.1311,-1.1521,-1.1946,-1.2491,-1.3088,-1.3682,-1.4279,-1.4866,-1.5173,-1.5347,-1.5264,-1.5389,-2.6394,-2.6142,-2.6562,-2.6635,-2.6598,-2.7186,-2.757,-2.7702,-2.7845,-2.7874,-2.7817,-2.7082,-2.6,-2.4925,-2.4135,-2.3159,-2.2132,-2.1874,-2.1776,-2.1785,-2.1731,-2.1568,-2.0982,-2.0515,-2.0168,-1.9962,-1.9439,-1.8935,-1.8559,-1.8366,-1.8073,-1.7468,-1.7367,-1.7211,-1.6972,-1.6963,-1.6908,-1.6927,-1.7018,-1.7037,-1.7018,-1.7275,-1.7321,-1.6991,-1.6954,-1.6927,-1.6908,-1.6908,-1.683,-1.6508,-1.5903,-1.4895,-1.3818,-1.3317,-1.2879,-1.2409,-1.2305,-1.2305,-1.2268,-1.2187,-1.215,-1.2224,-1.2035,-1.1818,-1.1955,-1.1986,-1.1891,-1.1755,-1.1959,-1.2068,-1.2065,-1.1988,-1.203,-1.2107,-1.2047,-1.1902,-1.1651,-1.1633,-1.1657,-1.1567,-1.1366,-1.1217,-1.1273,-1.1294,-1.1213,-1.1282,-1.1369,-1.1433,-1.1417,-1.1399,-1.1367,-1.1277,-1.1429,-1.1472,-1.1482,-1.1488,-1.1493,-1.1493,-1.1547,-1.1568,-1.1482,-1.1397,-1.1413,-1.1603,-1.186,-1.2369,-1.3003,-1.3597,-1.423,-1.4783,-1.5257,-1.5347,-1.5389,-1.5389,-1.5389,-2.6717,-2.6538,-2.6777,-2.6911,-2.6947,-2.7426,-2.7783,-2.7944,-2.8128,-2.8191,-2.807,-2.7429,-2.6412,-2.5136,-2.4392,-2.3333,-2.2132,-2.1741,-2.1687,-2.1696,-2.1687,-2.1687,-2.165,-2.1284,-2.0964,-2.0759,-2.0393,-1.9861,-1.9353,-1.9054,-1.8669,-1.8082,-1.7899,-1.7578,-1.7248,-1.7165,-1.7073,-1.6991,-1.7101,-1.711,-1.7,-1.7284,-1.744,-1.7293,-1.7339,-1.7413,-1.722,-1.7193,-1.7082,-1.678,-1.6202,-1.5303,-1.4186,-1.368,-1.3098,-1.2489,-1.2305,-1.2305,-1.2268,-1.2231,-1.215,-1.217,-1.2052,-1.1973,-1.198,-1.2067,-1.2089,-1.1967,-1.2104,-1.2296,-1.2288,-1.2222,-1.2097,-1.1868,-1.179,-1.1585,-1.1387,-1.1405,-1.1423,-1.1327,-1.1182,-1.1122,-1.1129,-1.122,-1.1315,-1.1474,-1.1358,-1.1416,-1.1344,-1.1338,-1.1364,-1.1408,-1.1624,-1.1709,-1.172,-1.1741,-1.1768,-1.179,-1.1838,-1.1844,-1.1801,-1.1683,-1.162,-1.1912,-1.2232,-1.2924,-1.3555,-1.4146,-1.4615,-1.5041,-1.5347,-1.5389,-1.5389,-1.5389,-1.5389,-2.7014,-2.6942,-2.6942,-2.7157,-2.7469,-2.7565,-2.7722,-2.7989,-2.8075,-2.803,-2.7881,-2.7615,-2.6682,-2.5495,-2.4776,-2.3627,-2.2344,-2.182,-2.1687,-2.1687,-2.1687,-2.1687,-2.1659,-2.1577,-2.144,-2.1218,-2.1117,-2.0723,-2.0131,-1.9742,-1.9439,-1.8926,-1.8466,-1.8127,-1.7798,-1.7504,-1.733,-1.7128,-1.7193,-1.7183,-1.7018,-1.7284,-1.7423,-1.7243,-1.737,-1.7223,-1.7,-1.7063,-1.7126,-1.6687,-1.6227,-1.5496,-1.4636,-1.3912,-1.3135,-1.2378,-1.2305,-1.2351,-1.2418,-1.2374,-1.2269,-1.2164,-1.2323,-1.2312,-1.2149,-1.2293,-1.2317,-1.2202,-1.2202,-1.2293,-1.2264,-1.2113,-1.1874,-1.1633,-1.1489,-1.1315,-1.1232,-1.1315,-1.1389,-1.1208,-1.1194,-1.1236,-1.1291,-1.1381,-1.1495,-1.16,-1.1496,-1.1444,-1.1445,-1.1464,-1.1581,-1.1657,-1.1869,-1.1905,-1.1916,-1.2005,-1.2027,-1.2046,-1.21,-1.21,-1.2118,-1.2226,-1.2209,-1.2305,-1.2697,-1.3387,-1.3948,-1.4489,-1.4915,-1.5305,-1.5389,-1.5389,-1.5389,-1.5389,-1.5389,-2.7455,-2.7077,-2.7066,-2.6865,-2.6668,-2.7034,-2.7278,-2.7293,-2.7572,-2.7736,-2.7841,-2.7626,-2.694,-2.5966,-2.5094,-2.3651,-2.2167,-2.1731,-2.1687,-2.1687,-2.1687,-2.1687,-2.1687,-2.1687,-2.1623,-2.1623,-2.154,-2.1248,-2.0979,-2.0805,-2.0283,-1.9719,-1.9311,-1.8907,-1.8394,-1.7908,-1.7596,-1.7385,-1.7238,-1.7055,-1.7082,-1.7249,-1.7198,-1.6809,-1.6804,-1.6402,-1.5988,-1.6387,-1.6568,-1.5907,-1.6321,-1.5662,-1.4524,-1.3719,-1.3038,-1.2563,-1.2361,-1.2454,-1.2601,-1.252,-1.2665,-1.2837,-1.2811,-1.2733,-1.2685,-1.2825,-1.266,-1.2437,-1.2251,-1.2216,-1.1999,-1.1884,-1.1645,-1.1459,-1.1381,-1.128,-1.1262,-1.1387,-1.1513,-1.1395,-1.1393,-1.1465,-1.1591,-1.1766,-1.1994,-1.2105,-1.2057,-1.208,-1.2149,-1.213,-1.2125,-1.2122,-1.2115,-1.2102,-1.2056,-1.2199,-1.2301,-1.2204,-1.2262,-1.2382,-1.2466,-1.2786,-1.2923,-1.3258,-1.3367,-1.3773,-1.4333,-1.4867,-1.509,-1.5389,-1.5389,-1.5389,-1.5389,-1.5389,-1.5389,-2.774,-2.7517,-2.7517,-2.7375,-2.7187,-2.7399,-2.7425,-2.7317,-2.7458,-2.7493,-2.7505,-2.7383,-2.6857,-2.5966,-2.5073,-2.3531,-2.2122,-2.1687,-2.1687,-2.1687,-2.1687,-2.1687,-2.1687,-2.1687,-2.1687,-2.1687,-2.1668,-2.1604,-2.142,-2.1172,-2.0915,-2.0567,-2.0127,-1.9632,-1.91,-1.8678,-1.8192,-1.7889,-1.7449,-1.7211,-1.7193,-1.7422,-1.7072,-1.66,-1.6445,-1.61,-1.5449,-1.5559,-1.5613,-1.5043,-1.4909,-1.4478,-1.3805,-1.3182,-1.278,-1.2717,-1.2656,-1.2645,-1.2706,-1.2531,-1.2402,-1.2538,-1.2563,-1.2433,-1.2419,-1.2479,-1.2619,-1.2369,-1.2182,-1.1964,-1.1706,-1.1682,-1.1633,-1.1549,-1.1618,-1.1709,-1.1781,-1.194,-1.1916,-1.1826,-1.1974,-1.2012,-1.2,-1.2217,-1.2506,-1.2605,-1.2578,-1.2665,-1.2743,-1.2597,-1.2464,-1.2439,-1.2362,-1.2411,-1.2354,-1.2404,-1.2517,-1.2436,-1.2581,-1.2703,-1.301,-1.3408,-1.3964,-1.4482,-1.4546,-1.4505,-1.4802,-1.541,-1.5449,-1.5403,-1.5396,-1.5396,-1.5389,-1.534,-1.534,-2.776,-2.776,-2.776,-2.776,-2.776,-2.776,-2.7615,-2.7493,-2.7441,-2.733,-2.7231,-2.719,-2.6839,-2.5977,-2.4872,-2.3507,-2.182,-2.1687,-2.1687,-2.1687,-2.1687,-2.1687,-2.1687,-2.1687,-2.1687,-2.1687,-2.1687,-2.1687,-2.1595,-2.1385,-2.1273,-2.1071,-2.0772,-2.0365,-1.9806,-1.9467,-1.8999,-1.8467,-1.7954,-1.7715,-1.7532,-1.7342,-1.6883,-1.6124,-1.627,-1.5734,-1.4659,-1.4947,-1.4719,-1.4223,-1.3829,-1.3414,-1.3082,-1.2516,-1.2483,-1.2936,-1.2903,-1.2824,-1.2694,-1.2492,-1.2312,-1.2395,-1.226,-1.213,-1.2056,-1.2234,-1.2202,-1.2039,-1.2023,-1.1944,-1.1742,-1.1814,-1.1844,-1.1838,-1.2107,-1.2385,-1.2397,-1.2506,-1.2602,-1.2608,-1.2626,-1.2608,-1.256,-1.2576,-1.2867,-1.2918,-1.2887,-1.2785,-1.2852,-1.2678,-1.2579,-1.257,-1.2613,-1.2694,-1.2699,-1.2667,-1.2673,-1.2635,-1.2938,-1.3236,-1.3648,-1.4081,-1.4733,-1.5397,-1.5528,-1.5549,-1.5771,-1.5746,-1.5652,-1.5564,-1.5462,-1.5354,-1.5305,-1.5215,-1.5173,-2.7272,-2.7272,-2.7313,-2.7272,-2.7313,-2.7313,-2.7272,-2.726,-2.726,-2.7231,-2.719,-2.719,-2.7097,-2.6456,-2.5137,-2.3454,-2.2167,-2.1687,-2.1687,-2.1687,-2.1687,-2.1687,-2.1687,-2.1687,-2.1687,-2.1687,-2.1687,-2.1687,-2.1668,-2.1604,-2.1586,-2.1485,-2.1236,-2.0934,-2.064,-2.0173,-1.9591,-1.9173,-1.876,-1.8219,-1.7542,-1.6945,-1.6082,-1.5219,-1.461,-1.4139,-1.3587,-1.3975,-1.4048,-1.3445,-1.3775,-1.3631,-1.3093,-1.2864,-1.2719,-1.2641,-1.253,-1.2419,-1.255,-1.2434,-1.2402,-1.2419,-1.2482,-1.2428,-1.2261,-1.219,-1.222,-1.227,-1.2252,-1.2143,-1.1934,-1.2097,-1.221,-1.2355,-1.2548,-1.2705,-1.2771,-1.3109,-1.3236,-1.3296,-1.3296,-1.3179,-1.3131,-1.312,-1.3116,-1.3147,-1.3164,-1.3036,-1.293,-1.28,-1.2694,-1.271,-1.2716,-1.2786,-1.2807,-1.2807,-1.2953,-1.2905,-1.3286,-1.3757,-1.4387,-1.4921,-1.5563,-1.6104,-1.6299,-1.6377,-1.6344,-1.6213,-1.5957,-1.5776,-1.5689,-1.5437,-1.518,-1.5097,-1.5035,-2.719,-2.719,-2.719,-2.719,-2.719,-2.719,-2.719,-2.719,-2.719,-2.719,-2.719,-2.719,-2.6674,-2.5737,-2.4754,-2.3464,-2.2033,-2.1687,-2.1687,-2.1678,-2.1678,-2.1678,-2.1687,-2.1687,-2.1687,-2.1659,-2.1687,-2.1687,-2.1687,-2.1687,-2.1687,-2.1659,-2.1504,-2.13,-2.1181,-2.0778,-2.0393,-1.9925,-1.9366,-1.8612,-1.7832,-1.7053,-1.6196,-1.5213,-1.4402,-1.3533,-1.2993,-1.2929,-1.3031,-1.2491,-1.2717,-1.2702,-1.2473,-1.2375,-1.2296,-1.2539,-1.2485,-1.2486,-1.2537,-1.242,-1.2411,-1.2468,-1.2445,-1.2313,-1.2237,-1.2168,-1.2125,-1.2083,-1.2234,-1.2211,-1.2253,-1.25,-1.2656,-1.2868,-1.3085,-1.3242,-1.3381,-1.3634,-1.3857,-1.3912,-1.3924,-1.3739,-1.3551,-1.3472,-1.3426,-1.3367,-1.3269,-1.3039,-1.2951,-1.2893,-1.2823,-1.2786,-1.2786,-1.2802,-1.2807,-1.2807,-1.3238,-1.3335,-1.3619,-1.419,-1.5146,-1.5805,-1.6285,-1.6662,-1.6865,-1.6875,-1.6843,-1.655,-1.6213,-1.6075,-1.5937,-1.5713,-1.5412,-1.5042,-1.492,-2.719,-2.719,-2.719,-2.719,-2.719,-2.719,-2.719,-2.719,-2.719,-2.719,-2.719,-2.7149,-2.6207,-2.484,-2.4413,-2.3507,-2.1776,-2.1687,-2.1687,-2.1678,-2.1586,-2.1557,-2.1484,-2.1449,-2.1394,-2.154,-2.1467,-2.1514,-2.1588,-2.1607,-2.1607,-2.1687,-2.165,-2.1557,-2.1365,-2.1218,-2.0973,-2.0467,-1.9857,-1.9137,-1.8337,-1.7508,-1.6558,-1.559,-1.4593,-1.3549,-1.268,-1.2512,-1.2261,-1.2253,-1.2158,-1.2293,-1.2298,-1.227,-1.2203,-1.2368,-1.2364,-1.2455,-1.2441,-1.2328,-1.2273,-1.224,-1.2258,-1.2157,-1.2255,-1.2087,-1.2192,-1.2337,-1.2572,-1.265,-1.2711,-1.3067,-1.3242,-1.3453,-1.3676,-1.387,-1.4008,-1.4063,-1.4111,-1.4123,-1.4135,-1.4094,-1.3957,-1.3795,-1.3698,-1.3613,-1.3394,-1.3098,-1.2953,-1.291,-1.2861,-1.2807,-1.2807,-1.2807,-1.2856,-1.2953,-1.3383,-1.3854,-1.4142,-1.4669,-1.5669,-1.6285,-1.6709,-1.7044,-1.7286,-1.7213,-1.7084,-1.6769,-1.6521,-1.6389,-1.6249,-1.6021,-1.5708,-1.5302,-1.4929,-2.719,-2.719,-2.719,-2.719,-2.719,-2.719,-2.719,-2.719,-2.719,-2.719,-2.719,-2.7108,-2.6207,-2.4914,-2.4402,-2.3507,-2.1785,-2.1687,-2.1687,-2.1559,-2.1374,-2.131,-2.1227,-2.108,-2.0891,-2.1156,-2.1273,-2.1315,-2.14,-2.1482,-2.1562,-2.1651,-2.1597,-2.1624,-2.1604,-2.1478,-2.1242,-2.0748,-2.0244,-1.9678,-1.8928,-1.8077,-1.7083,-1.5678,-1.4667,-1.3678,-1.2612,-1.2533,-1.2515,-1.2563,-1.242,-1.2398,-1.2435,-1.2414,-1.2311,-1.2277,-1.2416,-1.2488,-1.2432,-1.2323,-1.2163,-1.2018,-1.2057,-1.2233,-1.2451,-1.2602,-1.2735,-1.294,-1.3121,-1.3302,-1.3441,-1.3658,-1.3767,-1.3851,-1.3984,-1.4081,-1.4177,-1.4201,-1.425,-1.4286,-1.425,-1.4202,-1.3962,-1.3781,-1.3636,-1.3491,-1.3201,-1.2905,-1.2905,-1.2807,-1.2807,-1.2807,-1.2807,-1.2856,-1.2953,-1.3238,-1.3811,-1.4478,-1.4997,-1.548,-1.6143,-1.6669,-1.7044,-1.7138,-1.7286,-1.7286,-1.7257,-1.7018,-1.6813,-1.671,-1.6561,-1.6247,-1.5878,-1.5438,-1.5184,-2.719,-2.719,-2.719,-2.719,-2.719,-2.719,-2.719,-2.719,-2.719,-2.719,-2.719,-2.7149,-2.6498,-2.5421,-2.4616,-2.3844,-2.2599,-2.1909,-2.1785,-2.1659,-2.1522,-2.1502,-2.1355,-2.1147,-2.1065,-2.1312,-2.1248,-2.1284,-2.157,-2.1437,-2.1446,-2.1482,-2.1329,-2.1419,-2.1419,-2.1499,-2.1246,-2.0887,-2.0452,-1.9992,-1.9519,-1.8866,-1.8037,-1.7212,-1.5471,-1.4534,-1.3682,-1.29,-1.2637,-1.2561,-1.2542,-1.2569,-1.2694,-1.2619,-1.2488,-1.2426,-1.2611,-1.2643,-1.2692,-1.2611,-1.2471,-1.2675,-1.2644,-1.2704,-1.2934,-1.3133,-1.3224,-1.3411,-1.3598,-1.3743,-1.3785,-1.3972,-1.4135,-1.4177,-1.4214,-1.428,-1.4298,-1.4298,-1.4298,-1.4298,-1.4202,-1.4106,-1.3865,-1.363,-1.3485,-1.3389,-1.305,-1.2807,-1.2807,-1.2807,-1.2807,-1.2905,-1.2905,-1.319,-1.3335,-1.3763,-1.4286,-1.4997,-1.5805,-1.6237,-1.6622,-1.6904,-1.7239,-1.7286,-1.7286,-1.7286,-1.7296,-1.7223,-1.7128,-1.6994,-1.6767,-1.6469,-1.6074,-1.5616,-1.5418,-2.719,-2.719,-2.719,-2.719,-2.719,-2.719,-2.719,-2.719,-2.719,-2.719,-2.719,-2.7149,-2.6498,-2.5505,-2.4787,-2.3714,-2.2677,-2.1998,-2.1868,-2.1778,-2.176,-2.1778,-2.1687,-2.147,-2.1316,-2.1588,-2.1424,-2.1353,-2.1626,-2.1401,-2.1257,-2.1114,-2.097,-2.1015,-2.1239,-2.1266,-2.1096,-2.0802,-2.0571,-2.0272,-1.986,-1.9471,-1.8768,-1.8204,-1.6842,-1.5882,-1.4993,-1.4166,-1.3791,-1.3561,-1.3377,-1.3082,-1.3121,-1.3082,-1.2906,-1.2917,-1.2964,-1.3043,-1.3111,-1.3088,-1.2979,-1.3115,-1.3143,-1.3296,-1.3471,-1.358,-1.361,-1.3646,-1.3857,-1.402,-1.402,-1.4177,-1.4256,-1.425,-1.4256,-1.4298,-1.4298,-1.4298,-1.4298,-1.4298,-1.4154,-1.4016,-1.3823,-1.3534,-1.3244,-1.3147,-1.3001,-1.2807,-1.2807,-1.2807,-1.2807,-1.2905,-1.3098,-1.3426,-1.3806,-1.4526,-1.5194,-1.552,-1.6237,-1.6662,-1.7044,-1.7239,-1.7286,-1.7286,-1.7286,-1.7286,-1.7257,-1.7267,-1.7282,-1.7257,-1.7005,-1.6654,-1.626,-1.5857,-1.5696,-2.719,-2.719,-2.719,-2.719,-2.719,-2.719,-2.719,-2.719,-2.719,-2.7138,-2.7056,-2.7067,-2.6155,-2.4925,-2.4413,-2.3507,-2.2397,-2.1911,-2.1852,-2.2026,-2.1898,-2.1971,-2.188,-2.169,-2.15,-2.1716,-2.1563,-2.1428,-2.1628,-2.1317,-2.1022,-2.0779,-2.0652,-2.06,-2.0997,-2.0997,-2.0898,-2.0718,-2.0692,-2.042,-2.0166,-1.9991,-1.9417,-1.8669,-1.8051,-1.7231,-1.637,-1.5074,-1.4881,-1.5425,-1.437,-1.4234,-1.4852,-1.4148,-1.3798,-1.3611,-1.3462,-1.3459,-1.3495,-1.3477,-1.3501,-1.3495,-1.3462,-1.3562,-1.3604,-1.3731,-1.3894,-1.3918,-1.4093,-1.4232,-1.4274,-1.428,-1.4292,-1.4298,-1.4298,-1.4298,-1.4298,-1.4298,-1.4298,-1.4208,-1.4022,-1.3877,-1.3684,-1.3443,-1.3104,-1.291,-1.2807,-1.2807,-1.2807,-1.2807,-1.2856,-1.319,-1.3431,-1.3998,-1.4519,-1.5432,-1.6055,-1.6386,-1.6622,-1.6998,-1.7185,-1.7286,-1.7286,-1.7286,-1.7286,-1.7286,-1.7286,-1.7279,-1.7286,-1.7286,-1.7113,-1.6835,-1.6426,-1.6109,-1.5913,-2.719,-2.719,-2.719,-2.719,-2.719,-2.719,-2.719,-2.719,-2.7149,-2.688,-2.6351,-2.6257,-2.5673,-2.4659,-2.3844,-2.3202,-2.2646,-2.1935,-2.1998,-2.2006,-2.1967,-2.2044,-2.2006,-2.1881,-2.17,-2.1824,-2.1691,-2.1618,-2.1943,-2.1452,-2.1156,-2.0965,-2.0574,-2.0527,-2.0744,-2.0781,-2.0736,-2.0645,-2.0546,-2.035,-2.0292,-2.0338,-2.0137,-1.9372,-1.8899,-1.8326,-1.7588,-1.6211,-1.5988,-1.6654,-1.5421,-1.5273,-1.5796,-1.5214,-1.4617,-1.4295,-1.4069,-1.3604,-1.3767,-1.3876,-1.3936,-1.3851,-1.3779,-1.3845,-1.4014,-1.4093,-1.4159,-1.4159,-1.422,-1.4298,-1.4298,-1.4292,-1.4298,-1.4298,-1.4298,-1.4298,-1.4298,-1.4298,-1.425,-1.407,-1.3931,-1.3636,-1.3394,-1.3298,-1.2958,-1.2861,-1.2807,-1.2807,-1.2807,-1.2856,-1.2953,-1.3426,-1.3854,-1.4519,-1.5235,-1.6001,-1.6527,-1.681,-1.6951,-1.7145,-1.7286,-1.7286,-1.7286,-1.7286,-1.7286,-1.7286,-1.7286,-1.7286,-1.7286,-1.7239,-1.7113,-1.6925,-1.6581,-1.6298,-1.6035,-2.719,-2.719,-2.719,-2.719,-2.719,-2.719,-2.719,-2.719,-2.719,-2.6839,-2.6351,-2.5997,-2.5326,-2.4445,-2.3584,-2.2846,-2.2666,-2.2199,-2.2136,-2.2142,-2.2286,-2.2451,-2.2403,-2.2184,-2.2298,-2.2241,-2.2048,-2.193,-2.2123,-2.166,-2.1313,-2.0983,-2.0709,-2.0592,-2.0596,-2.0564,-2.0555,-2.0464,-2.0374,-2.0329,-2.0348,-2.0376,-2.0397,-2.0037,-1.9667,-1.9181,-1.8556,-1.7623,-1.6712,-1.7071,-1.6795,-1.6344,-1.6615,-1.6126,-1.5452,-1.5002,-1.4438,-1.3981,-1.4051,-1.4147,-1.4147,-1.4057,-1.4045,-1.4123,-1.4262,-1.4262,-1.4268,-1.428,-1.4298,-1.4298,-1.4298,-1.4298,-1.4298,-1.4298,-1.4298,-1.4298,-1.4298,-1.425,-1.4112,-1.3931,-1.3642,-1.3346,-1.3152,-1.3001,-1.2807,-1.2807,-1.2807,-1.2807,-1.2807,-1.2856,-1.3147,-1.3715,-1.4286,-1.4956,-1.5615,-1.6372,-1.6857,-1.7239,-1.733,-1.7428,-1.7286,-1.7286,-1.7286,-1.7286,-1.7286,-1.7286,-1.7286,-1.7286,-1.7286,-1.7239,-1.7106,-1.6925,-1.6636,-1.64,-1.617,-2.719,-2.719,-2.719,-2.719,-2.719,-2.719,-2.719,-2.719,-2.719,-2.7138,-2.7015,-2.6008,-2.5115,-2.4327,-2.341,-2.2656,-2.2144,-2.1969,-2.2203,-2.2465,-2.2562,-2.2809,-2.2936,-2.2871,-2.2717,-2.2676,-2.2504,-2.2226,-2.2296,-2.1908,-2.1466,-2.1096,-2.0972,-2.0749,-2.056,-2.0503,-2.046,-2.0371,-2.0337,-2.0292,-2.0337,-2.0329,-2.0348,-2.018,-2.0073,-2.0028,-1.9545,-1.8902,-1.9034,-1.8959,-1.8333,-1.8264,-1.7864,-1.6908,-1.6257,-1.5582,-1.494,-1.4566,-1.4429,-1.4519,-1.4286,-1.4226,-1.425,-1.4292,-1.4292,-1.4298,-1.4298,-1.4298,-1.4298,-1.4298,-1.4298,-1.4298,-1.4298,-1.4298,-1.4298,-1.4298,-1.425,-1.416,-1.3979,-1.3738,-1.3346,-1.3104,-1.2953,-1.2807,-1.2862,-1.2807,-1.2807,-1.2807,-1.2807,-1.2807,-1.319,-1.41,-1.4717,-1.5384,-1.6062,-1.6826,-1.7127,-1.7468,-1.7582,-1.7611,-1.7486,-1.7381,-1.7417,-1.7425,-1.7323,-1.7286,-1.7286,-1.7286,-1.7239,-1.7153,-1.7019,-1.6871,-1.6636,-1.6494,-1.6305,-2.719,-2.719,-2.719,-2.719,-2.719,-2.719,-2.719,-2.719,-2.719,-2.688,-2.6174,-2.5253,-2.4488,-2.3444,-2.2501,-2.2105,-2.1988,-2.2004,-2.2148,-2.239,-2.2583,-2.2715,-2.2761,-2.2804,-2.2695,-2.266,-2.2574,-2.2471,-2.2427,-2.2134,-2.1724,-2.1319,-2.1268,-2.1037,-2.0831,-2.0749,-2.054,-2.0377,-2.0326,-2.0292,-2.0292,-2.0292,-2.0292,-2.0292,-2.0292,-2.0292,-2.0056,-1.9401,-1.95,-1.9774,-1.9026,-1.8888,-1.9592,-1.865,-1.7801,-1.6821,-1.6015,-1.5365,-1.5235,-1.4723,-1.4394,-1.4394,-1.4346,-1.4298,-1.4298,-1.4298,-1.4298,-1.4298,-1.4298,-1.4298,-1.4298,-1.4298,-1.4298,-1.4298,-1.4298,-1.4298,-1.4214,-1.4069,-1.3893,-1.3633,-1.328,-1.309,-1.2926,-1.291,-1.2943,-1.2856,-1.2829,-1.2862,-1.2862,-1.2829,-1.3445,-1.4358,-1.4998,-1.5669,-1.6566,-1.737,-1.7545,-1.7665,-1.7794,-1.7882,-1.7904,-1.7838,-1.7728,-1.7563,-1.7461,-1.7359,-1.7286,-1.7239,-1.7153,-1.7019,-1.6878,-1.673,-1.6581,-1.6447,-1.6305,-2.719,-2.719,-2.719,-2.719,-2.719,-2.719,-2.719,-2.719,-2.719,-2.6839,-2.6227,-2.5084,-2.4102,-2.3444,-2.2328,-2.168,-2.1877,-2.191,-2.2114,-2.2466,-2.2533,-2.2601,-2.2603,-2.2603,-2.2653,-2.2603,-2.2603,-2.2601,-2.2525,-2.2397,-2.2021,-2.1679,-2.1645,-2.1413,-2.1191,-2.1054,-2.0874,-2.0609,-2.0403,-2.0317,-2.0292,-2.0292,-2.0292,-2.0292,-2.0292,-2.0292,-2.0246,-1.9546,-1.982,-2.0201,-1.9546,-1.9637,-2.0102,-1.9301,-1.8319,-1.7336,-1.6774,-1.6405,-1.6271,-1.5466,-1.5051,-1.4771,-1.4538,-1.4346,-1.4298,-1.4298,-1.4298,-1.4298,-1.4298,-1.4298,-1.4298,-1.4298,-1.4298,-1.4298,-1.4298,-1.4298,-1.4208,-1.4031,-1.3826,-1.354,-1.3325,-1.3187,-1.3121,-1.3089,-1.3105,-1.3109,-1.313,-1.3191,-1.3132,-1.3017,-1.386,-1.4905,-1.5388,-1.596,-1.6919,-1.7816,-1.7925,-1.8021,-1.8064,-1.816,-1.8255,-1.8182,-1.7991,-1.7816,-1.76,-1.7498,-1.7388,-1.7174,-1.7019,-1.6885,-1.6737,-1.6588,-1.6447,-1.6312,-1.6123,-2.719,-2.7097,-2.7097,-2.7015,-2.7108,-2.7015,-2.7026,-2.7097,-2.7026,-2.7067,-2.6715,-2.5179,-2.4178,-2.3487,-2.2176,-2.1605,-2.1752,-2.1835,-2.2148,-2.256,-2.2568,-2.2603,-2.2603,-2.2603,-2.2603,-2.2603,-2.2603,-2.2603,-2.2603,-2.2508,-2.2345,-2.2055,-2.2038,-2.1841,-2.1525,-2.1465,-2.1268,-2.0942,-2.0668,-2.0506,-2.0335,-2.0292,-2.0292,-2.0292,-2.0292,-2.0292,-2.0292,-2.0246,-2.0292,-2.0292,-2.0292,-2.0246,-1.9965,-1.9583,-1.8603,-1.7994,-1.7662,-1.7436,-1.7156,-1.6499,-1.5893,-1.548,-1.4975,-1.466,-1.4558,-1.4467,-1.4431,-1.4467,-1.4491,-1.4564,-1.4588,-1.4588,-1.4582,-1.4582,-1.4588,-1.4588,-1.4514,-1.4283,-1.3968,-1.3702,-1.3483,-1.3342,-1.3297,-1.3265,-1.3249,-1.3378,-1.34,-1.3434,-1.3672,-1.3506,-1.4307,-1.5436,-1.598,-1.6536,-1.7443,-1.8174,-1.8277,-1.835,-1.8401,-1.8489,-1.8628,-1.8474,-1.8233,-1.8064,-1.7896,-1.7644,-1.7417,-1.7184,-1.6985,-1.6737,-1.6548,-1.64,-1.6258,-1.6177,-1.6028,-2.6974,-2.661,-2.6343,-2.6188,-2.6229,-2.6188,-2.624,-2.6199,-2.6188,-2.6385,-2.6238,-2.4681,-2.3651,-2.3347,-2.1882,-2.1349,-2.1695,-2.1783,-2.2129,-2.2438,-2.2603,-2.2603,-2.2603,-2.2603,-2.2603,-2.2603,-2.2603,-2.2603,-2.2603,-2.2585,-2.2577,-2.2465,-2.2422,-2.2167,-2.1876,-2.185,-2.1662,-2.1302,-2.1174,-2.0797,-2.0446,-2.0326,-2.0292,-2.0292,-2.0292,-2.0292,-2.0292,-2.0292,-2.0292,-2.0292,-2.0292,-2.0292,-2.0246,-2.0002,-1.982,-1.9492,-1.8796,-1.8573,-1.8234,-1.7596,-1.6812,-1.617,-1.5663,-1.524,-1.4906,-1.471,-1.4636,-1.4684,-1.4733,-1.4817,-1.4871,-1.4865,-1.4859,-1.4865,-1.4871,-1.4871,-1.4877,-1.4503,-1.4123,-1.3868,-1.365,-1.3564,-1.3575,-1.3513,-1.348,-1.347,-1.3464,-1.3629,-1.4327,-1.4543,-1.5047,-1.6004,-1.657,-1.7243,-1.8117,-1.8533,-1.8635,-1.8745,-1.8818,-1.8906,-1.8986,-1.8796,-1.8577,-1.835,-1.8152,-1.7928,-1.7645,-1.727,-1.6992,-1.6791,-1.6428,-1.6266,-1.6116,-1.6008,-1.5893,-2.6757,-2.6445,-2.6052,-2.5895,-2.5895,-2.5895,-2.5895,-2.5853,-2.5675,-2.5717,-2.5684,-2.4253,-2.3337,-2.3042,-2.1615,-2.1156,-2.154,-2.1635,-2.2048,-2.2455,-2.2603,-2.2603,-2.2603,-2.2603,-2.2603,-2.2603,-2.2603,-2.2603,-2.2603,-2.2603,-2.2594,-2.2603,-2.2585,-2.25,-2.2276,-2.2251,-2.2038,-2.1687,-2.1679,-2.1328,-2.078,-2.0651,-2.0437,-2.0386,-2.03,-2.03,-2.0292,-2.0292,-2.0292,-2.0292,-2.0292,-2.0292,-2.0292,-2.0238,-2.0246,-2.0102,-1.9791,-1.952,-1.9342,-1.8754,-1.7811,-1.7227,-1.6439,-1.6107,-1.5812,-1.5569,-1.4974,-1.501,-1.495,-1.501,-1.501,-1.501,-1.501,-1.501,-1.4984,-1.4996,-1.499,-1.4841,-1.455,-1.4262,-1.4132,-1.4032,-1.399,-1.389,-1.3863,-1.3863,-1.3809,-1.4225,-1.485,-1.5439,-1.6014,-1.6619,-1.7248,-1.7913,-1.8651,-1.8935,-1.8986,-1.9103,-1.9155,-1.9155,-1.9125,-1.906,-1.8928,-1.8672,-1.8474,-1.8293,-1.7965,-1.7541,-1.7288,-1.7121,-1.6601,-1.6107,-1.5999,-1.5939,-1.5885,-2.6362,-2.6279,-2.5884,-2.5696,-2.5728,-2.5728,-2.5686,-2.5644,-2.5285,-2.5115,-2.502,-2.393,-2.3357,-2.2536,-2.1482,-2.1296,-2.1264,-2.1466,-2.1933,-2.2422,-2.2594,-2.2603,-2.2603,-2.2603,-2.2603,-2.2603,-2.2603,-2.2603,-2.2603,-2.2603,-2.2603,-2.2603,-2.2603,-2.2594,-2.2603,-2.256,-2.2379,-2.2133,-2.2013,-2.1841,-2.149,-2.1148,-2.0831,-2.0574,-2.0394,-2.0369,-2.0369,-2.0309,-2.0309,-2.0292,-2.0292,-2.0292,-2.0292,-2.0292,-2.0394,-2.0357,-2.0371,-2.0449,-2.0551,-2.0071,-1.9255,-1.8495,-1.7626,-1.7111,-1.6914,-1.6329,-1.5768,-1.5614,-1.5552,-1.5279,-1.5279,-1.5285,-1.5285,-1.5234,-1.5212,-1.5237,-1.5213,-1.517,-1.4941,-1.4674,-1.4567,-1.4465,-1.4363,-1.4218,-1.4283,-1.424,-1.4509,-1.4982,-1.547,-1.6104,-1.6677,-1.7368,-1.8119,-1.8742,-1.9206,-1.9243,-1.9177,-1.9199,-1.922,-1.925,-1.9257,-1.9177,-1.9089,-1.8964,-1.8782,-1.8621,-1.8332,-1.7939,-1.7697,-1.7498,-1.7106,-1.6619,-1.6412,-1.6331,-1.6047,-2.5801,-2.5401,-2.4967,-2.4796,-2.4796,-2.4796,-2.4796,-2.4754,-2.4711,-2.4625,-2.4487,-2.3884,-2.3169,-2.2482,-2.1042,-2.0749,-2.1311,-2.1413,-2.1884,-2.25,-2.2585,-2.2603,-2.2603,-2.2603,-2.2603,-2.2603,-2.2603,-2.2603,-2.2603,-2.2603,-2.2603,-2.2603,-2.2603,-2.2603,-2.2603,-2.2577,-2.2542,-2.2422,-2.2347,-2.221,-2.1901,-2.1585,-2.1336,-2.1105,-2.0917,-2.0823,-2.0703,-2.0446,-2.0343,-2.0292,-2.0343,-2.0377,-2.0412,-2.0454,-2.0557,-2.0711,-2.0763,-2.0977,-2.0992,-2.0951,-2.033,-1.9628,-1.8902,-1.8614,-1.8143,-1.7416,-1.71,-1.7094,-1.6847,-1.607,-1.5971,-1.5919,-1.5866,-1.5709,-1.5674,-1.5674,-1.5635,-1.5506,-1.5358,-1.5083,-1.4809,-1.4702,-1.4541,-1.4546,-1.4659,-1.4719,-1.4874,-1.5405,-1.6305,-1.6836,-1.7312,-1.8055,-1.8848,-1.9063,-1.9257,-1.925,-1.9242,-1.9264,-1.9272,-1.9272,-1.9272,-1.9272,-1.9184,-1.9089,-1.9081,-1.8964,-1.8607,-1.8347,-1.8088,-1.7859,-1.7654,-1.7308,-1.7006,-1.6686,-1.6454]},{"header":{"parameterUnit":"m.s-1","parameterCategory":1,"la1":31.0,"la2":29.5877,"lo1":-88.7671,"lo2":-86.6584,"dy":0.0162,"dx":0.0185,"nx":115,"ny":88,"refTime":"2024-04-29T18:00:00:Z","depth":0,"parameterNumber":3,"parameterNumberName":"V-component_of_WINDS"},"data":[0.0,0.0,0.0,0.0,0.0,0.0,0.0,0.0,0.0,0.0,0.0,0.0,0.0,0.0,0.0,0.0,0.0,0.0,0.0,0.0,0.0,0.0,0.0,0.0,0.0,0.0,0.0,0.0,0.0,0.0,0.0,0.0,0.0,0.0,0.0,0.0,0.0,0.0,0.0,0.0,0.0,0.0,0.0,0.0,0.0,0.0,0.0,0.0,0.0,0.0,0.0,0.0,0.0,0.0,0.0,0.0,0.0,0.0,0.0,0.0,0.0,0.0,0.0,0.0,0.0,0.0,0.0,0.0,0.0,0.0,0.0,0.0,0.0,0.0,0.0,0.0,0.0,0.0,0.0,0.0,0.0,0.0,0.0,0.0,0.0,0.0,0.0,0.0,0.0,0.0,0.0,0.0,0.0,0.0,0.0,0.0,0.0,0.0,0.0,0.0,0.0,0.0,0.0,0.0,0.0,0.0,0.0,0.0,0.0,0.0,0.0,0.0,0.0,0.0,0.0,0.0,0.0,0.0,0.0,0.0,0.0,0.0,0.0,0.0,0.0,0.0,0.0,0.0,0.0,0.0,0.0,0.0,0.0,0.0,0.0,0.0,0.0,0.0,0.0,0.0,0.0,0.0,0.0,0.0,0.0,0.0,0.0,0.0,0.0,0.0,0.0,0.0,0.0,0.0,0.0,0.0,0.0,0.0,0.0,0.0,0.0,0.0,0.0,0.0,0.0,0.0,0.0,0.0,0.0,0.0,0.0,0.0,0.0,0.0,0.0,0.0,0.0,0.0,0.0,0.0,0.0,0.0,0.0,0.0,0.0,0.0,0.0,0.0,0.0,0.0,0.0,0.0,0.0,0.0,0.0,0.0,0.0,0.0,0.0,0.0,0.0,0.0,0.0,0.0,0.0,0.0,0.0,0.0,0.0,0.0,0.0,0.0,0.0,0.0,0.0,0.0,0.0,0.0,0.0,0.0,0.0,0.0,0.0,0.0,0.0,0.0,0.0,0.0,0.0,0.0,0.0,0.0,0.0,0.0,0.0,0.0,0.0,0.0,0.0,0.0,0.0,0.0,0.0,0.0,0.0,0.0,0.0,0.0,0.0,0.0,0.0,0.0,0.0,0.0,0.0,0.0,0.0,0.0,0.0,0.0,0.0,0.0,0.0,0.0,0.0,0.0,0.0,0.0,0.0,0.0,0.0,0.0,0.0,0.0,0.0,0.0,0.0,0.0,0.0,0.0,0.0,0.0,0.0,0.0,0.0,0.0,0.0,0.0,0.0,0.0,0.0,0.0,0.0,0.0,0.0,0.0,0.0,0.0,0.0,0.0,0.0,0.0,0.0,0.0,0.0,0.0,0.0,0.0,0.0,0.0,0.0,0.0,0.0,0.0,0.0,0.0,0.0,0.0,0.0,0.0,0.0,0.0,0.0,0.0,0.0,0.0,0.0,0.0,0.0,0.0,0.0,0.0,0.0,0.0,0.0,0.0,0.0,0.0,0.0,0.0,0.0,0.0,0.0,0.0,0.0,0.0,0.0,0.0,0.0,0.0,0.0,0.0,0.0,0.0,0.0,0.0,0.0,0.0,0.0,0.0,0.0,0.0,0.0,0.0,0.0,0.0,0.0,0.0,0.0,0.0,0.0,0.0,0.0,0.0,0.0,0.0,0.0,0.0,0.0,0.0,0.0,0.0,0.0,0.0,0.0,0.0,0.0,0.0,0.0,0.0,0.0,0.0,0.0,0.0,0.0,0.0,0.0,0.0,0.0,0.0,0.0,0.0,0.0,0.0,0.0,0.0,0.0,0.0,0.0,0.0,0.0,0.0,0.0,0.0,0.0,0.0,0.0,0.0,0.0,0.0,0.0,0.0,0.0,0.0,0.0,0.0,0.0,0.0,0.0,0.0,0.0,0.0,0.0,0.0,0.0,0.0,0.0,0.0,0.0,0.0,0.0,0.0,0.0,0.0,0.0,0.0,0.0,0.0,0.0,0.0,0.0,0.0,0.0,0.0,0.0,0.0,0.0,0.0,0.0,0.0,0.0,0.0,0.0,0.0,0.0,0.0,0.0,0.0,0.0,0.0,0.0,0.0,0.0,0.0,0.0,0.0,0.0,0.0,0.0,0.0,0.0,0.0,0.0,0.0,0.0,0.0,0.0,0.0,0.0,0.0,0.0,0.0,0.0,0.0,0.0,0.0,0.0,0.0,0.0,0.0,0.0,0.0,0.0,0.0,0.0,0.0,0.0,0.0,0.0,0.0,0.0,0.0,0.0,0.0,0.0,0.0,0.0,0.0,0.0,0.0,0.0,0.0,0.0,0.0,0.0,0.0,0.0,0.0,0.0,0.0,0.0,0.0,0.0,0.0,0.0,0.0,0.0,0.0,0.0,0.0,0.0,0.0,0.0,0.0,0.0,0.0,0.0,0.0,0.0,0.0,0.0,0.0,0.0,0.0,0.0,0.0,0.0,0.0,0.0,0.0,0.0,0.0,0.0,0.0,0.0,0.0,0.0,0.0,0.0,0.0,0.0,0.0,0.0,0.0,0.0,0.0,0.0,0.0,0.0,0.0,0.0,0.0,0.0,0.0,0.0,0.0,0.0,0.0,0.0,0.0,0.0,0.0,0.0,0.0,0.0,0.0,0.0,0.0,0.0,0.0,0.0,0.0,0.0,0.0,0.0,0.0,0.0,0.0,0.0,0.0,0.0,0.0,0.0,0.0,0.0,0.0,0.0,0.0,0.0,0.0,0.0,0.0,0.0,0.0,0.0,0.0,0.0,0.0,0.0,0.0,0.0,0.0,0.0,0.0,0.0,0.0,0.0,0.0,0.0,0.0,0.0,0.0,0.0,0.0,0.0,0.0,0.0,0.0,0.0,0.0,0.0,0.0,0.0,0.0,0.0,0.0,0.0,0.0,0.0,0.0,0.0,0.0,0.0,0.0,0.0,0.0,0.0,0.0,0.0,0.0,0.0,0.0,0.0,0.0,0.0,0.0,0.0,0.0,0.0,0.0,0.0,0.0,0.0,0.0,0.0,0.0,0.0,0.0,0.0,0.0,0.0,0.0,0.0,0.0,0.0,0.0,0.0,0.0,0.0,0.0,0.0,0.0,0.0,0.0,0.0,0.0,0.0,0.0,0.0,0.0,0.0,0.0,0.0,0.0,0.0,0.0,0.0,0.0,0.0,0.0,0.0,0.0,0.0,0.0,0.0,0.0,0.0,0.0,0.0,0.0,0.0,0.0,0.0,0.0,0.0,0.0,0.0,0.0,0.0,0.0,0.0,0.0,0.0,0.0,0.0,0.0,0.0,0.0,0.0,0.0,0.0,0.0,0.0,0.0,0.0,0.0,0.0,0.0,0.0,0.0,0.0,0.0,0.0,0.0,0.0,0.0,0.0,0.0,0.0,0.0,0.0,0.0,0.0,0.0,0.0,0.0,0.0,0.0,0.0,0.0,0.0,0.0,0.0,0.0,0.0,0.0,0.0,0.0,0.0,0.0,0.0,0.0,0.0,0.0,0.0,0.0,0.0,0.0,0.0,0.0,0.0,0.0,0.0,0.0,0.0,0.0,0.0,0.0,0.0,0.0,0.0,0.0,0.0,0.0,0.0,0.0,0.0,0.0,0.0,0.0,0.0,0.0,0.0,0.0,0.0,0.0,0.0,0.0,0.0,0.0,0.0,0.0,0.0,0.0,0.0,0.0,0.0,0.0,0.0,0.0,0.0,0.0,0.0,0.0,0.0,0.0,0.0,0.0,0.0,0.0,0.0,0.0,0.0,0.0,0.0,0.0,0.0,0.0,0.0,0.0,0.0,0.0,0.0,0.0,0.0,0.0,0.0,0.0,0.0,0.0,0.0,0.0,0.0,0.0,0.0,0.0,0.0,0.0,0.0,0.0,0.0,0.0,0.0,0.0,0.0,0.0,0.0,0.0,0.0,0.0,0.0,0.0,0.0,0.0,0.0,0.0,0.0,0.0,0.0,0.0,0.0,0.0,0.0,0.0,0.0,0.0,0.0,0.0,0.0,0.0,0.0,0.0,0.0,0.0,0.0,0.0,0.0,0.0,0.0,0.0,0.0,0.0,0.0,0.0,0.0,0.0,0.0,0.0,0.0,0.0,0.0,0.0,0.0,0.0,0.0,0.0,0.0,0.0,0.0,0.0,0.0,0.0,0.0,0.0,0.0,0.0,0.0,0.0,0.0,0.0,0.0,0.0,0.0,0.0,0.0,0.0,0.0,0.0,0.0,0.0,0.0,0.0,0.0,0.0,0.0,0.0,1.8896,0.0,0.0,0.0,0.0,0.0,0.0,0.0,0.0,0.0,0.0,0.0,0.0,0.0,0.0,0.0,0.0,0.0,0.0,0.0,0.0,0.0,0.0,0.0,0.0,0.0,0.0,0.0,0.0,0.0,0.0,0.0,0.0,0.0,0.0,0.0,0.0,0.0,0.0,0.0,0.0,0.0,0.0,0.0,0.0,0.0,0.0,0.0,0.0,0.0,0.0,0.0,0.0,0.0,0.0,0.0,0.0,0.0,0.0,0.0,0.0,0.0,0.0,0.0,0.0,0.0,0.0,0.0,0.0,0.0,0.0,0.0,0.0,0.0,0.0,0.0,0.0,0.0,0.0,0.0,0.0,0.0,0.0,0.0,0.0,0.0,0.0,0.0,0.0,0.0,0.0,0.0,0.0,0.0,0.0,0.0,0.0,0.0,0.0,0.0,0.0,0.0,0.0,0.0,0.0,0.0,0.0,0.0,0.0,0.0,0.0,1.9059,1.9194,1.9393,1.9352,1.9023,0.0,0.0,0.0,0.0,0.0,0.0,0.0,0.0,0.0,0.0,0.0,0.0,0.0,0.0,0.0,0.0,0.0,0.0,0.0,0.0,0.0,0.0,0.0,0.0,0.0,0.0,0.0,0.0,0.0,0.0,0.0,0.0,0.0,0.0,0.0,0.0,0.0,0.0,0.0,0.0,0.0,0.0,0.0,0.0,0.0,0.0,0.0,0.0,0.0,0.0,0.0,0.0,0.0,0.0,0.0,0.0,0.0,0.0,0.0,0.0,0.0,0.0,0.0,0.0,0.0,0.0,0.0,0.0,0.0,0.0,0.0,0.0,0.0,0.0,0.0,0.0,0.0,0.0,0.0,0.0,0.0,0.0,0.0,0.0,0.0,0.0,0.0,0.0,0.0,0.0,0.0,0.0,0.0,0.0,0.0,0.0,0.0,0.0,0.0,0.0,0.0,0.0,0.0,0.0,0.0,0.0,0.0,0.0,0.0,0.0,0.0,0.0,1.9475,1.9402,1.9243,0.0,0.0,0.0,0.0,0.0,0.0,0.0,0.0,0.0,0.0,0.0,0.0,0.0,0.0,0.0,0.0,0.0,0.0,0.0,0.0,0.0,0.0,0.0,0.0,0.0,0.0,0.0,0.0,0.0,0.0,0.0,0.0,0.0,0.0,0.0,0.0,0.0,0.0,0.0,0.0,0.0,0.0,0.0,0.0,0.0,0.0,0.0,0.0,0.0,0.0,0.0,0.0,0.0,0.0,0.0,0.0,0.0,0.0,0.0,0.0,0.0,0.0,0.0,0.0,0.0,0.0,0.0,0.0,0.0,0.0,0.0,0.0,0.0,0.0,0.0,0.0,0.0,0.0,0.0,0.0,0.0,0.0,0.0,0.0,0.0,0.0,0.0,0.0,0.0,0.0,0.0,0.0,0.0,0.0,0.0,0.0,0.0,0.0,0.0,0.0,0.0,0.0,0.0,0.0,0.0,0.0,0.0,0.0,0.0,0.0,1.9329,1.9243,1.9409,0.0,1.9289,0.0,0.0,0.0,0.0,0.0,0.0,0.0,0.0,0.0,0.0,0.0,0.0,0.0,0.0,0.0,0.0,0.0,0.0,0.0,0.0,0.0,0.0,0.0,0.0,0.0,0.0,0.0,0.0,0.0,0.0,0.0,0.0,0.0,0.0,0.0,0.0,0.0,0.0,0.0,0.0,0.0,0.0,0.0,0.0,0.0,0.0,0.0,0.0,0.0,0.0,0.0,0.0,0.0,0.0,0.0,0.0,0.0,0.0,0.0,0.0,0.0,0.0,0.0,0.0,0.0,0.0,0.0,0.0,0.0,0.0,0.0,0.0,0.0,0.0,0.0,0.0,0.0,0.0,0.0,0.0,0.0,0.0,0.0,0.0,0.0,0.0,0.0,0.0,0.0,0.0,0.0,0.0,0.0,0.0,0.0,0.0,0.0,0.0,0.0,0.0,0.0,0.0,0.0,0.0,0.0,0.0,0.0,0.0,0.0,0.0,1.9431,1.9387,1.9416,1.9439,0.0,0.0,0.0,0.0,0.0,0.0,0.0,0.0,0.0,0.0,0.0,0.0,0.0,0.0,0.0,0.0,0.0,0.0,0.0,0.0,0.0,0.0,0.0,0.0,0.0,0.0,0.0,0.0,0.0,0.0,0.0,0.0,0.0,0.0,0.0,0.0,0.0,0.0,0.0,0.0,0.0,0.0,0.0,0.0,0.0,0.0,0.0,0.0,0.0,0.0,0.0,0.0,0.0,0.0,0.0,0.0,0.0,0.0,0.0,0.0,0.0,0.0,0.0,0.0,0.0,0.0,0.0,0.0,0.0,0.0,0.0,0.0,0.0,0.0,0.0,0.0,0.0,0.0,0.0,0.0,0.0,0.0,0.0,0.0,0.0,0.0,0.0,0.0,0.0,0.0,0.0,0.0,0.0,0.0,0.0,0.0,0.0,0.0,0.0,0.0,0.0,0.0,0.0,0.0,0.0,0.0,0.0,0.0,0.0,0.0,1.956,1.952,1.9539,1.9508,1.9533,1.9604,0.0,0.0,0.0,0.0,0.0,0.0,0.0,0.0,0.0,0.0,0.0,0.0,0.0,0.0,0.0,0.0,0.0,0.0,0.0,0.0,0.0,0.0,0.0,0.0,0.0,0.0,0.0,0.0,0.0,0.0,0.0,0.0,0.0,0.0,0.0,0.0,0.0,0.0,0.0,0.0,0.0,0.0,0.0,0.0,0.0,0.0,0.0,0.0,0.0,0.0,0.0,0.0,0.0,0.0,0.0,0.0,0.0,0.0,0.0,0.0,0.0,0.0,0.0,0.0,0.0,0.0,0.0,0.0,0.0,0.0,0.0,0.0,0.0,0.0,0.0,0.0,0.0,0.0,0.0,0.0,0.0,0.0,0.0,0.0,0.0,0.0,0.0,0.0,0.0,0.0,0.0,0.0,0.0,0.0,0.0,0.0,0.0,0.0,0.0,0.0,0.0,0.0,0.0,0.0,0.0,0.0,0.0,0.0,1.9597,1.9587,1.9582,1.9608,1.966,1.9648,0.0,0.0,0.0,0.0,0.0,0.0,0.0,0.0,0.0,0.0,0.0,0.0,0.0,0.0,0.0,0.0,0.0,0.0,0.0,0.0,0.0,0.0,0.0,0.0,0.0,0.0,0.0,0.0,0.0,0.0,0.0,0.0,0.0,0.0,0.0,0.0,0.0,0.0,0.0,0.0,0.0,0.0,0.0,0.0,0.0,0.0,0.0,0.0,0.0,0.0,0.0,0.0,0.0,0.0,0.0,0.0,0.0,0.0,0.0,0.0,0.0,0.0,0.0,0.0,0.0,0.0,0.0,0.0,0.0,0.0,0.0,0.0,0.0,0.0,0.0,0.0,0.0,0.0,0.0,0.0,0.0,0.0,0.0,0.0,0.0,0.0,0.0,0.0,0.0,0.0,0.0,0.0,0.0,0.0,0.0,0.0,0.0,0.0,0.0,0.0,0.0,0.0,0.0,0.0,0.0,0.0,0.0,0.0,0.0,1.9668,1.9655,1.9686,1.9725,1.9707,1.9707,0.0,0.0,0.0,0.0,0.0,0.0,0.0,0.0,0.0,0.0,0.0,0.0,0.0,0.0,0.0,0.0,0.0,0.0,0.0,0.0,0.0,0.0,0.0,0.0,0.0,0.0,0.0,0.0,0.0,0.0,0.0,0.0,0.0,0.0,0.0,0.0,0.0,0.0,0.0,0.0,0.0,0.0,0.0,0.0,0.0,0.0,0.0,0.0,0.0,0.0,0.0,0.0,0.0,0.0,0.0,0.0,0.0,0.0,0.0,0.0,0.0,0.0,0.0,0.0,0.0,0.0,0.0,0.0,0.0,0.0,0.0,0.0,0.0,0.0,0.0,0.0,0.0,0.0,0.0,0.0,0.0,0.0,0.0,0.0,0.0,0.0,0.0,0.0,0.0,0.0,0.0,0.0,0.0,0.0,0.0,0.0,0.0,0.0,0.0,0.0,0.0,0.0,0.0,0.0,0.0,0.0,0.0,0.0,0.0,1.9738,0.0,1.9713,1.977,1.977,1.9763,0.0,0.0,0.0,0.0,0.0,0.0,0.0,0.0,0.0,0.0,0.0,0.0,0.0,0.0,0.0,0.0,0.0,0.0,0.0,0.0,0.0,0.0,0.0,0.0,0.0,0.0,0.0,0.0,0.0,0.0,0.0,0.0,0.0,0.0,0.0,0.0,0.0,0.0,0.0,0.0,0.0,0.0,0.0,0.0,0.0,0.0,0.0,0.0,0.0,0.0,0.0,0.0,0.0,0.0,0.0,0.0,0.0,0.0,0.0,0.0,0.0,0.0,0.0,0.0,0.0,0.0,0.0,0.0,0.0,0.0,0.0,0.0,0.0,0.0,0.0,0.0,0.0,0.0,0.0,0.0,0.0,0.0,0.0,0.0,0.0,0.0,0.0,0.0,0.0,0.0,0.0,0.0,0.0,0.0,0.0,0.0,0.0,0.0,0.0,0.0,0.0,0.0,0.0,0.0,0.0,0.0,0.0,0.0,1.9801,1.9801,1.9738,1.9713,1.9713,1.9824,1.9831,0.0,0.0,0.0,0.0,0.0,0.0,0.0,0.0,0.0,0.0,0.0,0.0,0.0,0.0,0.0,0.0,0.0,0.0,0.0,0.0,0.0,0.0,0.0,0.0,0.0,0.0,0.0,0.0,0.0,0.0,0.0,0.0,0.0,0.0,0.0,0.0,0.0,0.0,0.0,0.0,0.0,0.0,0.0,0.0,0.0,0.0,0.0,0.0,0.0,0.0,0.0,0.0,0.0,0.0,0.0,0.0,0.0,0.0,0.0,0.0,0.0,0.0,0.0,0.0,0.0,0.0,0.0,0.0,0.0,0.0,0.0,0.0,0.0,0.0,0.0,0.0,0.0,0.0,0.0,0.0,0.0,0.0,0.0,0.0,0.0,0.0,0.0,0.0,0.0,0.0,0.0,0.0,0.0,0.0,0.0,0.0,0.0,0.0,0.0,0.0,0.0,0.0,0.0,0.0,0.0,0.0,0.0,0.0,0.0,1.9855,1.9801,1.9795,1.9849,1.9879,1.989,0.0,0.0,0.0,0.0,0.0,0.0,0.0,0.0,0.0,0.0,0.0,0.0,0.0,0.0,0.0,0.0,0.0,0.0,0.0,0.0,0.0,0.0,0.0,0.0,0.0,0.0,0.0,0.0,0.0,0.0,0.0,0.0,0.0,0.0,0.0,0.0,0.0,0.0,0.0,0.0,0.0,0.0,0.0,0.0,0.0,0.0,0.0,0.0,0.0,0.0,0.0,0.0,0.0,0.0,0.0,0.0,0.0,0.0,0.0,0.0,0.0,0.0,0.0,0.0,0.0,0.0,0.0,0.0,0.0,0.0,0.0,0.0,0.0,0.0,0.0,0.0,0.0,0.0,0.0,0.0,0.0,0.0,0.0,0.0,0.0,0.0,0.0,0.0,0.0,0.0,0.0,0.0,0.0,0.0,0.0,0.0,0.0,0.0,0.0,0.0,0.0,0.0,0.0,0.0,0.0,0.0,0.0,0.0,0.0,1.9868,1.9826,1.9826,1.9868,1.9897,1.9896,1.9926,0.0,0.0,0.0,0.0,0.0,0.0,0.0,0.0,0.0,0.0,0.0,0.0,0.0,0.0,0.0,0.0,0.0,0.0,0.0,0.0,0.0,0.0,0.0,0.0,0.0,0.0,0.0,0.0,0.0,0.0,0.0,0.0,0.0,0.0,0.0,0.0,0.0,0.0,0.0,0.0,0.0,0.0,0.0,0.0,0.0,0.0,0.0,0.0,0.0,0.0,0.0,0.0,0.0,0.0,0.0,0.0,0.0,0.0,0.0,0.0,0.0,0.0,0.0,0.0,0.0,0.0,0.0,0.0,0.0,0.0,0.0,0.0,0.0,0.0,0.0,0.0,0.0,0.0,0.0,0.0,0.0,0.0,0.0,0.0,0.0,0.0,0.0,0.0,0.0,0.0,0.0,0.0,0.0,0.0,0.0,0.0,0.0,0.0,0.0,0.0,0.0,0.0,0.0,0.0,0.0,0.0,0.0,0.0,1.9801,1.9801,1.9801,1.9801,1.9874,1.988,0.0,0.0,0.0,0.0,0.0,0.0,0.0,0.0,0.0,0.0,0.0,0.0,0.0,0.0,0.0,0.0,0.0,0.0,0.0,0.0,0.0,0.0,0.0,0.0,0.0,0.0,0.0,0.0,0.0,0.0,0.0,0.0,0.0,0.0,0.0,0.0,0.0,0.0,0.0,0.0,0.0,0.0,0.0,0.0,0.0,0.0,0.0,0.0,0.0,0.0,0.0,0.0,0.0,0.0,0.0,0.0,0.0,0.0,0.0,0.0,0.0,0.0,0.0,0.0,0.0,0.0,0.0,0.0,0.0,0.0,0.0,0.0,0.0,0.0,0.0,0.0,0.0,0.0,0.0,0.0,0.0,0.0,0.0,0.0,0.0,0.0,0.0,0.0,0.0,0.0,0.0,0.0,0.0,0.0,0.0,0.0,0.0,0.0,0.0,0.0,0.0,0.0,0.0,0.0,0.0,0.0,0.0,0.0,0.0,1.9807,1.9801,1.9801,1.9801,1.9874,1.9903,0.0,0.0,0.0,0.0,0.0,0.0,0.0,0.0,0.0,0.0,0.0,0.0,0.0,0.0,0.0,0.0,0.0,0.0,0.0,0.0,0.0,0.0,0.0,0.0,0.0,0.0,0.0,0.0,0.0,0.0,0.0,0.0,0.0,0.0,0.0,0.0,0.0,0.0,0.0,0.0,0.0,0.0,0.0,0.0,0.0,0.0,0.0,0.0,0.0,0.0,0.0,0.0,0.0,0.0,0.0,0.0,0.0,0.0,0.0,0.0,0.0,0.0,0.0,0.0,0.0,0.0,0.0,0.0,0.0,0.0,0.0,0.0,0.0,0.0,0.0,0.0,0.0,0.0,0.0,0.0,0.0,0.0,0.0,0.0,0.0,0.0,0.0,0.0,0.0,0.0,0.0,0.0,0.0,0.0,0.0,0.0,0.0,0.0,0.0,0.0,0.0,0.0,0.0,0.0,0.0,0.0,0.0,0.0,1.9961,1.9807,1.9801,1.9776,1.9751,1.9794,1.9812,0.0,0.0,0.0,0.0,0.0,0.0,0.0,0.0,0.0,0.0,0.0,0.0,0.0,0.0,0.0,0.0,0.0,0.0,0.0,0.0,0.0,0.0,0.0,0.0,0.0,0.0,0.0,0.0,0.0,0.0,0.0,0.0,0.0,0.0,0.0,0.0,0.0,0.0,0.0,0.0,0.0,0.0,0.0,0.0,0.0,0.0,0.0,0.0,0.0,0.0,0.0,0.0,0.0,0.0,0.0,0.0,0.0,0.0,0.0,0.0,0.0,0.0,0.0,0.0,0.0,0.0,0.0,0.0,0.0,0.0,0.0,0.0,0.0,0.0,0.0,0.0,0.0,0.0,0.0,0.0,0.0,0.0,0.0,0.0,0.0,0.0,0.0,0.0,0.0,0.0,0.0,0.0,0.0,0.0,0.0,0.0,0.0,0.0,0.0,0.0,0.0,0.0,0.0,0.0,0.0,0.0,0.0,0.0,1.9998,1.9807,1.9801,1.9745,1.9682,1.9688,1.9713,0.0,0.0,0.0,0.0,0.0,0.0,0.0,0.0,0.0,0.0,0.0,0.0,0.0,0.0,0.0,0.0,0.0,0.0,0.0,0.0,0.0,0.0,0.0,0.0,0.0,0.0,0.0,0.0,0.0,0.0,0.0,0.0,0.0,0.0,0.0,0.0,0.0,0.0,0.0,0.0,0.0,0.0,0.0,0.0,0.0,0.0,0.0,0.0,0.0,0.0,0.0,0.0,0.0,0.0,0.0,0.0,0.0,0.0,0.0,0.0,0.0,0.0,0.0,0.0,0.0,0.0,0.0,0.0,0.0,0.0,0.0,0.0,0.0,0.0,0.0,0.0,0.0,0.0,0.0,0.0,0.0,0.0,0.0,0.0,0.0,0.0,0.0,0.0,0.0,0.0,0.0,0.0,0.0,0.0,0.0,0.0,0.0,0.0,0.0,0.0,0.0,0.0,0.0,0.0,0.0,0.0,0.0,0.0,1.9934,1.9726,1.972,1.9682,1.9616,1.9675,1.9713,0.0,0.0,0.0,0.0,0.0,0.0,0.0,0.0,0.0,0.0,0.0,0.0,0.0,0.0,0.0,0.0,0.0,0.0,0.0,0.0,0.0,0.0,0.0,0.0,0.0,0.0,0.0,0.0,0.0,0.0,0.0,0.0,0.0,0.0,0.0,0.0,0.0,0.0,0.0,0.0,0.0,0.0,0.0,0.0,0.0,0.0,0.0,0.0,2.5699,0.0,0.0,0.0,0.0,0.0,0.0,0.0,0.0,0.0,0.0,0.0,0.0,0.0,0.0,0.0,0.0,0.0,0.0,0.0,0.0,0.0,0.0,0.0,0.0,0.0,0.0,0.0,0.0,0.0,0.0,0.0,0.0,0.0,0.0,0.0,0.0,0.0,0.0,0.0,0.0,0.0,0.0,0.0,0.0,0.0,0.0,0.0,0.0,0.0,0.0,0.0,0.0,0.0,0.0,0.0,0.0,0.0,0.0,0.0,1.9918,1.972,1.9713,1.9675,1.9596,1.9617,1.9676,0.0,0.0,0.0,0.0,0.0,0.0,0.0,0.0,0.0,0.0,0.0,0.0,0.0,0.0,0.0,0.0,0.0,0.0,0.0,0.0,0.0,0.0,0.0,0.0,0.0,0.0,0.0,0.0,0.0,0.0,0.0,0.0,0.0,0.0,0.0,0.0,0.0,0.0,0.0,0.0,0.0,0.0,0.0,0.0,0.0,0.0,0.0,0.0,0.0,0.0,0.0,0.0,0.0,0.0,0.0,0.0,0.0,0.0,0.0,0.0,0.0,0.0,0.0,0.0,0.0,0.0,0.0,0.0,0.0,0.0,0.0,0.0,0.0,0.0,0.0,0.0,0.0,0.0,0.0,0.0,0.0,0.0,0.0,0.0,0.0,0.0,0.0,0.0,0.0,0.0,0.0,0.0,0.0,0.0,0.0,0.0,0.0,0.0,0.0,0.0,0.0,0.0,0.0,0.0,0.0,0.0,0.0,2.026,2.021,2.0095,2.0082,2.0056,1.9975,1.9857,1.985,1.9992,0.0,0.0,0.0,0.0,0.0,0.0,0.0,0.0,0.0,0.0,0.0,0.0,0.0,0.0,0.0,0.0,0.0,0.0,0.0,0.0,0.0,0.0,0.0,0.0,0.0,0.0,0.0,0.0,0.0,0.0,0.0,0.0,0.0,0.0,0.0,0.0,0.0,0.0,2.5518,2.5522,0.0,0.0,0.0,0.0,0.0,0.0,0.0,0.0,2.5702,0.0,0.0,0.0,0.0,0.0,0.0,0.0,0.0,0.0,0.0,0.0,0.0,0.0,0.0,0.0,0.0,0.0,0.0,0.0,0.0,0.0,0.0,0.0,0.0,0.0,0.0,0.0,0.0,0.0,0.0,0.0,0.0,0.0,0.0,0.0,0.0,0.0,0.0,0.0,0.0,0.0,0.0,0.0,0.0,0.0,0.0,0.0,0.0,0.0,0.0,0.0,0.0,0.0,0.0,0.0,0.0,2.1105,2.1034,2.1285,2.1779,2.1791,2.1758,2.1692,2.1047,2.0749,2.084,0.0,0.0,0.0,0.0,0.0,0.0,0.0,0.0,0.0,0.0,0.0,0.0,0.0,0.0,0.0,0.0,0.0,0.0,0.0,0.0,0.0,0.0,0.0,0.0,0.0,0.0,0.0,0.0,0.0,0.0,0.0,0.0,0.0,0.0,0.0,0.0,0.0,0.0,0.0,2.5576,2.5617,0.0,0.0,0.0,0.0,0.0,0.0,0.0,0.0,2.5692,0.0,0.0,0.0,0.0,0.0,0.0,0.0,0.0,0.0,0.0,0.0,0.0,0.0,0.0,0.0,0.0,0.0,0.0,0.0,0.0,0.0,0.0,0.0,0.0,0.0,0.0,0.0,0.0,0.0,0.0,0.0,0.0,0.0,0.0,0.0,0.0,0.0,0.0,0.0,0.0,0.0,0.0,0.0,0.0,0.0,0.0,0.0,0.0,0.0,0.0,0.0,0.0,0.0,0.0,0.0,2.1913,2.1956,2.2022,2.2199,2.2162,2.2122,2.2081,2.173,2.1592,0.0,0.0,0.0,0.0,0.0,0.0,0.0,0.0,0.0,0.0,0.0,0.0,0.0,0.0,0.0,0.0,0.0,0.0,0.0,0.0,0.0,0.0,0.0,0.0,0.0,0.0,0.0,0.0,0.0,0.0,0.0,0.0,0.0,0.0,0.0,0.0,0.0,0.0,0.0,0.0,2.561,2.56,2.5633,0.0,0.0,0.0,0.0,0.0,0.0,2.5034,2.5192,0.0,0.0,0.0,0.0,0.0,0.0,0.0,0.0,0.0,0.0,0.0,0.0,0.0,0.0,0.0,0.0,0.0,0.0,0.0,0.0,0.0,0.0,0.0,0.0,0.0,0.0,0.0,0.0,0.0,0.0,0.0,0.0,0.0,0.0,0.0,0.0,0.0,0.0,0.0,0.0,0.0,0.0,0.0,0.0,0.0,0.0,0.0,0.0,0.0,0.0,0.0,0.0,0.0,0.0,0.0,2.2805,2.2833,2.2767,2.269,2.2626,2.2604,2.2588,2.245,2.2394,0.0,0.0,0.0,0.0,0.0,0.0,0.0,0.0,0.0,0.0,0.0,0.0,0.0,0.0,0.0,0.0,0.0,0.0,0.0,0.0,0.0,0.0,0.0,0.0,0.0,0.0,0.0,0.0,0.0,0.0,0.0,0.0,0.0,0.0,0.0,0.0,0.0,0.0,0.0,0.0,0.0,2.5288,2.5116,2.4562,0.0,0.0,0.0,0.0,2.402,2.414,0.0,0.0,0.0,0.0,0.0,0.0,0.0,0.0,0.0,0.0,0.0,0.0,0.0,0.0,0.0,0.0,0.0,0.0,0.0,0.0,0.0,0.0,0.0,0.0,0.0,0.0,0.0,0.0,0.0,0.0,0.0,0.0,0.0,0.0,0.0,0.0,0.0,0.0,0.0,0.0,0.0,0.0,0.0,0.0,0.0,0.0,0.0,0.0,0.0,0.0,0.0,0.0,0.0,0.0,0.0,0.0,2.3614,2.3544,2.375,2.4305,2.4308,2.4318,2.43,2.3577,2.3182,0.0,0.0,0.0,0.0,0.0,0.0,0.0,0.0,0.0,0.0,0.0,0.0,0.0,0.0,0.0,0.0,0.0,0.0,0.0,0.0,0.0,0.0,0.0,0.0,0.0,0.0,0.0,0.0,0.0,0.0,0.0,0.0,0.0,0.0,0.0,0.0,0.0,0.0,0.0,0.0,0.0,2.4262,2.3494,2.3312,2.3217,0.0,0.0,2.3123,2.3168,2.3213,0.0,0.0,0.0,0.0,0.0,0.0,0.0,0.0,0.0,0.0,0.0,0.0,0.0,0.0,0.0,0.0,0.0,0.0,0.0,0.0,0.0,0.0,0.0,0.0,0.0,0.0,0.0,0.0,0.0,0.0,0.0,0.0,0.0,0.0,0.0,0.0,0.0,0.0,0.0,0.0,0.0,0.0,0.0,0.0,0.0,0.0,0.0,0.0,0.0,0.0,0.0,0.0,0.0,0.0,0.0,2.3764,2.444,2.4306,2.4362,2.4588,2.4564,2.4547,2.4547,2.4195,2.402,0.0,0.0,0.0,0.0,0.0,0.0,0.0,0.0,0.0,0.0,0.0,0.0,0.0,0.0,0.0,0.0,0.0,0.0,0.0,0.0,0.0,0.0,0.0,0.0,0.0,0.0,0.0,0.0,0.0,0.0,0.0,0.0,0.0,0.0,0.0,0.0,0.0,0.0,0.0,0.0,0.0,0.0,2.316,2.2637,0.0,0.0,0.0,2.174,2.2196,0.0,0.0,0.0,0.0,0.0,0.0,0.0,0.0,0.0,0.0,0.0,0.0,0.0,0.0,0.0,0.0,0.0,0.0,0.0,0.0,0.0,0.0,0.0,0.0,0.0,0.0,0.0,0.0,0.0,0.0,0.0,0.0,0.0,0.0,0.0,0.0,0.0,0.0,0.0,0.0,0.0,0.0,0.0,0.0,0.0,0.0,0.0,0.0,0.0,0.0,0.0,0.0,0.0,0.0,0.0,0.0,0.0,2.4961,2.4766,2.4634,2.4564,2.4541,2.4505,2.4505,2.4505,0.0,0.0,0.0,0.0,0.0,0.0,0.0,0.0,0.0,0.0,0.0,0.0,0.0,0.0,0.0,0.0,0.0,0.0,0.0,0.0,0.0,0.0,0.0,0.0,0.0,0.0,0.0,2.5467,0.0,0.0,0.0,0.0,0.0,0.0,0.0,0.0,0.0,0.0,0.0,0.0,0.0,0.0,2.3359,2.2466,2.1838,2.1425,0.0,0.0,2.0933,2.157,2.1856,2.2263,0.0,0.0,0.0,0.0,0.0,0.0,0.0,0.0,0.0,0.0,0.0,0.0,0.0,0.0,0.0,0.0,0.0,0.0,0.0,0.0,0.0,0.0,0.0,0.0,0.0,0.0,0.0,0.0,0.0,0.0,0.0,0.0,0.0,0.0,0.0,0.0,0.0,0.0,0.0,0.0,0.0,0.0,0.0,0.0,0.0,0.0,0.0,0.0,0.0,0.0,0.0,0.0,0.0,0.0,0.0,2.4891,2.4651,2.4522,2.4508,2.4508,2.45,2.45,2.4508,2.4507,0.0,0.0,0.0,0.0,0.0,0.0,0.0,0.0,0.0,0.0,0.0,0.0,0.0,0.0,0.0,0.0,0.0,0.0,0.0,0.0,0.0,0.0,0.0,0.0,0.0,0.0,0.0,0.0,0.0,0.0,0.0,0.0,0.0,0.0,0.0,0.0,0.0,0.0,0.0,0.0,0.0,2.163,2.0696,2.0533,2.048,0.0,0.0,2.154,2.1606,2.2282,2.2868,2.3001,0.0,0.0,0.0,0.0,0.0,0.0,0.0,0.0,0.0,0.0,0.0,0.0,0.0,0.0,0.0,0.0,0.0,0.0,0.0,0.0,0.0,0.0,0.0,0.0,0.0,0.0,0.0,0.0,0.0,0.0,0.0,0.0,0.0,0.0,0.0,0.0,0.0,0.0,0.0,0.0,0.0,0.0,0.0,0.0,0.0,0.0,0.0,0.0,0.0,0.0,0.0,0.0,0.0,2.4806,2.4766,2.4602,2.4472,2.4447,2.4438,2.4438,2.4438,2.4438,2.4446,0.0,0.0,0.0,0.0,0.0,0.0,0.0,0.0,0.0,0.0,0.0,0.0,0.0,0.0,0.0,0.0,0.0,0.0,0.0,0.0,0.0,0.0,0.0,0.0,0.0,0.0,0.0,0.0,2.5371,2.5703,2.5703,0.0,0.0,0.0,0.0,0.0,0.0,0.0,0.0,0.0,0.0,2.1556,2.1188,2.1152,0.0,0.0,2.2121,2.2339,2.2345,2.2685,2.2987,2.2983,2.3041,0.0,0.0,0.0,0.0,0.0,0.0,0.0,0.0,0.0,0.0,0.0,0.0,0.0,0.0,0.0,0.0,0.0,0.0,0.0,0.0,0.0,0.0,0.0,0.0,0.0,0.0,0.0,0.0,0.0,0.0,0.0,0.0,0.0,0.0,0.0,0.0,0.0,0.0,0.0,0.0,0.0,0.0,0.0,0.0,0.0,0.0,0.0,0.0,0.0,0.0,0.0,0.0,2.4682,2.4682,2.4564,2.4482,2.4448,2.443,2.443,2.4448,2.443,2.4447,0.0,0.0,0.0,0.0,0.0,0.0,0.0,0.0,0.0,0.0,0.0,0.0,0.0,0.0,0.0,0.0,0.0,0.0,0.0,0.0,0.0,0.0,0.0,0.0,0.0,0.0,0.0,0.0,2.5192,2.5603,2.5332,0.0,0.0,0.0,0.0,0.0,0.0,0.0,0.0,0.0,0.0,2.1945,2.1932,2.1929,2.2158,2.2716,2.3033,2.3211,2.3225,2.348,2.3705,2.3722,0.0,0.0,0.0,0.0,0.0,0.0,0.0,0.0,0.0,0.0,0.0,0.0,0.0,0.0,0.0,0.0,0.0,0.0,0.0,0.0,0.0,0.0,0.0,0.0,0.0,0.0,0.0,0.0,0.0,0.0,2.4839,0.0,0.0,0.0,0.0,0.0,0.0,0.0,0.0,0.0,0.0,0.0,0.0,0.0,0.0,0.0,0.0,0.0,0.0,0.0,0.0,0.0,0.0,2.4681,2.47,2.4557,2.45,2.4491,2.45,2.45,2.4491,2.4491,2.45,2.45,0.0,0.0,0.0,0.0,0.0,0.0,0.0,0.0,0.0,0.0,0.0,0.0,0.0,0.0,0.0,0.0,0.0,0.0,0.0,0.0,0.0,0.0,0.0,0.0,0.0,0.0,2.4273,2.5173,2.5329,0.0,0.0,0.0,0.0,0.0,0.0,0.0,0.0,0.0,0.0,2.2228,2.2736,2.2695,2.2731,2.2801,2.284,2.3605,2.4173,2.4165,2.4761,2.5283,0.0,0.0,0.0,0.0,0.0,0.0,0.0,0.0,0.0,0.0,0.0,0.0,0.0,0.0,0.0,0.0,0.0,0.0,0.0,0.0,0.0,0.0,0.0,0.0,0.0,0.0,0.0,2.4745,2.4726,0.0,0.0,0.0,0.0,0.0,0.0,0.0,0.0,0.0,0.0,0.0,2.4737,2.464,0.0,0.0,0.0,0.0,0.0,0.0,0.0,0.0,0.0,0.0,0.0,0.0,2.4436,2.4436,2.4384,2.4358,2.4303,2.4303,2.4303,2.4284,2.4284,2.433,2.443,0.0,0.0,0.0,0.0,0.0,0.0,0.0,0.0,0.0,0.0,0.0,0.0,0.0,0.0,0.0,0.0,0.0,0.0,0.0,0.0,0.0,0.0,0.0,0.0,0.0,2.2586,0.0,0.0,0.0,0.0,0.0,0.0,0.0,0.0,0.0,0.0,0.0,2.2714,2.2346,2.2547,2.2911,2.337,2.349,2.3732,0.0,0.0,0.0,0.0,0.0,0.0,0.0,0.0,0.0,0.0,0.0,0.0,0.0,0.0,2.4624,2.4997,2.5093,2.5187,2.548,0.0,0.0,0.0,0.0,0.0,0.0,0.0,0.0,0.0,0.0,0.0,0.0,0.0,0.0,2.4456,0.0,2.4456,0.0,0.0,0.0,0.0,0.0,0.0,0.0,0.0,2.4391,2.44,2.4483,2.4391,2.4408,0.0,2.4567,2.4599,0.0,0.0,0.0,0.0,0.0,0.0,0.0,0.0,2.4294,2.4294,2.4294,2.4275,2.4229,2.4229,2.4229,2.4229,2.4229,2.4275,2.4358,2.4653,2.4828,0.0,0.0,0.0,0.0,0.0,0.0,0.0,0.0,0.0,0.0,0.0,0.0,0.0,0.0,0.0,0.0,0.0,0.0,0.0,0.0,0.0,0.0,0.0,2.3026,0.0,0.0,0.0,0.0,0.0,0.0,0.0,0.0,0.0,2.3011,2.3044,2.3131,2.3084,2.3345,2.3728,2.4221,0.0,0.0,0.0,0.0,0.0,0.0,0.0,2.5263,2.5263,2.5356,2.5397,2.5444,2.5383,2.5335,2.5364,0.0,0.0,2.5424,2.5462,2.5446,2.5465,2.546,2.5477,2.5457,2.5425,2.5388,0.0,0.0,0.0,0.0,0.0,0.0,0.0,0.0,2.3996,2.4006,0.0,2.4016,0.0,0.0,0.0,0.0,0.0,2.4113,0.0,0.0,2.4016,2.4044,2.4103,2.4103,2.4133,2.4208,2.4209,2.4209,2.4228,2.4591,0.0,0.0,0.0,0.0,0.0,0.0,2.4284,2.4284,2.4284,2.4284,2.4284,2.4284,2.4284,2.4284,2.4284,2.4284,2.4331,2.5079,2.5569,2.5606,2.6376,0.0,0.0,0.0,0.0,0.0,0.0,0.0,0.0,0.0,0.0,0.0,0.0,0.0,0.0,0.0,0.0,0.0,0.0,0.0,0.0,2.3757,0.0,0.0,0.0,0.0,0.0,0.0,0.0,0.0,0.0,0.0,2.3002,2.3463,2.3828,2.3857,0.0,0.0,0.0,0.0,2.5264,2.5283,2.5283,2.5296,2.533,2.5288,2.5264,2.5302,0.0,0.0,2.5407,2.536,2.5369,2.5384,2.5418,2.5304,2.5418,2.5423,2.5391,2.5391,2.5395,2.5383,2.5379,2.5297,2.5219,2.3387,0.0,0.0,0.0,0.0,2.3459,2.3533,2.3649,2.3631,2.3746,2.3917,2.3927,0.0,0.0,0.0,0.0,0.0,0.0,2.4016,2.4006,2.4046,2.4084,2.4112,2.4151,2.418,2.4199,2.4199,2.4199,2.4199,2.4303,2.433,2.4303,0.0,0.0,0.0,0.0,2.4237,2.4228,2.4228,2.4228,2.4237,2.4228,2.4228,2.4237,2.4237,2.4228,2.4229,2.4515,2.494,2.5504,2.5848,0.0,0.0,0.0,0.0,0.0,0.0,0.0,0.0,0.0,0.0,0.0,0.0,0.0,0.0,0.0,0.0,0.0,0.0,0.0,2.3009,2.3143,2.334,0.0,0.0,0.0,0.0,0.0,0.0,0.0,0.0,0.0,2.4324,2.446,2.4607,0.0,0.0,2.498,2.5044,2.5037,2.5018,2.5018,2.5005,0.0,2.5857,2.5932,2.6135,2.674,2.6924,2.701,2.7072,2.7056,2.7064,2.7078,2.7056,2.7058,2.6998,2.6065,2.5332,2.525,2.5264,2.5259,2.5259,2.5224,2.5225,2.3783,2.3275,2.3198,2.3171,2.3153,2.3165,2.323,2.3329,2.3347,2.3439,2.3591,2.3591,2.3602,2.3635,2.3657,0.0,0.0,0.0,2.3639,2.3653,2.38,2.3873,2.3876,2.4016,2.4103,2.4142,2.4064,2.4016,2.4036,2.4054,2.4054,2.4036,0.0,0.0,2.4199,2.4199,2.4199,2.4199,2.4199,2.4199,2.4199,2.4199,2.4199,2.4199,2.4199,2.4209,2.4209,2.456,2.4984,2.5493,2.6197,2.6672,0.0,0.0,0.0,0.0,0.0,0.0,0.0,0.0,0.0,0.0,0.0,2.3818,2.3809,0.0,0.0,0.0,2.3745,2.3818,2.3864,2.3752,0.0,0.0,0.0,0.0,0.0,0.0,0.0,2.5098,2.4962,2.4818,2.4778,2.4763,2.4823,2.4921,2.49,2.4881,2.4955,0.0,2.5425,2.5425,2.5699,2.6119,2.6643,2.6759,2.6972,2.7489,2.7625,2.7695,2.7733,2.7758,2.7764,2.7764,2.7764,2.7764,2.7764,2.6877,2.62,2.6222,2.6217,2.6205,2.6186,2.6194,2.6182,2.4746,2.3553,2.3376,2.3197,2.3033,2.3033,2.3056,2.3054,2.3054,2.3084,2.3109,2.3109,2.3109,2.3091,2.3105,0.0,2.3147,2.3147,2.3165,2.3164,2.3417,2.3524,2.3544,2.3795,2.3986,2.4084,2.3837,2.3753,2.3816,2.3834,2.3816,2.3827,2.4074,2.4199,2.4199,2.4199,2.4199,2.4199,2.4199,2.4199,2.4199,2.4199,2.4199,2.4199,2.4199,2.4199,2.4218,2.4925,2.5368,2.5536,2.6917,2.7398,2.6786,0.0,0.0,0.0,0.0,0.0,0.0,0.0,0.0,0.0,0.0,0.0,0.0,0.0,0.0,0.0,2.4974,0.0,2.5175,2.5088,0.0,0.0,0.0,2.5075,2.5255,2.5061,2.4955,2.5062,0.0,0.0,2.4615,2.4607,2.4663,2.4859,2.4817,2.4834,2.4964,2.5677,2.6199,2.6242,2.6913,2.7457,2.7531,2.7747,2.7928,2.7999,2.7879,2.7975,2.8001,2.7988,2.7931,2.7994,2.7924,2.795,2.7924,2.7956,2.7912,2.7968,2.7783,2.7657,2.7599,2.7568,2.7555,2.4881,2.5067,2.5035,2.4052,2.2497,2.2511,2.2602,2.2786,2.2799,2.2927,2.3109,2.3109,2.3109,2.3109,2.3103,2.3224,2.3399,2.3399,2.3491,2.3628,2.3761,2.3795,2.3806,2.3927,2.3996,2.4016,2.3966,2.3937,2.3947,2.4006,2.4026,2.4044,2.4123,2.4199,2.4199,2.4199,2.4199,2.4199,2.4199,2.4199,2.4199,2.4199,2.4199,2.4199,2.4199,2.4199,2.4199,2.4393,2.4771,2.5394,2.585,2.6229,2.6618,2.6955,0.0,0.0,0.0,0.0,0.0,0.0,0.0,0.0,0.0,2.5152,2.5212,0.0,2.5231,0.0,2.4738,2.4832,2.5171,2.5091,0.0,0.0,2.5244,2.5194,2.4955,2.4961,2.4896,2.4723,2.4679,2.4631,2.4666,2.4674,2.4942,2.5576,2.5147,2.4971,2.5693,2.5929,2.6274,2.6857,2.7175,2.7495,2.8142,2.8833,2.9282,2.9376,2.9425,2.9534,2.9534,2.9558,2.9598,2.9549,2.9577,2.9612,2.9574,2.9593,2.958,2.9537,2.8612,2.7708,2.7708,2.772,2.772,2.6133,2.5609,2.5609,2.4695,2.3291,2.363,2.3854,2.3967,2.3656,2.3584,2.3715,2.3732,2.3732,2.3715,2.3732,2.3813,2.3946,2.3942,2.3828,2.3633,2.3779,2.3685,2.3376,2.3524,2.3595,2.3606,2.3547,2.3531,2.3547,2.362,2.3671,2.3653,2.3764,2.3837,2.3847,2.4084,2.4199,2.4199,2.4199,2.4199,2.4199,2.4199,2.4199,2.4199,2.4199,2.4199,2.4199,2.42,2.4402,2.4842,2.526,2.5675,2.6035,2.6495,2.6896,0.0,0.0,0.0,0.0,0.0,0.0,0.0,0.0,0.0,0.0,0.0,2.6205,2.6097,2.5887,2.5852,2.6063,2.5917,2.5876,2.5946,2.5708,2.5467,2.5322,2.5001,2.4746,2.4657,2.4604,2.4686,2.5086,2.5142,2.5458,2.6313,2.607,2.5962,2.6486,2.683,2.7242,2.7665,2.8084,2.8522,2.9019,2.9485,2.9857,2.9888,2.9964,3.003,3.0087,3.0132,3.0154,3.0154,3.0183,3.0204,3.0204,3.0204,3.0204,3.0089,2.9459,2.8886,2.8809,2.8809,2.8809,2.8059,2.6336,2.6319,2.5947,2.5388,2.5947,2.5897,2.5406,2.4778,2.4508,2.4508,2.4508,2.4508,2.4508,2.4508,2.4521,2.4552,2.4654,2.4364,2.3813,2.411,2.3929,2.3321,2.3562,2.3666,2.3656,2.3562,2.3545,2.3567,2.356,2.3528,2.3553,2.3655,2.363,2.3575,2.4029,2.4213,2.4151,2.4151,2.417,2.4199,2.4199,2.4199,2.4199,2.4199,2.4199,2.4199,2.4199,2.4199,2.4226,2.4936,2.5314,2.5256,2.6076,2.687,0.0,2.7035,0.0,0.0,0.0,0.0,0.0,0.0,0.0,0.0,2.7255,2.7346,2.7587,2.7335,2.7158,2.7157,2.6933,2.6786,2.6767,2.6087,2.5626,2.571,2.5022,2.4569,2.4651,2.4652,2.4925,2.5577,2.5791,2.62,2.7019,2.7214,2.7305,2.7535,2.7984,2.8313,2.8519,2.9258,2.9658,2.9926,3.0028,3.012,3.0185,3.0326,3.0246,3.044,3.0464,3.0457,3.0517,3.0615,3.0591,3.0529,3.056,3.056,3.0643,3.0546,3.0378,3.014,3.0051,3.0204,3.0145,3.0159,3.0125,3.0057,2.9888,2.9448,2.752,2.4711,2.4558,2.4508,2.4508,2.4508,2.4508,2.4508,2.4508,2.4628,2.4869,2.544,2.5766,2.5869,2.6486,2.6725,2.66,2.6748,2.6777,2.667,2.6748,2.6752,2.6627,2.6118,2.5889,2.5936,2.5437,2.4905,2.4397,0.0,0.0,0.0,2.3886,2.3986,2.419,2.4199,2.4199,2.4199,2.4199,0.0,2.4199,2.4199,2.4199,2.4218,2.4346,0.0,0.0,0.0,0.0,0.0,0.0,0.0,0.0,0.0,0.0,0.0,2.8738,2.826,2.7235,2.698,2.6963,2.7105,2.6981,2.6916,2.7024,2.6461,2.6126,2.6216,2.554,2.5009,2.4937,2.4778,2.4618,2.4549,2.5083,2.554,2.5827,2.6376,2.7167,2.8026,2.8156,2.8427,2.9074,2.8764,2.8697,2.9307,2.972,3.002,3.0631,3.0725,3.0979,3.1591,3.1845,3.1807,3.1806,3.186,3.1922,3.1927,3.2072,3.2118,3.2161,3.2187,3.206,3.2187,3.2075,3.1629,3.0481,3.0223,3.0204,3.0892,0.0,3.1092,3.119,0.0,3.0801,2.9364,2.725,2.6877,2.6708,2.6691,2.6302,2.6133,2.6116,2.576,2.5671,2.5813,2.6173,2.6219,2.6033,2.6377,2.6375,2.6012,2.609,2.609,2.6029,2.6165,2.6402,2.6671,2.6445,2.6519,2.6946,2.6606,2.6282,2.5922,2.555,2.4762,2.3635,2.3599,2.3724,2.3986,2.4006,2.4056,2.4208,2.4199,0.0,0.0,0.0,0.0,0.0,0.0,0.0,0.0,2.4615,0.0,2.5443,2.5837,2.6418,2.723,2.7282,2.7448,2.7869,2.8307,2.8452,2.8241,2.8268,2.8278,2.8259,2.7867,2.7559,2.7522,2.685,2.6427,2.6447,2.5759,2.5276,2.5213,2.5178,2.5171,2.5186,2.5782,2.6451,2.687,2.7298,2.8118,2.9247,2.9522,2.9831,3.0533,3.0132,2.9955,3.0734,3.0884,3.1044,3.1381,3.1475,3.1626,3.2117,3.2193,3.2222,3.2279,3.2326,3.2353,3.2399,3.2443,3.2514,3.2547,3.2522,3.2514,3.2547,3.2522,3.2305,3.1516,3.1379,3.1398,3.1145,3.0705,3.1141,3.1382,3.1459,3.1459,3.1145,3.0596,0.0,0.0,0.0,2.828,2.801,2.7976,2.7368,2.7114,2.7114,2.7232,2.6979,2.6404,2.6539,2.6201,2.5506,2.5505,2.5438,2.5302,2.5411,2.5813,2.6444,2.6419,2.6755,2.7388,2.7336,2.725,2.7247,2.6644,2.5567,2.4157,2.3839,2.3866,2.4136,2.4147,2.4179,2.4273,2.4295,2.426,2.4132,2.417,2.4199,2.4199,2.4209,2.4191,2.4199,2.4209,2.4485,2.5117,2.5172,2.554,2.6308,2.6392,2.6471,2.6663,2.7342,2.8201,2.9263,2.9411,2.9419,2.9289,2.8549,2.8026,2.7872,2.7138,2.6758,2.686,2.6182,2.5726,2.5875,2.5903,2.5912,2.6005,2.6776,2.7575,2.8207,2.8645,2.9221,3.0498,3.0843,3.125,3.1915,3.1538,3.1231,3.1804,3.1889,3.2086,3.2292,3.233,3.2386,3.264,3.2659,3.2586,3.2664,3.2693,3.2732,3.2959,3.2835,3.2901,3.2872,3.2958,3.2844,3.2853,3.2889,3.298,3.2969,3.2978,3.2873,3.1405,3.1683,3.1753,3.2042,3.2409,3.2392,3.2598,3.2709,3.0161,2.8993,2.8993,2.8874,2.884,2.884,2.8722,2.8671,2.8722,2.933,2.9548,2.9516,3.0125,3.0023,2.933,2.9388,2.9031,2.8418,2.8422,2.8543,2.8558,2.7912,2.7743,2.7962,2.7381,2.7138,2.7282,2.7178,2.7001,2.6732,2.561,2.516,2.5413,2.5426,2.5147,2.4592,2.4721,2.4505,2.3902,2.4092,2.4199,2.4199,2.4199,2.4199,2.4199,2.4199,2.4236,2.4346,2.4365,2.4722,2.5521,2.5558,2.587,2.6542,2.6736,2.7466,2.8961,2.8542,2.8136,2.8035,2.7391,2.692,2.686,2.6292,2.6163,2.6672,2.6154,2.5959,2.6591,2.673,2.6721,2.6767,2.8096,2.8998,2.9184,3.0302,3.1171,3.1683,3.1864,3.2229,3.2822,3.247,3.2011,3.2067,3.2115,3.2405,3.3025,3.3221,3.3456,3.4151,3.4143,3.4068,3.407,3.4099,3.4131,3.4373,3.428,3.4347,3.4415,3.449,3.4338,3.432,3.4243,3.423,3.431,3.4348,3.4055,3.1332,3.1558,3.1828,3.2078,3.2285,3.2574,3.2796,3.2935,3.1888,3.1159,3.077,3.0381,2.9973,2.9567,2.9179,2.8993,2.901,2.9347,2.9517,2.9516,2.9837,2.9822,2.9516,2.9538,2.9351,2.9028,2.9103,2.914,2.9106,2.8852,2.8785,2.887,2.8527,2.8217,2.7903,2.7885,2.7885,2.7851,2.6474,2.5858,2.6121,2.5712,2.5384,2.5198,2.5273,2.526,2.5113,2.4758,2.4655,2.4832,2.4438,2.4199,2.4199,2.4199,2.4199,2.4199,2.4199,2.4346,2.4732,2.4751,2.51,2.587,2.5982,2.6471,2.7647,2.7432,2.7274,2.7268,2.6615,2.6338,2.6736,2.6126,2.6005,2.6794,2.6544,2.6516,2.6869,2.7334,2.7538,2.765,2.8635,2.9388,2.9388,3.044,3.141,3.1834,3.2586,3.3444,3.3855,3.3655,3.3387,3.3456,3.3475,3.3617,3.3963,3.4057,3.4226,3.4556,3.4612,3.4612,3.4612,3.4612,3.4634,3.4676,3.4687,3.4708,3.474,3.4718,3.4718,3.4728,3.4749,3.4728,3.4788,3.481,3.4605,3.0665,3.084,3.1358,3.1792,3.2171,3.2646,3.2845,3.2889,3.3224,3.2983,3.2293,3.185,3.1376,3.0818,3.0245,2.9888,2.9754,2.9738,2.967,2.9501,2.9501,2.9433,2.9264,2.9265,2.9199,2.9064,2.9157,2.9246,2.9264,2.9386,2.9369,2.9265,2.9403,2.911,2.842,2.8575,2.873,2.8816,2.7559,2.6961,2.7156,2.6563,2.6205,2.6056,2.6105,2.6076,2.5997,2.5485,2.5299,2.551,2.4867,2.4465,2.4456,2.4309,2.4199,2.4199,2.4199,2.4199,2.4199,2.42,2.4467,2.5072,2.5359,2.5737,2.6268,2.6569,2.6723,2.6727,2.6135,2.5977,2.6608,2.6321,2.6256,2.7026,2.7166,2.7277,2.7501,2.8021,2.8393,2.8486,2.9285,2.9973,3.0103,3.0809,3.1749,3.2553,3.3536,3.4302,3.4404,3.445,3.4495,3.4539,3.4572,3.4537,3.4612,3.4575,3.4575,3.4612,3.4612,3.4612,3.4612,3.4612,3.4612,3.4623,3.4612,3.4623,3.4612,3.4612,3.4623,3.4634,3.4666,3.4728,3.4747,3.4761,3.4841,2.9039,2.9593,3.0115,3.1169,3.2424,3.3036,3.3246,3.3267,3.3385,3.2983,3.2412,3.2916,3.3119,3.3102,3.2933,3.251,3.1955,3.1989,3.1616,3.1021,3.1024,3.0649,3.0093,3.0066,2.9748,2.9222,2.9295,2.9452,2.9437,2.9367,2.9025,2.8561,2.9127,2.9161,2.8575,2.9058,2.973,3.0437,2.9627,2.9196,2.923,2.9161,2.8486,2.7187,2.7328,2.6777,2.5697,2.5846,2.6079,2.6005,2.557,2.5283,2.5227,2.4622,2.4208,2.4218,2.4208,2.4199,2.4208,2.4199,2.4309,2.4346,2.509,2.5506,2.5686,2.6296,2.6671,2.6575,2.5978,2.5954,2.6589,2.6656,2.7021,2.7877,2.7951,2.8221,2.8903,2.924,2.9295,2.9295,3.0511,3.1571,3.1552,3.2593,3.3675,3.3736,3.4044,3.4351,3.4363,3.4416,3.4409,3.445,3.4517,3.462,3.4602,3.4612,3.4612,3.4612,3.4612,3.4612,3.4612,3.4612,3.4612,3.4612,3.4612,3.4612,3.4612,3.4612,3.4612,3.4612,3.4623,3.4634,3.4634,3.4615,3.4689,2.974,2.9966,2.9776,2.9829,3.025,3.1399,3.1913,3.199,3.2975,3.322,3.3,3.3271,3.3169,3.2763,3.3203,3.3237,3.2949,3.2949,3.2797,3.2476,3.213,3.1777,3.1509,3.1111,3.0795,3.0556,3.0614,3.043,3.0038,2.9643,2.9283,2.9059,2.9351,2.9334,2.9041,2.892,2.9455,3.0627,2.9903,2.9937,3.0644,2.9972,2.923,2.8695,2.869,2.8557,2.8112,2.7876,2.7597,2.7284,2.679,2.6306,2.5903,2.5704,2.5401,2.497,2.4915,2.4915,2.4897,2.5356,2.5611,2.5621,2.5915,2.6119,2.615,2.6454,2.6812,2.719,2.674,2.6672,2.7384,2.7534,2.7877,2.8668,2.8845,2.8975,2.9322,2.9824,3.0103,3.0177,3.1087,3.1801,3.1942,3.2778,3.3664,3.4085,3.4269,3.4349,3.4311,3.434,3.4386,3.4483,3.4918,3.5068,3.4738,3.4572,3.462,3.4631,3.4612,3.4612,3.4612,3.4612,3.4612,3.4612,3.4612,3.4612,3.4612,3.4612,3.4612,3.4612,3.4612,3.4612,3.4612,3.4506,3.4487,3.0402,3.0335,3.0,2.9679,2.9437,3.042,3.0869,3.0981,3.2107,3.2614,3.2631,3.2959,3.2797,3.2462,3.3068,3.3389,3.3389,3.3389,3.3389,3.3339,3.293,3.2734,3.2683,3.2324,3.1974,3.1842,3.1869,3.1548,3.0898,3.0384,3.0041,2.9868,2.9834,2.9713,2.9455,2.8954,2.9351,3.0524,3.011,3.0472,3.1455,3.0713,3.0041,2.9851,2.9834,2.9901,2.9986,2.9505,2.9157,2.8917,2.8379,2.7858,2.7337,2.7273,2.6998,2.6465,2.6403,2.6282,2.609,2.6612,2.6833,2.6638,2.6778,2.6924,2.7001,2.7177,2.7587,2.812,2.7867,2.7881,2.8299,2.8408,2.8716,2.9312,2.9553,2.9691,2.9787,3.0437,3.092,3.0995,3.1682,3.224,3.25,3.3076,3.3726,3.4451,3.4612,3.4735,3.4878,3.5062,3.5145,3.5089,3.578,3.5777,3.5109,3.5274,3.5184,3.4958,3.5015,3.495,3.4706,3.4612,3.4612,3.4612,3.4612,3.4612,3.4612,3.4612,3.4602,3.4572,3.455,3.4517,3.4495,3.4351,3.4281,3.0402,3.0479,3.0845,3.1163,3.1581,3.1022,3.081,3.0826,3.0799,3.0721,3.0971,3.1907,3.2344,3.2293,3.2949,3.3351,3.3389,3.3389,3.3423,3.3457,3.3339,3.3355,3.3372,3.3447,3.3158,3.263,3.2694,3.2395,3.1764,3.1662,3.1334,3.0679,3.0627,3.0265,2.9713,2.9541,2.9868,3.0644,3.0645,3.0989,3.1679,3.1696,3.1265,3.0714,3.0627,3.0473,3.016,3.0297,3.0539,3.084,3.0305,3.0015,2.9898,2.925,2.8803,2.8767,2.8785,2.8455,2.7805,2.7824,2.7603,2.6998,2.753,2.7791,2.797,2.8551,2.8993,2.9217,2.9251,2.932,2.9323,2.9265,2.9294,2.9572,3.0105,3.0439,3.0549,3.1273,3.1701,3.1868,3.2451,3.3194,3.3918,3.4135,3.4562,3.5175,3.5473,3.5715,3.6267,3.6572,3.6583,3.6614,3.6737,3.6703,3.61,3.616,3.631,3.6104,3.5747,3.5615,3.5026,3.4612,3.4688,3.4744,3.495,3.495,3.4725,3.4602,3.4561,3.4517,3.4374,3.4328,3.4316,3.413,3.4068,3.1428,3.1043,3.1238,3.1171,3.0927,3.0949,3.0999,3.1015,3.1228,3.1259,3.1212,3.1603,3.17,3.1596,3.1867,3.251,3.3339,3.3389,3.3643,3.3998,3.371,3.3782,3.4173,3.3953,3.3696,3.3499,3.3564,3.3264,3.2507,3.2041,3.1662,3.149,3.1386,3.1231,3.0938,3.0506,3.0644,3.1265,3.0956,3.1041,3.1731,3.18,3.1662,3.1439,3.1403,3.1427,3.1459,3.1575,3.1588,3.1455,3.1419,3.1187,3.0717,3.0106,2.9776,2.9757,2.9757,2.9629,2.9439,2.9824,2.9989,2.9714,2.9439,2.934,2.94,2.9697,2.9931,3.0072,3.058,3.0835,3.0783,3.0431,3.032,3.0872,3.1158,3.1351,3.1504,3.2072,3.2562,3.2674,3.3287,3.4086,3.4767,3.5045,3.5367,3.6067,3.6285,3.649,3.6696,3.687,3.7013,3.7044,3.7416,3.7739,3.7478,3.7106,3.696,3.6828,3.6641,3.6584,3.619,3.6021,3.6077,3.5983,3.5946,3.5717,3.5574,3.494,3.4836,3.4493,3.4357,3.4358,3.4093,3.3992,3.3947,3.2136,3.1763,3.1732,3.1474,3.107,3.113,3.1189,3.1234,3.146,3.1483,3.144,3.1704,3.1701,3.1525,3.1759,3.2137,3.2778,3.2951,3.3461,3.413,3.379,3.3883,3.4299,3.4274,3.412,3.3954,3.4054,3.3803,3.3248,3.2524,3.2179,3.2162,3.1921,3.18,3.1714,3.1282,3.1352,3.161,3.1282,3.13,3.1748,3.18,3.18,3.18,3.18,3.1965,3.2283,3.2403,3.2406,3.2286,3.2491,3.2406,3.1919,3.1571,3.1366,3.1366,3.1366,3.1219,3.1054,3.1494,3.1659,3.1397,3.0907,3.0577,3.0577,3.0655,3.0715,3.0891,3.1268,3.177,3.199,3.1678,3.1515,3.1812,3.2035,3.2172,3.2228,3.289,3.3466,3.3844,3.4302,3.499,3.5696,3.5844,3.6272,3.6978,3.7121,3.7184,3.7515,3.7667,3.7736,3.7785,3.8321,3.8651,3.8564,3.8338,3.7861,3.7674,3.7505,3.7467,3.7336,3.726,3.7242,3.7185,3.7005,3.6726,3.6225,3.5539,3.5075,3.4705,3.4655,3.4723,3.4357,3.3908,3.397,3.2398,3.2382,3.2398,3.2305,3.2136,3.1682,3.1451,3.1449,3.1328,3.1401,3.1526,3.2194,3.234,3.2125,3.278,3.2719,3.205,3.2345,3.2893,3.3518,3.3522,3.3601,3.3799,3.4408,3.4422,3.392,3.4002,3.4061,3.3958,3.3197,3.2817,3.2766,3.2214,3.1938,3.1852,3.1765,3.1748,3.1765,3.1696,3.1748,3.18,3.18,3.18,3.18,3.18,3.1947,3.2266,3.2586,3.2887,3.3189,3.3505,3.3775,3.3597,3.3513,3.366,3.3495,3.3642,3.3311,3.2656,3.2546,3.2302,3.1806,3.147,3.1403,3.1427,3.1464,3.152,3.1574,3.1787,3.2129,3.2789,3.2892,3.2667,3.2091,3.263,3.299,3.3138,3.3714,3.4531,3.5231,3.5491,3.5844,3.6458,3.6718,3.7034,3.7679,3.7966,3.8204,3.8734,3.8956,3.9314,3.9327,3.9264,3.9227,3.9427,3.9514,3.9007,3.8563,3.8375,3.8244,3.7955,3.7805,3.788,3.7824,3.7542,3.7282,3.7067,3.6416,3.5919,3.559,3.5448,3.5186,3.4818,3.4491,3.422,3.2675,3.3013,3.2582,3.2398,3.2367,3.2151,3.2074,3.2141,3.2384,3.246,3.2474,3.3053,3.3172,3.3006,3.3284,3.3204,3.2841,3.2971,3.2953,3.2829,3.2883,3.3179,3.3625,3.4018,3.4177,3.3948,3.3505,3.3576,3.3869,3.3283,3.3145,3.3473,3.2921,3.2576,3.2472,3.2076,3.18,3.18,3.18,3.18,3.18,3.18,3.18,3.18,3.18,3.1856,3.1966,3.2503,3.2937,3.3258,3.3625,3.3807,3.3807,3.3807,3.3807,3.3807,3.3807,3.3752,3.3513,3.3403,3.3311,3.2981,3.254,3.2272,3.2292,3.2354,3.2379,3.2478,3.2994,3.3548,3.3679,3.3789,3.3658,3.3473,3.3677,3.3788,3.393,3.4581,3.5417,3.6142,3.6315,3.6668,3.7294,3.7535,3.7865,3.8556,3.8769,3.8995,3.9292,3.9425,3.9495,3.9508,3.954,3.9577,3.9583,3.9596,3.9364,3.9082,3.8988,3.8894,3.8594,3.8462,3.8519,3.8432,3.8131,3.7884,3.7667,3.7343,3.6829,3.639,3.6133,3.5814,3.5485,3.5198,3.4921,3.2782,3.3321,3.2936,3.2936,3.3106,3.2906,3.2767,3.2777,3.2843,3.3103,3.3444,3.3991,3.435,3.4528,3.4869,3.4784,3.4438,3.4619,3.4359,3.3511,3.275,3.2898,3.3314,3.3468,3.3776,3.399,3.3593,3.3593,3.4044,3.3335,3.3162,3.3438,3.2869,3.2455,3.2472,3.2041,3.18,3.18,3.18,3.18,3.18,3.18,3.18,3.18,3.18,3.18,3.1855,3.2335,3.2716,3.297,3.3346,3.3652,3.3775,3.3807,3.3807,3.3807,3.3807,3.3807,3.3807,3.377,3.3807,3.3697,3.3356,3.3107,3.314,3.3191,3.3259,3.3364,3.3747,3.4148,3.4105,3.4142,3.4309,3.4674,3.4346,3.4364,3.4674,3.5436,3.6272,3.6904,3.7158,3.7567,3.8111,3.8444,3.8625,3.9136,3.9256,3.9283,3.9425,3.9482,3.9495,3.952,3.9558,3.9571,3.9558,3.9583,3.9608,3.9533,3.9477,3.9401,3.9232,3.9195,3.9232,3.9089,3.8852,3.8645,3.8425,3.812,3.7687,3.729,3.6786,3.6405,3.6073,3.5879,3.5655,3.2782,3.3367,3.3383,3.3706,3.4181,3.369,3.346,3.3367,3.2971,3.3404,3.4281,3.4988,3.5612,3.6416,3.7014,3.6929,3.6391,3.6649,3.6541,3.5513,3.4229,3.3445,3.3569,3.3365,3.3559,3.399,3.3837,3.3852,3.3872,3.3231,3.2938,3.3076,3.249,3.1921,3.2041,3.1852,3.18,3.18,3.18,3.18,3.18,3.18,3.18,3.18,3.18,3.18,3.1855,3.2109,3.2318,3.2437,3.3063,3.348,3.3739,3.3807,3.3807,3.3807,3.3807,3.3807,3.3807,3.3807,3.3807,3.3802,3.38,3.3895,3.3779,3.3806,3.3857,3.3876,3.4031,3.4111,3.4111,3.4309,3.4717,3.5324,3.5045,3.4971,3.5584,3.6296,3.6853,3.7554,3.7947,3.8109,3.8539,3.8763,3.8902,3.9064,3.9128,3.918,3.9438,3.9495,3.9527,3.9533,3.9583,3.9583,3.9583,3.9583,3.9608,3.9608,3.9608,3.9608,3.9608,3.9608,3.9608,3.9502,3.9414,3.9266,3.9053,3.866,3.8317,3.7841,3.739,3.6963,3.6778,3.6711,3.6583,3.2782,3.3367,3.3398,3.3506,3.3737,3.3998,3.4212,3.427,3.4454,3.4588,3.5224,3.6082,3.6609,3.7011,3.772,3.7872,3.7787,3.7916,3.7957,3.7591,3.6637,3.5813,3.5194,3.4266,3.3886,3.399,3.3248,3.2679,3.3162,3.3024,3.3145,3.3731,3.2852,3.2541,3.2559,3.2041,3.1817,3.18,3.1817,3.1817,3.18,3.1834,3.18,3.18,3.18,3.18,3.18,3.1874,3.2318,3.2986,3.3169,3.3451,3.3734,3.3807,3.3807,3.3807,3.3807,3.3807,3.3807,3.3807,3.3807,3.382,3.3855,3.3939,3.3972,3.4036,3.4061,3.4086,3.4136,3.4167,3.4235,3.4785,3.5497,3.6179,3.6067,3.6253,3.6816,3.6928,3.7002,3.7671,3.74,3.7326,3.7418,3.7556,3.7789,3.8219,3.8476,3.8658,3.8971,3.9377,3.9352,3.9514,3.9589,3.9608,3.9608,3.9608,3.9608,3.9608,3.9608,3.9608,3.9608,3.9608,3.9608,3.9577,3.9533,3.9426,3.9259,3.9007,3.8645,3.8247,3.8074,3.7713,3.7849,3.7872,3.7671,3.2798,3.3383,3.3398,3.3752,3.4245,3.4459,3.4659,3.4887,3.4947,3.5294,3.5807,3.6464,3.7269,3.8068,3.8522,3.8875,3.9109,3.9268,3.9345,3.933,3.8946,3.7878,3.6473,3.5301,3.4869,3.449,3.3662,3.3179,3.2972,3.2904,3.3024,3.2938,3.2662,3.2455,3.2352,3.2059,3.18,3.1852,3.2059,3.2127,3.1834,3.2127,3.2041,3.1903,3.18,3.18,3.18,3.18,3.2162,3.2732,3.3001,3.3243,3.3569,3.3753,3.3807,3.3807,3.3807,3.3807,3.3807,3.3807,3.3807,3.382,3.3855,3.3915,3.3998,3.4061,3.408,3.4136,3.4482,3.4686,3.4903,3.5763,3.6445,3.6681,3.6983,3.7238,3.7411,3.7275,3.7238,3.7275,3.7028,3.6712,3.6699,3.6701,3.7006,3.7393,3.7623,3.791,3.8271,3.8757,3.9164,3.9276,3.9533,3.9608,3.9608,3.9608,3.9608,3.9608,3.9777,3.9739,3.9608,3.9608,3.9608,3.9608,3.9608,3.9527,3.9309,3.9101,3.8828,3.8533,3.8525,3.8401,3.8354,3.8338,3.8259,3.2921,3.3413,3.3475,3.4198,3.4999,3.4828,3.4967,3.5306,3.5103,3.5461,3.6245,3.6613,3.7614,3.9162,3.9248,3.9817,4.0302,4.0408,4.0542,4.0545,4.0358,3.937,3.7456,3.6784,3.6284,3.5766,3.5473,3.4456,3.3697,3.33,3.2714,3.2421,3.211,3.1886,3.1955,3.1817,3.18,3.1903,3.2283,3.2248,3.2024,3.2369,3.2421,3.1886,3.18,3.18,3.18,3.1818,3.1966,3.2231,3.2569,3.2939,3.3276,3.3606,3.3748,3.3807,3.3807,3.3807,3.382,3.382,3.382,3.3815,3.3868,3.3921,3.4022,3.4166,3.4395,3.4457,3.5113,3.5596,3.5962,3.7002,3.7238,3.7071,3.7466,3.7299,3.6928,3.7225,3.7373,3.6681,3.6583,3.6477,3.649,3.6547,3.6603,3.6646,3.6932,3.7486,3.8016,3.8633,3.8864,3.8895,3.9227,3.9608,3.9608,3.9608,3.9608,3.9627,3.9927,3.9965,3.9664,3.9608,3.9608,3.9608,3.9527,3.938,3.917,3.8974,3.877,3.8575,3.8352,3.8274,3.8225,3.8259,3.8209,3.3783,3.346,3.3998,3.4091,3.4044,3.4874,3.5367,3.5537,3.6044,3.6244,3.6582,3.7105,3.7919,3.8843,3.9385,4.0011,4.0655,4.0817,4.0847,4.0864,4.0871,4.067,3.9566,3.8686,3.803,3.7542,3.6559,3.5611,3.4904,3.4542,3.399,3.2852,3.2662,3.2369,3.1921,3.1903,3.18,3.1834,3.2007,3.2041,3.2007,3.249,3.2576,3.1955,3.1886,3.1834,3.18,3.18,3.1819,3.1966,3.2249,3.2684,3.3154,3.3379,3.355,3.3748,3.3807,3.3807,3.382,3.3829,3.3842,3.3815,3.3987,3.3959,3.3994,3.4687,3.5029,3.526,3.5871,3.6597,3.7132,3.7034,3.7164,3.7262,3.7076,3.663,3.5993,3.5937,3.6012,3.5733,3.5244,3.4779,3.4822,3.5021,3.5293,3.5783,3.6472,3.7107,3.7785,3.8484,3.884,3.9008,3.9696,4.0171,4.0209,4.0228,4.0247,4.0247,4.0434,4.0509,4.0209,3.9746,3.9802,3.9646,3.9406,3.9229,3.9003,3.88,3.8572,3.8385,3.8241,3.8225,3.8209,3.8209,3.8209,3.4274,3.3967,3.4351,3.4445,3.4491,3.5183,3.5721,3.6091,3.6492,3.6739,3.6831,3.7238,3.7895,3.8707,3.9226,3.991,4.0655,4.0888,4.0894,4.0912,4.0894,4.0894,4.0825,4.0135,3.9531,3.9043,3.8353,3.7353,3.6494,3.5835,3.5111,3.4007,3.3662,3.3059,3.2438,3.2283,3.211,3.1955,3.2162,3.2179,3.1972,3.2507,3.28,3.2524,3.261,3.2748,3.2386,3.2334,3.2127,3.1978,3.2144,3.2538,3.3019,3.3232,3.3465,3.3739,3.3807,3.3807,3.382,3.3834,3.3842,3.3897,3.4271,3.4526,3.4792,3.5423,3.5869,3.6157,3.6708,3.7426,3.7819,3.7615,3.7368,3.6662,3.642,3.5789,3.5175,3.5231,3.5287,3.499,3.4544,3.4358,3.4253,3.4531,3.4952,3.5845,3.6578,3.7194,3.7542,3.8278,3.9146,3.9621,4.0372,4.0835,4.0872,4.0947,4.1041,4.1116,4.1285,4.1304,4.1154,4.0578,4.0027,3.9737,3.9394,3.905,3.8815,3.8603,3.8449,3.8305,3.8225,3.8209,3.8209,3.8209,3.8209,3.481,3.4718,3.4718,3.4995,3.5397,3.552,3.5966,3.6476,3.6754,3.6862,3.6999,3.715,3.7754,3.8518,3.8984,3.9714,4.0517,4.0823,4.0894,4.0894,4.0894,4.0894,4.0843,4.0687,4.0429,3.9905,3.9715,3.8974,3.7961,3.7129,3.6559,3.5594,3.4821,3.4182,3.3473,3.2921,3.2593,3.2214,3.2334,3.2317,3.2007,3.2507,3.2854,3.3036,3.3367,3.3531,3.3184,3.313,3.2987,3.24,3.2546,3.2857,3.3164,3.3178,3.3451,3.378,3.3807,3.3935,3.4119,3.4114,3.4173,3.4231,3.4921,3.538,3.5663,3.6213,3.6678,3.7005,3.7416,3.7694,3.7745,3.7281,3.6681,3.5937,3.5491,3.4952,3.4569,3.4952,3.5052,3.4494,3.4581,3.4711,3.4878,3.5157,3.551,3.5969,3.6739,3.743,3.7879,3.8546,3.9733,4.0321,4.1053,4.1347,4.1385,4.1867,4.1942,4.1835,4.2023,4.2023,4.1916,4.1274,4.0566,3.9781,3.937,3.9017,3.8716,3.8496,3.8354,3.8242,3.8209,3.8209,3.8209,3.8209,3.8209,3.6269,3.577,3.5755,3.549,3.515,3.5632,3.6035,3.6219,3.684,3.7059,3.703,3.7165,3.7594,3.8226,3.8734,3.9655,4.0614,4.0871,4.0894,4.0894,4.0894,4.0894,4.0894,4.0894,4.0774,4.0774,4.0618,4.0066,3.9457,3.9129,3.8146,3.7185,3.6318,3.5559,3.4594,3.368,3.3093,3.2697,3.2421,3.2076,3.2127,3.2526,3.3038,3.3259,3.3612,3.3723,3.3899,3.4164,3.4445,3.4605,3.4411,3.4566,3.4531,3.3849,3.3636,3.3941,3.4077,3.4334,3.4738,3.4871,3.5276,3.5754,3.5929,3.6081,3.6325,3.6856,3.7161,3.7441,3.7564,3.7596,3.6928,3.6575,3.5974,3.5398,3.5157,3.4717,3.4661,3.5175,3.5566,3.507,3.5194,3.5417,3.5807,3.6346,3.7052,3.7673,3.8385,3.9053,3.9584,4.0304,4.1263,4.159,4.1734,4.186,4.1873,4.2543,4.29,4.2562,4.2586,4.2653,4.2425,4.182,4.1143,4.0502,3.9663,3.9028,3.8721,3.8478,3.8307,3.8209,3.8209,3.8209,3.8209,3.8209,3.8209,3.6812,3.6516,3.6516,3.6328,3.6079,3.636,3.656,3.6665,3.7023,3.724,3.7255,3.7345,3.7653,3.8226,3.8794,3.9749,4.0638,4.0894,4.0894,4.0894,4.0894,4.0894,4.0894,4.0894,4.0894,4.0894,4.086,4.0739,4.0284,3.9819,3.9336,3.8681,3.7853,3.6922,3.5921,3.5128,3.4214,3.3645,3.2817,3.2369,3.2334,3.2766,3.3059,3.3386,3.381,3.4041,3.3998,3.4141,3.416,3.3987,3.3983,3.4211,3.4277,3.4229,3.4068,3.4821,3.5009,3.522,3.551,3.551,3.539,3.5653,3.5851,3.5855,3.6066,3.65,3.7174,3.7238,3.7217,3.6959,3.616,3.6086,3.5937,3.5677,3.5757,3.6036,3.6259,3.6885,3.6811,3.6532,3.6853,3.7108,3.7071,3.774,3.8632,3.9379,4.0044,4.063,4.1199,4.1856,4.2589,4.2677,4.276,4.2929,4.2905,4.3257,4.3651,4.3369,4.3165,4.3231,4.3058,4.2526,4.2038,4.147,4.0515,3.9449,3.8942,3.8747,3.8479,3.8245,3.8227,3.8227,3.8209,3.8207,3.8207,3.709,3.709,3.709,3.709,3.709,3.709,3.715,3.724,3.7254,3.7359,3.748,3.751,3.7714,3.8242,3.8947,3.9808,4.0823,4.0894,4.0894,4.0894,4.0894,4.0894,4.0894,4.0894,4.0894,4.0894,4.0894,4.0894,4.0722,4.0325,4.0008,3.9629,3.9169,3.8301,3.7249,3.6611,3.5732,3.4731,3.3766,3.3317,3.2972,3.2962,3.3046,3.3336,3.4111,3.4426,3.4325,3.4478,3.4363,3.4127,3.4015,3.4055,3.4079,3.427,3.5009,3.6029,3.6062,3.5965,3.597,3.5648,3.538,3.5744,3.5605,3.5608,3.5901,3.6562,3.7005,3.6915,3.7002,3.676,3.6272,3.6495,3.6588,3.6569,3.7262,3.8116,3.8154,3.8488,3.8929,3.8804,3.8859,3.8804,3.8799,3.9286,4.0198,4.0817,4.1502,4.1983,4.2534,4.2973,4.3511,4.3656,4.3806,4.4088,4.4106,4.3994,4.4195,4.4064,4.3854,4.3806,4.3618,4.3336,4.2788,4.2159,4.1257,4.0245,3.9655,3.9096,3.8861,3.8644,3.839,3.8244,3.8242,3.8257,3.8274,3.745,3.745,3.7421,3.745,3.7421,3.7421,3.745,3.7435,3.7435,3.748,3.751,3.751,3.7553,3.796,3.8799,3.9817,4.0614,4.0894,4.0894,4.0894,4.0894,4.0894,4.0894,4.0894,4.0894,4.0894,4.0894,4.0894,4.086,4.0739,4.0705,4.0515,3.9939,3.937,3.8819,3.7939,3.6943,3.6059,3.5283,3.4266,3.3254,3.3256,3.3248,3.3395,3.4006,3.4669,3.4826,3.503,3.5211,3.5488,3.5423,3.5626,3.5973,3.6076,3.6168,3.5947,3.5262,3.4472,3.5317,3.5482,3.5638,3.6066,3.6251,3.6352,3.6512,3.6968,3.7472,3.7764,3.7708,3.7373,3.6866,3.7368,3.7578,3.8024,3.8618,3.9101,3.9305,4.0346,4.0736,4.0921,4.0921,4.0713,4.0564,4.1142,4.1758,4.2342,4.2889,4.3315,4.3652,4.3915,4.4088,4.4144,4.4163,4.4407,4.4482,4.4482,4.444,4.4454,4.4321,4.4136,4.3791,4.3488,4.3345,4.2647,4.1777,4.1179,4.0709,4.013,3.9496,3.9169,3.9077,3.8694,3.8292,3.8325,3.8538,3.751,3.751,3.751,3.751,3.751,3.751,3.751,3.751,3.751,3.751,3.751,3.751,3.7831,3.8427,3.9044,3.9833,4.0686,4.0894,4.0894,4.0877,4.0877,4.0877,4.0894,4.0894,4.0894,4.0843,4.0894,4.0894,4.0894,4.0894,4.0894,4.0843,4.0549,4.006,3.9836,3.9077,3.8353,3.7473,3.6422,3.5097,3.4073,3.3924,3.4147,3.4169,3.4878,3.514,3.5219,3.5284,3.5205,3.5151,3.4821,3.5138,3.5593,3.5813,3.5964,3.6417,3.5878,3.5629,3.5901,3.5942,3.6172,3.6338,3.6532,3.6535,3.6705,3.7037,3.7318,3.7188,3.7652,3.7721,3.7851,3.8613,3.9096,3.9602,4.0271,4.0754,4.1181,4.1962,4.2649,4.2816,4.2853,4.2441,4.2173,4.2567,4.2909,4.3214,4.3571,4.3844,4.4074,4.4233,4.4355,4.4407,4.4407,4.4463,4.4482,4.4482,4.4335,4.4306,4.4199,4.3999,4.3679,4.3424,4.3267,4.3124,4.2541,4.2032,4.1687,4.0963,4.013,3.9912,3.982,3.951,3.9251,3.9185,3.9252,3.751,3.751,3.751,3.751,3.751,3.751,3.751,3.751,3.751,3.751,3.751,3.7539,3.8132,3.899,3.9259,3.9808,4.0847,4.0894,4.0894,4.0877,4.0705,4.0543,4.0405,4.0446,4.0342,4.0618,4.048,4.0676,4.0924,4.0959,4.0959,4.0894,4.0825,4.0543,4.0181,3.9905,3.9549,3.88,3.7642,3.6277,3.5131,3.5116,3.5207,3.5326,3.5559,3.5762,3.5561,3.5579,3.5232,3.4966,3.4937,3.5324,3.5715,3.589,3.6078,3.6435,3.6292,3.6301,3.6389,3.6448,3.6549,3.6581,3.6636,3.6732,3.7029,3.7063,3.7522,3.7968,3.8692,3.8934,3.912,4.0215,4.0754,4.1404,4.2092,4.2686,4.3113,4.328,4.3429,4.3466,4.3503,4.3701,4.3602,4.3919,4.4114,4.4181,4.4329,4.4397,4.444,4.4473,4.4487,4.4482,4.4482,4.4482,4.4468,4.444,4.4292,4.4106,4.4014,4.3841,4.3494,4.3267,4.3105,4.2995,4.2919,4.2738,4.2285,4.1506,4.0764,4.0691,4.0599,4.0543,4.0393,4.0256,4.0063,3.751,3.751,3.751,3.751,3.751,3.751,3.751,3.751,3.751,3.751,3.751,3.7569,3.8132,3.892,3.9242,3.9808,4.0864,4.0894,4.0894,4.0653,4.0198,4.0077,3.9922,3.9646,3.9393,3.9894,4.0008,4.0406,4.0891,4.1047,4.0982,4.0935,4.0942,4.0884,4.0739,4.0607,4.0268,3.9645,3.8785,3.7802,3.6849,3.6556,3.6427,3.5736,3.574,3.5984,3.6371,3.6399,3.6219,3.5975,3.5942,3.6135,3.637,3.644,3.666,3.696,3.6975,3.7054,3.7155,3.6965,3.675,3.6716,3.697,3.7509,3.8177,3.8641,3.9194,3.9825,4.0383,4.094,4.1367,4.2036,4.237,4.263,4.3039,4.3336,4.3633,4.3708,4.3856,4.3968,4.402,4.4036,4.4113,4.4211,4.4255,4.43,4.4387,4.4454,4.4454,4.4482,4.4482,4.4482,4.4482,4.4468,4.444,4.4335,4.414,4.3905,4.371,4.3562,4.332,4.3142,4.2995,4.2957,4.2919,4.2919,4.2847,4.2122,4.1615,4.1488,4.1379,4.1378,4.1228,4.1019,4.0884,3.751,3.751,3.751,3.751,3.751,3.751,3.751,3.751,3.751,3.751,3.751,3.7539,3.7931,3.859,3.9109,3.9584,4.0353,4.0776,4.0864,4.0843,4.0584,4.044,4.0164,3.9876,3.9721,4.0187,4.0066,4.0135,4.089,4.107,4.1087,4.1047,4.1082,4.1035,4.1035,4.0971,4.0597,4.0123,3.971,3.9025,3.8411,3.8257,3.8029,3.7229,3.7817,3.7496,3.7088,3.7202,3.6962,3.674,3.6685,3.7026,3.7396,3.7442,3.7733,3.8103,3.8104,3.834,3.8489,3.8104,3.7821,3.8864,3.9059,3.9245,3.9807,4.042,4.0698,4.1274,4.185,4.2296,4.2426,4.3002,4.3503,4.3633,4.3745,4.3949,4.4005,4.4005,4.4005,4.4005,4.4036,4.4067,4.4143,4.4237,4.4281,4.431,4.4411,4.4482,4.4482,4.4482,4.4482,4.4454,4.4454,4.435,4.4306,4.4155,4.3968,4.371,4.3424,4.3285,4.316,4.305,4.2938,4.2919,4.2919,4.2919,4.281,4.2629,4.2393,4.2194,4.2159,4.2214,4.201,4.1766,4.1652,3.751,3.751,3.751,3.751,3.751,3.751,3.751,3.751,3.751,3.751,3.751,3.7539,3.7931,3.8535,3.9001,3.9662,4.0286,4.0728,4.1019,4.1067,4.1032,4.1067,4.0894,4.07,4.0516,4.0924,4.0613,4.0585,4.1434,4.1221,4.1163,4.1215,4.1267,4.1244,4.1129,4.1071,4.0851,4.0497,4.0374,4.011,3.9508,3.9483,3.9347,3.8706,3.9084,3.9063,3.8554,3.8658,3.8544,3.8295,3.8173,3.8399,3.8654,3.8956,3.9282,3.9607,3.99,4.0141,4.0201,3.9983,3.9505,4.0364,4.0601,4.0921,4.146,4.1794,4.1887,4.1999,4.2649,4.315,4.315,4.3633,4.3875,4.3856,4.3875,4.4005,4.4005,4.4005,4.4005,4.4005,4.4051,4.4116,4.4177,4.4266,4.4354,4.4383,4.4426,4.4482,4.4482,4.4482,4.4482,4.4454,4.4397,4.4258,4.4121,4.3889,4.3662,4.3526,4.3285,4.3124,4.2995,4.2938,4.2919,4.2919,4.2919,4.2919,4.2847,4.2737,4.2774,4.2847,4.2758,4.2687,4.2776,4.2552,4.2403,3.751,3.751,3.751,3.751,3.751,3.751,3.751,3.751,3.751,3.7524,3.7583,3.7599,3.8144,3.8936,3.9259,3.9808,4.051,4.0885,4.1315,4.1643,4.1622,4.154,4.1587,4.1555,4.1411,4.1827,4.1533,4.1493,4.2334,4.1725,4.1481,4.145,4.1536,4.1431,4.1209,4.1209,4.1237,4.1328,4.1276,4.0844,4.0447,4.0316,4.0032,3.9696,3.9724,3.9746,3.9644,4.005,3.9934,3.9665,4.0163,4.0335,4.0258,4.0655,4.094,4.1126,4.1278,4.1423,4.1534,4.1479,4.1553,4.1534,4.1586,4.1739,4.1869,4.2259,4.276,4.2835,4.3373,4.3801,4.3931,4.3949,4.3986,4.4005,4.4005,4.4005,4.4005,4.4005,4.4005,4.4055,4.4135,4.418,4.424,4.4314,4.4416,4.4473,4.4482,4.4482,4.4482,4.4482,4.4468,4.435,4.4277,4.406,4.3871,4.3579,4.3374,4.325,4.316,4.3013,4.2939,4.2919,4.2919,4.2919,4.2919,4.2919,4.2919,4.2901,4.2919,4.2919,4.303,4.3014,4.3214,4.3229,4.2989,3.751,3.751,3.751,3.751,3.751,3.751,3.751,3.751,3.7539,3.7685,3.7985,3.8026,3.8423,3.9082,3.9584,3.9986,4.0438,4.1581,4.2033,4.2161,4.2423,4.2801,4.2843,4.2599,4.2473,4.2717,4.2456,4.2427,4.3182,4.2445,4.2201,4.2165,4.1836,4.151,4.138,4.134,4.1363,4.1408,4.1436,4.138,4.1147,4.1016,4.0723,4.0162,4.03,4.0328,4.0208,4.0762,4.085,4.0583,4.1109,4.1123,4.0883,4.1103,4.1277,4.1369,4.1447,4.1869,4.237,4.2705,4.289,4.263,4.2407,4.2612,4.3132,4.3373,4.3578,4.3578,4.3763,4.4005,4.4005,4.3986,4.4005,4.4005,4.4005,4.4005,4.4005,4.4005,4.402,4.4119,4.4184,4.4255,4.4329,4.4358,4.4458,4.4487,4.4482,4.4482,4.4482,4.4468,4.444,4.4258,4.4106,4.3871,4.3627,4.3373,4.3196,4.3087,4.3032,4.2975,4.2919,4.2919,4.2919,4.2919,4.2919,4.2919,4.2919,4.2919,4.2919,4.2938,4.303,4.3105,4.3196,4.3304,4.3319,3.751,3.751,3.751,3.751,3.751,3.751,3.751,3.751,3.751,3.7714,3.7985,3.8181,3.8629,3.9216,3.974,4.0483,4.0785,4.164,4.2864,4.2992,4.3621,4.4063,4.4087,4.3892,4.4119,4.4126,4.3742,4.3626,4.401,4.3325,4.2865,4.2549,4.2226,4.1871,4.1651,4.1471,4.1453,4.1498,4.1542,4.1565,4.149,4.1432,4.1248,4.0968,4.0887,4.0901,4.0717,4.0896,4.1234,4.1087,4.1179,4.136,4.1252,4.1467,4.1744,4.1928,4.2229,4.2711,4.3243,4.354,4.354,4.3262,4.3225,4.3466,4.3893,4.3893,4.3912,4.3949,4.4005,4.4005,4.4005,4.4005,4.4005,4.4005,4.4005,4.4005,4.4005,4.402,4.4085,4.4184,4.4274,4.4344,4.4401,4.4426,4.4482,4.4482,4.4482,4.4482,4.4482,4.4468,4.4383,4.417,4.3968,4.3744,4.3493,4.3213,4.3069,4.2938,4.3028,4.3136,4.2919,4.2919,4.2919,4.2919,4.2919,4.2919,4.2919,4.2919,4.2919,4.2938,4.3012,4.3105,4.3196,4.3286,4.3394,3.751,3.751,3.751,3.751,3.751,3.751,3.751,3.751,3.751,3.7524,3.7612,3.8197,3.8767,3.9312,3.9842,4.0768,4.1868,4.2202,4.3225,4.4209,4.4642,4.513,4.5503,4.5623,4.5439,4.5481,4.5261,4.4701,4.4841,4.4183,4.353,4.3015,4.288,4.2424,4.2038,4.1805,4.1718,4.1652,4.1582,4.1604,4.1582,4.1565,4.149,4.1376,4.1385,4.1407,4.1442,4.1718,4.1766,4.1843,4.2163,4.2257,4.247,4.2923,4.3194,4.3401,4.3543,4.3691,4.3757,4.3871,4.3968,4.3782,4.3856,4.3986,4.3986,4.4005,4.4005,4.4005,4.4005,4.4005,4.4005,4.4005,4.4005,4.4005,4.4005,4.4005,4.402,4.407,4.4169,4.4244,4.4344,4.4416,4.444,4.4482,4.467,4.4482,4.4482,4.4482,4.4482,4.4482,4.435,4.4048,4.3825,4.3595,4.3392,4.3269,4.334,4.3372,4.3516,4.3588,4.3281,4.3155,4.3245,4.3263,4.301,4.2919,4.2919,4.2919,4.2938,4.2994,4.3068,4.3105,4.3196,4.3251,4.3322,3.751,3.751,3.751,3.751,3.751,3.751,3.751,3.751,3.751,3.7685,3.8084,3.8701,3.9189,3.98,4.0385,4.1247,4.2126,4.2954,4.3822,4.4663,4.5418,4.581,4.6027,4.6115,4.6147,4.6077,4.5902,4.5691,4.5604,4.5008,4.4295,4.3711,4.3605,4.3131,4.271,4.2424,4.2113,4.178,4.1674,4.1604,4.1604,4.1604,4.1604,4.1604,4.1604,4.1604,4.1697,4.1963,4.1938,4.1809,4.2113,4.2175,4.1895,4.2259,4.2581,4.2978,4.3264,4.354,4.3627,4.3844,4.3974,4.3974,4.3989,4.4005,4.4005,4.4005,4.4005,4.4005,4.4005,4.4005,4.4005,4.4005,4.4005,4.4005,4.4005,4.4005,4.4073,4.4284,4.4401,4.4767,4.4832,4.4908,4.4895,4.4838,4.4951,4.4651,4.4557,4.467,4.467,4.474,4.4497,4.4191,4.4184,4.4096,4.3725,4.3538,4.3699,4.3861,4.4041,4.4258,4.4313,4.415,4.3878,4.3608,4.3354,4.31,4.2919,4.2938,4.2994,4.3068,4.3123,4.316,4.3196,4.3269,4.3322,3.751,3.751,3.751,3.751,3.751,3.751,3.751,3.751,3.751,3.7714,3.8071,3.881,3.9428,3.98,4.0593,4.1648,4.2821,4.3352,4.4233,4.5432,4.5944,4.6084,4.6214,4.6214,4.6189,4.6214,4.6214,4.6084,4.6056,4.5793,4.515,4.4448,4.4378,4.3904,4.3447,4.3167,4.2798,4.2254,4.1832,4.1657,4.1604,4.1604,4.1604,4.1604,4.1604,4.1604,4.1626,4.1917,4.1788,4.1648,4.1917,4.1874,4.1675,4.1987,4.2382,4.2773,4.2996,4.3159,4.3231,4.3525,4.3712,4.3828,4.3926,4.3989,4.4005,4.4005,4.4005,4.4005,4.4005,4.4005,4.4005,4.4005,4.4005,4.4005,4.4005,4.4005,4.4219,4.45,4.4871,4.5346,4.5531,4.5612,4.557,4.5458,4.5514,4.5716,4.5791,4.5814,4.5608,4.5397,4.4983,4.4545,4.469,4.4759,4.4364,4.4095,4.4367,4.4603,4.4711,4.4947,4.5182,4.5001,4.453,4.4095,4.3698,4.3445,4.3173,4.3048,4.3068,4.3141,4.3178,4.3214,4.3269,4.334,4.3411,3.751,3.7553,3.7553,3.7612,3.7569,3.7612,3.7628,3.7553,3.7628,3.7599,3.7801,3.8772,3.9358,3.9774,4.0631,4.2061,4.3038,4.3674,4.4544,4.6126,4.6144,4.6214,4.6214,4.6214,4.6214,4.6214,4.6214,4.6214,4.6214,4.6021,4.5688,4.522,4.5185,4.4782,4.4132,4.4009,4.3605,4.2938,4.2377,4.2043,4.1692,4.1604,4.1604,4.1604,4.1604,4.1604,4.1604,4.1626,4.1604,4.1604,4.1604,4.1626,4.174,4.1878,4.2279,4.2521,4.2639,4.2753,4.2866,4.3123,4.3371,4.3562,4.38,4.4133,4.431,4.4361,4.4413,4.4525,4.4599,4.4822,4.4896,4.4896,4.4878,4.4878,4.4896,4.4896,4.5003,4.5301,4.5686,4.6072,4.6259,4.634,4.6373,4.6261,4.6204,4.6655,4.673,4.6659,4.6529,4.615,4.5724,4.5149,4.5125,4.5278,4.5146,4.4983,4.5236,4.5417,4.5544,4.5761,4.6106,4.5725,4.5128,4.4711,4.4295,4.3807,4.3519,4.3485,4.3396,4.3178,4.3251,4.3286,4.334,4.3412,4.3446,3.7642,3.7828,3.8062,3.8193,3.8164,3.8193,3.818,3.8209,3.8193,3.8033,3.8087,3.9022,3.9655,3.9834,4.0724,4.2126,4.3395,4.3809,4.4749,4.5751,4.6214,4.6214,4.6214,4.6214,4.6214,4.6214,4.6214,4.6214,4.6214,4.6179,4.6161,4.5933,4.5846,4.5449,4.4852,4.4799,4.4413,4.3676,4.3412,4.264,4.192,4.1674,4.1604,4.1604,4.1604,4.1604,4.1604,4.1604,4.1604,4.1604,4.1604,4.1604,4.1626,4.1701,4.1788,4.192,4.2216,4.2335,4.2568,4.2877,4.3233,4.3685,4.4077,4.4576,4.4874,4.4939,4.5045,4.5194,4.5342,4.5602,4.5769,4.5751,4.5732,4.5751,4.5769,4.5769,4.5788,4.6174,4.6557,4.6817,4.7024,4.7109,4.7147,4.7124,4.7012,4.6974,4.6955,4.6948,4.7046,4.6837,4.6657,4.6151,4.5681,4.5661,4.57,4.587,4.6124,4.6395,4.6576,4.6794,4.6993,4.6522,4.5979,4.5417,4.4928,4.4513,4.4227,4.4123,4.398,4.3743,4.3505,4.365,4.3539,4.3537,4.3517,3.7772,3.7943,3.8262,3.8391,3.8391,3.8391,3.8391,3.842,3.8516,3.8488,3.8439,3.9289,3.9817,4.0011,4.0866,4.2201,4.3559,4.3751,4.4833,4.5786,4.6214,4.6214,4.6214,4.6214,4.6214,4.6214,4.6214,4.6214,4.6214,4.6214,4.6196,4.6214,4.6179,4.6003,4.5547,4.5495,4.5185,4.4466,4.4448,4.3728,4.2605,4.2342,4.1903,4.1797,4.1622,4.1622,4.1604,4.1604,4.1604,4.1604,4.1604,4.1604,4.1604,4.1609,4.1626,4.1675,4.1845,4.2101,4.2441,4.2875,4.3401,4.4014,4.471,4.5329,4.5598,4.5702,4.6085,4.6197,4.6011,4.6197,4.6197,4.6197,4.6197,4.6197,4.6287,4.6325,4.6655,4.7071,4.7591,4.8147,4.8287,4.8336,4.8389,4.8438,4.8345,4.8345,4.8157,4.7832,4.7826,4.7516,4.7345,4.7095,4.6597,4.6514,4.6749,4.6866,4.6993,4.7283,4.7409,4.7409,4.7337,4.7174,4.6848,4.6214,4.5725,4.5419,4.5172,4.4961,4.4891,4.4747,4.44,4.4104,4.3956,4.3791,4.3644,3.8001,3.8059,3.8375,3.8548,3.8504,3.8504,3.8532,3.856,3.875,3.886,3.8898,3.9532,3.9851,4.0343,4.1047,4.248,4.3477,4.3769,4.4845,4.5846,4.6196,4.6214,4.6214,4.6214,4.6214,4.6214,4.6214,4.6214,4.6214,4.6214,4.6214,4.6214,4.6214,4.6196,4.6214,4.6126,4.5758,4.5378,4.5133,4.4782,4.4062,4.336,4.271,4.2184,4.1815,4.1762,4.1762,4.1639,4.1639,4.1604,4.1604,4.1604,4.1604,4.1604,4.1815,4.1855,4.2,4.2396,4.2846,4.3288,4.402,4.4789,4.5473,4.5919,4.6159,4.6597,4.6954,4.7006,4.682,4.6849,4.6849,4.6867,4.6867,4.6884,4.6993,4.7068,4.7527,4.793,4.8492,4.9145,4.9177,4.9227,4.9277,4.938,4.9402,4.9456,4.9377,4.9195,4.888,4.8304,4.7923,4.7719,4.7355,4.7427,4.7536,4.7479,4.7464,4.7518,4.7572,4.7645,4.7663,4.7464,4.7246,4.6939,4.6486,4.6235,4.5951,4.5686,4.5655,4.5585,4.5149,4.4748,4.4637,4.4417,4.3939,3.8432,3.865,3.9002,3.911,3.911,3.911,3.911,3.9137,3.9164,3.9218,3.9282,3.9651,4.0028,4.0351,4.1186,4.2424,4.3693,4.3904,4.4869,4.6003,4.6179,4.6214,4.6214,4.6214,4.6214,4.6214,4.6214,4.6214,4.6214,4.6214,4.6214,4.6214,4.6214,4.6214,4.6214,4.6161,4.6091,4.5846,4.5817,4.5536,4.4904,4.4255,4.3746,4.3272,4.2886,4.2693,4.2447,4.192,4.171,4.1604,4.171,4.178,4.185,4.1938,4.2148,4.2464,4.257,4.3009,4.3522,4.3802,4.4481,4.5008,4.5634,4.6216,4.6655,4.7368,4.7629,4.7776,4.774,4.8027,4.8081,4.8098,4.8116,4.8167,4.824,4.824,4.8479,4.8623,4.8895,4.9144,4.9206,4.9239,4.9286,4.9305,4.9292,4.9295,4.9228,4.9044,4.8731,4.855,4.8383,4.8131,4.7847,4.7783,4.7663,4.7645,4.7627,4.7681,4.7699,4.7699,4.7699,4.7699,4.7482,4.7246,4.7228,4.7086,4.6787,4.6428,4.6215,4.6074,4.5692,4.5386,4.5333,4.5077,4.4601]}]]